[[{"header":{"parameterUnit":"m.s-1","parameterCategory":1,"la1":30.6,"la2":28.766,"lo1":-90.7593,"lo2":-88.6598,"dy":0.0162,"dx":0.0183,"nx":116,"ny":114,"refTime":"2023-11-19T06:00:00:Z","depth":0,"parameterNumber":2,"parameterNumberName":"U-component_of_WINDS"},"data":[0.0,0.0,0.0,0.0,0.0,0.0,0.0,0.0,0.0,0.0,0.0,0.0,0.0,0.0,0.0,0.0,0.0,0.0,0.0,0.0,0.0,0.0,0.0,0.0,0.0,0.0,0.0,0.0,0.0,0.0,0.0,0.0,0.0,0.0,0.0,0.0,0.0,0.0,0.0,0.0,0.0,0.0,0.0,0.0,0.0,0.0,0.0,0.0,0.0,0.0,0.0,0.0,0.0,0.0,0.0,0.0,0.0,0.0,0.0,0.0,0.0,0.0,0.0,0.0,0.0,0.0,0.0,0.0,0.0,0.0,0.0,0.0,0.0,0.0,0.0,0.0,0.0,0.0,0.0,0.0,0.0,0.0,0.0,0.0,0.0,0.0,0.0,0.0,0.0,0.0,0.0,0.0,0.0,0.0,0.0,0.0,0.0,0.0,0.0,0.0,0.0,0.0,0.0,0.0,0.0,0.0,0.0,0.0,0.0,0.0,0.0,0.0,0.0,0.0,0.0,0.0,0.0,0.0,0.0,0.0,0.0,0.0,0.0,0.0,0.0,0.0,0.0,0.0,0.0,0.0,0.0,0.0,0.0,0.0,0.0,0.0,0.0,0.0,0.0,0.0,0.0,0.0,0.0,0.0,0.0,0.0,0.0,0.0,0.0,0.0,0.0,0.0,0.0,0.0,0.0,0.0,0.0,0.0,0.0,0.0,0.0,0.0,0.0,0.0,0.0,0.0,0.0,0.0,0.0,0.0,0.0,0.0,0.0,0.0,0.0,0.0,0.0,0.0,0.0,0.0,0.0,0.0,0.0,0.0,0.0,0.0,0.0,0.0,0.0,0.0,0.0,0.0,0.0,0.0,0.0,0.0,0.0,0.0,0.0,0.0,0.0,0.0,0.0,0.0,0.0,0.0,0.0,0.0,0.0,0.0,0.0,0.0,0.0,0.0,0.0,0.0,0.0,0.0,0.0,0.0,0.0,0.0,0.0,0.0,0.0,0.0,0.0,0.0,0.0,0.0,0.0,0.0,0.0,0.0,0.0,0.0,0.0,0.0,0.0,0.0,0.0,0.0,0.0,0.0,0.0,0.0,0.0,0.0,0.0,0.0,0.0,0.0,0.0,0.0,0.0,0.0,0.0,0.0,0.0,0.0,0.0,0.0,0.0,0.0,0.0,0.0,0.0,0.0,0.0,0.0,0.0,0.0,0.0,0.0,0.0,0.0,0.0,0.0,0.0,0.0,0.0,0.0,0.0,0.0,0.0,0.0,0.0,0.0,0.0,0.0,0.0,0.0,0.0,0.0,0.0,0.0,0.0,0.0,0.0,0.0,0.0,0.0,0.0,0.0,0.0,0.0,0.0,0.0,0.0,0.0,0.0,0.0,0.0,0.0,0.0,0.0,0.0,0.0,0.0,0.0,0.0,0.0,0.0,0.0,0.0,0.0,0.0,0.0,0.0,0.0,0.0,0.0,0.0,0.0,0.0,0.0,0.0,0.0,0.0,0.0,0.0,0.0,0.0,0.0,0.0,0.0,0.0,0.0,0.0,0.0,0.0,0.0,0.0,0.0,0.0,0.0,0.0,0.0,0.0,0.0,0.0,0.0,0.0,0.0,0.0,0.0,0.0,0.0,0.0,0.0,0.0,0.0,0.0,0.0,0.0,0.0,0.0,0.0,0.0,0.0,0.0,0.0,0.0,0.0,0.0,0.0,0.0,0.0,0.0,0.0,0.0,0.0,0.0,0.0,0.0,0.0,0.0,0.0,0.0,0.0,0.0,0.0,0.0,0.0,0.0,0.0,0.0,0.0,0.0,0.0,0.0,0.0,0.0,0.0,0.0,0.0,0.0,0.0,0.0,0.0,0.0,0.0,0.0,0.0,0.0,0.0,0.0,0.0,0.0,0.0,0.0,0.0,0.0,0.0,0.0,0.0,0.0,0.0,0.0,0.0,0.0,0.0,0.0,0.0,0.0,0.0,0.0,0.0,0.0,0.0,0.0,0.0,0.0,0.0,0.0,0.0,0.0,0.0,0.0,0.0,0.0,0.0,0.0,0.0,0.0,0.0,0.0,0.0,0.0,0.0,0.0,0.0,0.0,0.0,0.0,0.0,0.0,0.0,0.0,0.0,0.0,0.0,0.0,0.0,0.0,0.0,0.0,0.0,0.0,0.0,0.0,0.0,0.0,0.0,0.0,0.0,0.0,0.0,0.0,0.0,0.0,0.0,0.0,0.0,0.0,0.0,0.0,0.0,0.0,0.0,0.0,0.0,0.0,0.0,0.0,0.0,0.0,0.0,0.0,0.0,0.0,0.0,0.0,0.0,0.0,0.0,0.0,0.0,0.0,0.0,0.0,0.0,0.0,0.0,0.0,0.0,0.0,0.0,0.0,0.0,0.0,0.0,0.0,0.0,0.0,0.0,0.0,0.0,0.0,0.0,0.0,0.0,0.0,0.0,0.0,0.0,0.0,0.0,0.0,0.0,0.0,0.0,0.0,0.0,0.0,0.0,0.0,0.0,0.0,0.0,0.0,0.0,0.0,0.0,0.0,0.0,0.0,0.0,0.0,0.0,0.0,0.0,0.0,0.0,0.0,0.0,0.0,0.0,0.0,0.0,0.0,0.0,0.0,0.0,0.0,0.0,0.0,0.0,0.0,0.0,0.0,0.0,0.0,0.0,0.0,0.0,0.0,0.0,0.0,0.0,0.0,0.0,0.0,0.0,0.0,0.0,0.0,0.0,0.0,0.0,0.0,0.0,0.0,0.0,0.0,0.0,0.0,0.0,0.0,0.0,0.0,0.0,0.0,0.0,0.0,0.0,0.0,0.0,0.0,0.0,0.0,0.0,0.0,0.0,0.0,0.0,0.0,0.0,0.0,0.0,0.0,0.0,0.0,0.0,0.0,0.0,0.0,0.0,0.0,0.0,0.0,0.0,0.0,0.0,0.0,0.0,0.0,0.0,0.0,0.0,0.0,0.0,0.0,0.0,0.0,0.0,0.0,0.0,0.0,0.0,0.0,0.0,0.0,0.0,0.0,0.0,0.0,0.0,0.0,0.0,0.0,0.0,0.0,0.0,0.0,0.0,0.0,0.0,0.0,0.0,0.0,0.0,0.0,0.0,0.0,0.0,0.0,0.0,0.0,0.0,0.0,0.0,0.0,0.0,0.0,0.0,0.0,0.0,0.0,0.0,0.0,0.0,0.0,0.0,0.0,0.0,0.0,0.0,0.0,0.0,0.0,0.0,0.0,0.0,0.0,0.0,0.0,0.0,0.0,0.0,0.0,0.0,0.0,0.0,0.0,0.0,0.0,0.0,0.0,0.0,0.0,0.0,0.0,0.0,0.0,0.0,0.0,0.0,0.0,0.0,0.0,0.0,0.0,0.0,0.0,0.0,0.0,0.0,0.0,0.0,0.0,0.0,0.0,0.0,0.0,0.0,0.0,0.0,0.0,0.0,0.0,0.0,0.0,0.0,0.0,0.0,0.0,0.0,0.0,0.0,0.0,0.0,0.0,0.0,0.0,0.0,0.0,0.0,0.0,0.0,0.0,0.0,0.0,0.0,0.0,0.0,0.0,0.0,0.0,0.0,0.0,0.0,0.0,0.0,0.0,0.0,0.0,0.0,0.0,0.0,0.0,0.0,0.0,0.0,0.0,0.0,0.0,0.0,0.0,0.0,0.0,0.0,0.0,0.0,0.0,0.0,0.0,0.0,0.0,0.0,0.0,0.0,0.0,0.0,0.0,0.0,0.0,0.0,0.0,0.0,0.0,0.0,0.0,0.0,0.0,0.0,0.0,0.0,0.0,0.0,0.0,0.0,0.0,0.0,0.0,0.0,0.0,0.0,0.0,0.0,0.0,0.0,0.0,0.0,0.0,0.0,0.0,0.0,0.0,0.0,0.0,0.0,0.0,0.0,0.0,0.0,0.0,0.0,0.0,0.0,0.0,0.0,0.0,0.0,0.0,0.0,0.0,0.0,0.0,0.0,0.0,0.0,0.0,0.0,0.0,0.0,0.0,0.0,0.0,0.0,0.0,0.0,0.0,0.0,0.0,0.0,0.0,0.0,0.0,0.0,0.0,0.0,0.0,0.0,0.0,0.0,0.0,0.0,0.0,0.0,0.0,0.0,0.0,0.0,0.0,0.0,0.0,0.0,0.0,0.0,0.0,0.0,0.0,0.0,0.0,0.0,0.0,0.0,0.0,0.0,0.0,0.0,0.0,0.0,0.0,0.0,0.0,0.0,0.0,0.0,0.0,0.0,0.0,0.0,0.0,0.0,0.0,0.0,0.0,0.0,0.0,0.0,0.0,0.0,0.0,0.0,0.0,0.0,0.0,0.0,0.0,0.0,0.0,0.0,0.0,0.0,0.0,0.0,0.0,0.0,0.0,0.0,0.0,0.0,0.0,0.0,0.0,0.0,0.0,0.0,0.0,0.0,0.0,0.0,0.0,0.0,0.0,0.0,0.0,0.0,0.0,0.0,0.0,0.0,0.0,0.0,0.0,0.0,0.0,0.0,0.0,0.0,0.0,0.0,0.0,0.0,0.0,0.0,0.0,0.0,0.0,0.0,0.0,0.0,0.0,0.0,0.0,0.0,0.0,0.0,0.0,0.0,0.0,0.0,0.0,0.0,0.0,0.0,0.0,0.0,0.0,0.0,0.0,0.0,0.0,0.0,0.0,0.0,0.0,0.0,0.0,0.0,0.0,0.0,0.0,0.0,0.0,0.0,0.0,0.0,0.0,0.0,0.0,0.0,0.0,0.0,0.0,0.0,0.0,0.0,0.0,0.0,0.0,0.0,0.0,0.0,0.0,0.0,0.0,0.0,0.0,0.0,0.0,0.0,0.0,0.0,0.0,0.0,0.0,0.0,0.0,0.0,0.0,0.0,0.0,0.0,0.0,0.0,0.0,0.0,0.0,0.0,0.0,0.0,0.0,0.0,0.0,0.0,0.0,0.0,0.0,0.0,0.0,0.0,0.0,0.0,0.0,0.0,0.0,0.0,0.0,0.0,0.0,0.0,0.0,0.0,0.0,0.0,0.0,0.0,0.0,0.0,0.0,0.0,0.0,0.0,0.0,0.0,0.0,0.0,0.0,0.0,0.0,0.0,0.0,0.0,0.0,0.0,0.0,0.0,0.0,0.0,0.0,0.0,0.0,0.0,0.0,0.0,0.0,0.0,0.0,0.0,0.0,0.0,0.0,0.0,0.0,0.0,0.0,0.0,0.0,0.0,0.0,0.0,0.0,0.0,0.0,0.0,0.0,0.0,0.0,0.0,0.0,0.0,0.0,0.0,0.0,0.0,0.0,0.0,0.0,0.0,0.0,0.0,0.0,0.0,0.0,0.0,0.0,0.0,0.0,0.0,0.0,0.0,0.0,0.0,0.0,0.0,0.0,0.0,0.0,0.0,0.0,0.0,0.0,0.0,0.0,0.0,0.0,0.0,0.0,0.0,0.0,0.0,0.0,0.0,0.0,0.0,0.0,0.0,0.0,0.0,0.0,0.0,0.0,0.0,0.0,0.0,0.0,0.0,0.0,0.0,0.0,0.0,0.0,0.0,0.0,0.0,0.0,0.0,0.0,0.0,0.0,0.0,0.0,0.0,0.0,0.0,0.0,0.0,0.0,0.0,0.0,0.0,0.0,0.0,0.0,0.0,0.0,0.0,0.0,0.0,0.0,0.0,0.0,0.0,0.0,0.0,0.0,0.0,0.0,0.0,0.0,0.0,0.0,0.0,0.0,0.0,0.0,0.0,0.0,0.0,0.0,0.0,0.0,0.0,0.0,0.0,0.0,0.0,0.0,0.0,0.0,0.0,0.0,0.0,0.0,0.0,0.0,0.0,0.0,0.0,0.0,0.0,0.0,0.0,0.0,0.0,0.0,0.0,0.0,0.0,0.0,0.0,0.0,0.0,0.0,0.0,0.0,0.0,0.0,0.0,0.0,0.0,0.0,0.0,0.0,0.0,0.0,0.0,0.0,0.0,0.0,0.0,0.0,0.0,0.0,0.0,0.0,0.0,0.0,0.0,0.0,0.0,0.0,0.0,0.0,0.0,0.0,0.0,0.0,0.0,0.0,0.0,0.0,0.0,0.0,0.0,0.0,0.0,4.3335,0.0,0.0,0.0,0.0,0.0,0.0,0.0,0.0,0.0,0.0,0.0,0.0,0.0,0.0,0.0,0.0,0.0,0.0,0.0,0.0,0.0,0.0,0.0,0.0,0.0,0.0,0.0,0.0,0.0,0.0,0.0,0.0,0.0,0.0,0.0,0.0,0.0,0.0,0.0,5.2134,5.1967,5.1328,5.2706,5.2164,5.0067,0.0,0.0,0.0,0.0,0.0,0.0,0.0,0.0,0.0,0.0,0.0,0.0,0.0,0.0,0.0,0.0,0.0,0.0,0.0,0.0,0.0,0.0,0.0,0.0,0.0,0.0,0.0,0.0,0.0,0.0,0.0,0.0,0.0,0.0,0.0,0.0,0.0,0.0,0.0,0.0,0.0,0.0,0.0,0.0,0.0,0.0,0.0,0.0,0.0,0.0,0.0,0.0,0.0,0.0,0.0,0.0,0.0,0.0,0.0,0.0,0.0,0.0,0.0,0.0,0.0,0.0,0.0,0.0,0.0,0.0,0.0,4.4451,0.0,0.0,0.0,0.0,0.0,0.0,0.0,0.0,0.0,0.0,0.0,0.0,0.0,0.0,0.0,0.0,0.0,0.0,0.0,0.0,0.0,0.0,0.0,5.1522,5.1623,5.1623,5.1623,5.186,0.0,0.0,0.0,0.0,0.0,0.0,5.3518,5.3518,5.4092,5.5198,5.4696,5.4934,5.5987,5.734,5.6258,5.3112,5.2097,0.0,0.0,0.0,0.0,0.0,0.0,0.0,0.0,0.0,0.0,0.0,0.0,0.0,0.0,0.0,0.0,0.0,0.0,0.0,0.0,0.0,0.0,0.0,0.0,0.0,0.0,0.0,0.0,0.0,0.0,0.0,0.0,0.0,0.0,0.0,0.0,0.0,0.0,0.0,0.0,0.0,0.0,0.0,0.0,0.0,0.0,0.0,0.0,0.0,0.0,0.0,0.0,0.0,0.0,0.0,0.0,0.0,0.0,0.0,0.0,0.0,0.0,0.0,5.4194,5.4972,5.4871,5.5344,5.531,5.4634,5.0642,4.8409,4.753,0.0,0.0,0.0,0.0,0.0,0.0,0.0,0.0,0.0,0.0,0.0,0.0,0.0,0.0,0.0,0.0,0.0,0.0,0.0,0.0,0.0,0.0,5.2773,5.3213,5.3213,5.3213,5.3247,5.3348,0.0,0.0,5.3518,5.3518,5.3518,5.3518,5.3518,5.3444,5.3361,5.6415,5.9109,6.1366,6.2245,6.2009,6.0689,5.5513,5.4228,5.5649,0.0,0.0,0.0,0.0,0.0,0.0,0.0,0.0,0.0,0.0,0.0,0.0,0.0,0.0,0.0,0.0,0.0,0.0,0.0,0.0,0.0,0.0,0.0,0.0,0.0,0.0,0.0,0.0,0.0,0.0,0.0,0.0,0.0,0.0,0.0,0.0,0.0,0.0,0.0,0.0,0.0,4.3132,4.3132,0.0,0.0,0.0,0.0,0.0,0.0,0.0,0.0,0.0,0.0,0.0,0.0,0.0,5.2435,5.4668,5.6697,5.7476,5.7036,5.9877,6.0892,6.025,5.9641,5.9708,6.0182,5.8254,0.0,5.0541,4.9255,0.0,0.0,0.0,0.0,0.0,0.0,0.0,0.0,0.0,0.0,0.0,0.0,0.0,0.0,0.0,0.0,0.0,0.0,0.0,0.0,0.0,5.4769,5.5818,5.5378,5.7679,5.8051,5.5513,5.6156,5.5437,5.2727,5.3179,5.3179,5.2627,5.3582,5.5033,5.6988,6.2058,6.4808,6.5527,6.6711,6.688,6.6,6.2076,5.9032,5.6664,5.4702,0.0,0.0,0.0,0.0,0.0,0.0,0.0,0.0,0.0,0.0,0.0,0.0,0.0,0.0,0.0,0.0,0.0,0.0,0.0,0.0,0.0,0.0,0.0,0.0,0.0,0.0,0.0,0.0,0.0,0.0,0.0,0.0,0.0,0.0,0.0,0.0,0.0,0.0,0.0,4.3538,4.4553,4.4113,4.4823,4.4519,0.0,0.0,0.0,0.0,0.0,0.0,0.0,0.0,0.0,5.4397,5.5919,5.7408,5.8829,6.0655,6.1569,6.167,6.3835,6.4715,6.441,6.4478,6.4208,6.3734,6.3057,6.052,5.663,5.345,5.0507,4.7936,0.0,0.0,0.0,0.0,4.4558,4.4655,0.0,0.0,0.0,0.0,0.0,0.0,0.0,0.0,0.0,0.0,0.0,0.0,5.4464,5.69,5.8558,5.8795,6.1501,6.1806,5.8457,5.8186,5.6612,5.3047,5.3312,5.3177,5.2577,5.5194,5.849,6.2415,6.7658,7.0128,6.9925,7.1447,7.1684,7.0737,6.9214,6.5358,5.981,5.7915,5.548,5.2773,0.0,0.0,0.0,0.0,0.0,0.0,0.0,0.0,0.0,0.0,0.0,0.0,0.0,0.0,0.0,0.0,0.0,0.0,0.0,0.0,0.0,0.0,0.0,0.0,0.0,0.0,0.0,0.0,0.0,0.0,0.0,0.0,0.0,0.0,0.0,0.0,0.0,4.5838,4.6921,4.5602,4.7597,4.7733,0.0,0.0,0.0,0.0,0.0,0.0,5.3078,5.4972,5.7103,5.9539,6.0858,6.211,6.3294,6.4377,6.5324,6.6034,6.7151,6.7793,6.7963,6.8335,6.7588,6.6051,6.6221,6.4383,6.111,5.7263,5.3619,5.0338,4.9187,4.8308,4.7477,4.6121,4.5629,4.5483,0.0,0.0,0.0,0.0,0.0,0.0,0.0,0.0,0.0,0.0,0.0,5.4497,5.7374,5.9066,6.1129,6.3971,6.3125,6.2347,6.211,5.8186,5.5714,5.5545,5.4262,5.3822,5.443,5.9438,6.4174,6.8639,7.1751,7.395,7.5337,7.6893,7.6792,7.5405,7.6048,7.3409,6.7996,6.0858,5.8964,6.0182,5.3721,0.0,0.0,0.0,0.0,0.0,0.0,0.0,0.0,0.0,0.0,0.0,0.0,0.0,0.0,0.0,0.0,0.0,0.0,0.0,0.0,0.0,0.0,0.0,0.0,0.0,0.0,0.0,0.0,0.0,0.0,0.0,0.0,0.0,0.0,0.0,0.0,0.0,0.0,4.8105,5.2198,0.0,0.0,0.0,0.0,5.2942,5.4431,5.6258,5.849,5.9404,6.1197,6.4174,6.5019,6.6474,6.8707,6.8774,6.918,6.9891,6.9992,7.0398,7.1075,7.0398,6.8931,6.703,6.7598,6.5444,6.1429,5.9554,5.7036,5.4093,5.1894,5.0574,4.9607,4.7098,4.6525,4.6802,0.0,0.0,0.0,0.0,0.0,0.0,0.0,0.0,5.109,5.076,5.395,5.7273,5.981,6.3971,6.7218,6.8774,7.0161,6.9519,6.617,6.2685,5.9399,5.6497,5.5944,5.7306,6.096,6.4749,6.8673,7.2665,7.6115,7.8314,7.9295,7.987,7.9803,7.9261,7.8619,7.7029,7.439,6.7861,6.3328,6.0182,5.6359,5.3484,0.0,0.0,0.0,0.0,0.0,0.0,0.0,0.0,0.0,0.0,0.0,0.0,0.0,0.0,0.0,0.0,0.0,0.0,0.0,0.0,0.0,0.0,0.0,0.0,0.0,0.0,0.0,0.0,0.0,0.0,0.0,0.0,0.0,0.0,0.0,0.0,0.0,5.301,5.7137,0.0,0.0,5.5209,5.6122,5.7645,5.8727,6.0486,6.3159,6.4444,6.6068,6.8132,6.891,6.9688,7.0534,7.0534,7.0243,6.955,6.955,6.9683,6.9916,6.9184,6.8235,6.707,6.7141,6.4914,6.1141,6.0835,5.8441,5.4848,5.4289,5.2424,4.9961,4.8739,4.8219,4.7933,0.0,0.0,0.0,0.0,0.0,0.0,0.0,0.0,5.0787,5.0625,5.5093,5.9505,6.2821,6.8267,7.2293,7.3815,7.4796,7.3646,6.9688,6.4858,6.0784,5.7675,5.7816,6.025,6.5222,6.9045,7.2665,7.6149,7.9363,8.119,8.1663,8.1934,8.19,8.1629,8.0919,8.004,7.8822,7.4627,6.9079,6.2888,5.9877,5.734,5.4905,0.0,0.0,0.0,0.0,0.0,0.0,0.0,0.0,0.0,0.0,0.0,0.0,0.0,0.0,0.0,0.0,0.0,0.0,0.0,0.0,0.0,0.0,0.0,0.0,0.0,0.0,0.0,0.0,0.0,0.0,0.0,0.0,0.0,0.0,0.0,5.6528,5.6799,6.1231,6.2956,5.9708,6.0317,6.14,6.2651,6.37,6.5256,6.7455,6.8504,6.9519,7.0534,7.1075,7.1312,7.1312,7.1312,7.0574,6.9217,6.9217,6.8991,6.8471,6.7753,6.6842,6.5772,6.5849,6.3734,6.0266,6.1109,5.9068,5.5425,5.5578,5.388,5.1089,4.9977,4.9313,4.8841,0.0,0.0,0.0,0.0,0.0,0.0,0.0,4.9661,5.0676,5.2164,5.6359,6.1163,6.6373,7.165,7.598,7.8957,7.6454,7.4052,7.2529,6.44,5.9505,5.9092,5.9911,6.2482,6.6981,7.2124,7.6217,7.9261,8.1426,8.2475,8.2509,8.3186,8.3152,8.2509,8.3219,8.2712,8.1291,8.0615,7.6115,6.9045,6.4478,6.2144,6.0757,0.0,0.0,0.0,0.0,0.0,0.0,0.0,0.0,0.0,0.0,0.0,0.0,0.0,0.0,0.0,0.0,0.0,0.0,0.0,0.0,0.0,0.0,0.0,0.0,0.0,0.0,0.0,0.0,0.0,0.0,0.0,0.0,0.0,5.1386,5.6461,5.9979,5.937,6.4478,6.6609,6.3024,6.529,6.7286,6.7996,6.9383,7.0567,7.1312,7.1312,7.1312,7.1312,7.1312,7.1312,7.1312,7.1312,7.0574,6.9121,6.9088,6.8372,6.7132,6.6396,6.4982,6.3109,6.3789,6.2102,5.9006,6.0297,5.8875,5.5876,5.5669,5.4761,5.314,5.0726,4.9811,4.9519,0.0,0.0,0.0,0.0,0.0,0.0,0.0,5.0439,5.1657,5.3687,5.9268,6.485,6.9553,7.5202,7.9431,8.1325,7.8314,7.5405,7.3308,6.5918,6.1559,6.1467,6.3902,6.7814,7.3172,7.6284,7.9329,8.2306,8.3456,8.4031,8.4031,8.4234,8.42,8.4031,8.4234,8.3795,8.2881,8.2678,8.0479,7.6623,7.05,6.6305,6.3226,0.0,0.0,0.0,0.0,0.0,0.0,0.0,0.0,0.0,0.0,0.0,0.0,0.0,0.0,0.0,0.0,0.0,0.0,0.0,0.0,0.0,0.0,0.0,0.0,0.0,0.0,0.0,0.0,0.0,0.0,0.0,0.0,5.4668,5.5209,5.9471,6.3294,6.5222,6.8842,7.0567,6.9011,7.006,7.0939,7.1142,7.1075,7.1312,7.2056,7.1616,7.1312,7.1312,7.1312,7.1312,7.1312,7.1312,7.0076,6.7774,6.7257,6.6582,6.5589,6.3871,6.3173,6.3047,6.2675,6.0631,5.7626,5.8479,5.6892,5.4127,5.5784,5.4825,5.2429,5.1673,5.0217,4.8585,0.0,0.0,0.0,0.0,0.0,0.0,0.0,5.0183,5.1628,5.4042,6.0358,6.6305,7.0838,7.6082,7.96,8.0479,7.7435,7.4119,7.0906,6.5493,6.3033,6.4439,6.7681,7.168,7.6555,7.9464,8.1934,8.3964,8.4742,8.5283,8.5554,8.4911,8.4945,8.5554,8.4911,8.4573,8.4437,8.4099,8.305,8.1156,7.6318,7.2124,6.8233,6.326,6.0486,5.893,5.663,5.5683,5.5141,5.2773,0.0,0.0,0.0,0.0,0.0,0.0,0.0,0.0,0.0,0.0,0.0,0.0,0.0,0.0,0.0,0.0,0.0,0.0,0.0,0.0,0.0,0.0,0.0,0.0,5.5852,5.9099,6.0757,6.326,6.5899,6.8538,7.0939,7.2225,7.1819,7.2699,7.3206,7.2868,7.2766,7.2732,7.2834,7.2462,7.209,7.1785,7.1228,7.0783,7.0389,6.9855,6.8503,6.6365,6.5954,6.5089,6.3831,6.2286,6.1645,0.0,6.0803,5.9052,5.7109,5.6859,5.5546,0.0,0.0,0.0,0.0,0.0,4.9758,4.8177,0.0,0.0,0.0,0.0,0.0,0.0,0.0,4.959,5.1194,5.3882,6.0315,6.6203,7.0466,7.4931,7.7638,7.7705,7.4965,7.1481,6.7354,6.4681,6.4673,6.7995,7.1362,7.483,7.8416,8.1866,8.4031,8.4877,8.5554,8.6264,8.6873,8.552,8.5621,8.6839,8.5486,8.5283,8.5858,8.508,8.437,8.3558,8.1325,7.8247,7.4289,6.7895,6.5662,6.5392,6.1264,5.893,5.7543,5.5784,0.0,0.0,0.0,0.0,0.0,0.0,0.0,0.0,0.0,0.0,0.0,0.0,0.0,0.0,0.0,0.0,0.0,0.0,0.0,0.0,0.0,0.0,0.0,0.0,5.9911,6.3802,6.6779,6.7252,6.8098,7.0195,7.1684,7.2529,7.2529,7.3781,7.4322,7.3646,7.4153,7.4221,7.3646,0.0,0.0,0.0,0.0,6.9909,6.8991,6.7774,6.6438,6.5111,6.4956,6.3911,6.2061,6.1253,6.0595,6.0027,5.871,5.7723,5.7004,5.5718,5.473,5.3922,5.3324,5.2306,5.105,4.9763,4.8895,4.8297,0.0,0.0,0.0,0.0,0.0,0.0,0.0,5.0359,5.1967,5.475,6.065,6.5595,6.8267,7.2563,7.5506,7.6082,7.3443,7.0872,6.8808,6.8673,6.9769,7.2186,7.585,7.8991,8.1494,8.3422,8.508,8.6467,8.6636,8.6771,8.6907,8.6602,8.6636,8.6907,8.6602,8.6535,8.6636,8.5892,8.5486,8.5148,8.2881,8.0107,7.686,7.2529,6.9485,6.7184,6.5121,6.4208,6.3463,6.0148,5.9573,5.9471,5.5074,5.2773,0.0,0.0,0.0,0.0,0.0,0.0,0.0,0.0,0.0,0.0,0.0,0.0,0.0,0.0,0.0,0.0,0.0,0.0,0.0,5.866,6.2516,6.6102,6.9113,7.006,7.0838,7.1853,7.2732,7.3274,7.3274,7.4086,7.4559,7.439,7.395,7.3916,7.4356,7.3815,0.0,7.0822,7.0466,6.9419,6.7572,6.7368,6.6438,6.5111,0.0,0.0,6.2032,6.0296,5.9697,6.0027,5.871,5.7723,5.7004,5.5718,5.4162,5.2576,5.2426,5.1917,5.105,4.9763,4.9194,4.8895,0.0,0.0,0.0,0.0,0.0,0.0,0.0,4.9747,5.1317,5.3661,5.8138,6.2105,6.4802,6.6993,6.8585,6.9465,6.759,6.7083,6.8977,7.0128,7.2902,7.7739,8.0107,8.2543,8.5148,8.5926,8.7042,8.8564,8.8192,8.8192,8.8564,8.782,8.7651,8.7955,8.7245,8.711,8.7414,8.667,8.6129,8.5655,8.4133,8.2205,7.9803,7.6082,7.324,7.1007,6.918,6.803,6.6948,6.3903,6.2685,6.1806,5.8423,5.5818,5.3721,0.0,0.0,0.0,0.0,0.0,0.0,0.0,0.0,0.0,0.0,0.0,0.0,0.0,0.0,5.2131,0.0,0.0,5.9471,6.2415,6.5425,6.8199,7.0432,7.1075,7.1582,7.2326,7.3037,7.3612,7.4018,7.4728,7.5337,7.5709,7.5033,7.4931,7.5709,7.4661,7.3083,7.0963,6.9843,6.828,6.6154,6.5436,6.4659,6.3579,6.2909,6.2122,6.1044,5.9697,5.9099,5.9039,5.7723,5.6944,5.6496,5.488,5.2995,5.1229,5.1229,5.102,5.0571,4.9254,4.8775,4.8626,0.0,0.0,0.0,0.0,0.0,0.0,0.0,4.9109,5.0543,5.2202,5.5035,5.8058,6.0953,6.1052,6.1384,6.2502,6.2144,6.4146,6.9417,7.1413,7.554,8.2543,8.3558,8.5283,8.8158,8.8192,8.8937,9.0425,8.9816,8.9816,9.0391,8.9207,8.8937,8.9444,8.8125,8.7888,8.8361,8.7482,8.6771,8.6129,8.5215,8.3964,8.2238,7.8855,7.642,7.4525,7.2326,7.0297,6.8368,6.6542,6.4444,6.2381,6.0994,5.8727,5.6224,5.4465,5.2739,0.0,0.0,0.0,0.0,0.0,0.0,0.0,0.0,0.0,5.1116,5.3179,5.4837,5.6427,5.822,6.0994,6.37,6.5764,6.7929,6.9789,7.1109,7.1312,7.1492,7.1984,7.2911,7.3781,7.4525,7.5046,7.5527,7.62,7.5399,7.5136,7.5772,7.45,7.2778,7.0689,6.8813,6.6847,6.4734,6.3592,6.281,6.2271,6.2032,6.1343,6.0266,5.9338,5.862,5.8052,5.6615,5.5748,5.5269,5.3503,5.1708,5.0032,4.9912,4.9853,4.9733,4.8686,4.8297,4.8177,0.0,0.0,0.0,0.0,0.0,0.0,0.0,0.0,5.0903,5.1559,5.3697,5.5572,5.6933,5.7429,5.8079,5.9018,6.2031,6.6189,7.1627,7.4695,7.8686,8.4133,8.5114,8.6602,8.8903,8.897,8.9681,9.1169,9.1102,9.1102,9.1169,9.1,9.0966,9.1,9.0222,8.9884,8.9884,8.8463,8.782,8.7617,8.623,8.4742,8.3118,8.075,7.8077,7.5303,7.3071,7.0026,6.7015,6.6779,6.5222,6.3226,6.2381,6.096,5.9066,5.6292,5.3923,5.186,5.0371,4.956,4.939,5.0574,5.0845,5.1725,0.0,0.0,5.6393,5.7949,5.9471,6.0622,6.0858,6.3328,6.5831,6.7387,6.9011,7.0364,7.121,7.1312,7.1152,7.0593,7.2284,7.3781,7.4525,7.4105,7.3904,7.4003,7.2632,7.1853,7.2058,7.1284,6.9873,6.7793,6.6886,6.538,6.3394,6.3164,6.3049,6.2959,6.1792,6.1134,6.0954,5.9069,5.8201,5.8022,5.6107,5.4281,5.2576,5.1768,5.0631,4.9314,4.8745,4.8506,4.8476,4.8327,4.8297,4.8177,0.0,0.0,0.0,0.0,0.0,0.0,0.0,0.0,0.0,5.0685,5.1104,5.1965,5.355,5.3383,5.3102,5.2908,5.8656,6.4341,6.9252,7.4984,8.0513,8.5723,8.667,8.8125,9.0324,8.9951,9.0696,9.2624,9.2184,9.1947,9.1947,9.1947,9.1711,9.1271,9.0527,9.0222,9.0154,8.9072,8.8395,8.7922,8.6873,8.5249,8.3219,8.0581,7.7164,7.3477,7.1278,6.918,0.0,6.4952,6.3903,6.3328,6.2144,6.0689,5.8964,5.6461,5.4431,5.2773,5.1691,5.115,5.1285,0.0,5.3822,5.5209,5.8084,5.9099,5.9979,6.1873,6.3463,6.4647,6.5053,6.688,6.8504,0.0,7.0128,7.0973,7.1278,7.1312,7.0895,6.9712,7.0831,7.1815,7.2145,7.1857,7.2063,7.2907,7.1938,7.1388,7.1497,7.0439,6.873,6.6647,6.5885,6.4788,6.3079,6.3079,6.2869,6.251,6.1553,6.0894,6.0446,5.8441,5.6915,5.5807,5.497,5.3713,5.2187,5.1917,5.078,4.9224,4.8955,4.8386,4.7728,4.7728,4.7728,4.7668,0.0,0.0,0.0,0.0,0.0,0.0,0.0,0.0,0.0,0.0,4.9085,4.9004,5.0474,5.0009,4.9296,4.881,5.5113,6.1278,6.6254,7.3514,8.0073,8.5723,8.7279,8.914,9.1541,9.1305,9.215,9.418,9.3436,9.3064,9.3064,9.2861,9.2455,9.188,9.1135,9.0696,9.0459,8.9715,8.8869,8.7922,8.7211,8.5283,8.2543,7.9363,7.5405,7.121,6.918,6.7151,6.5053,6.2347,6.1535,6.1501,6.0622,5.9607,5.8321,5.6292,5.4499,5.3078,5.2739,5.2942,0.0,5.5378,5.7103,5.893,6.1129,6.2245,6.3396,6.5425,6.6711,6.7624,6.8132,6.9316,7.0195,7.0195,7.0804,7.1312,7.1312,7.0973,7.0119,6.8707,6.8692,6.883,6.8837,6.9243,6.9917,7.0933,7.0109,6.9633,6.9713,6.8469,6.7152,6.5607,6.4961,6.4097,6.3079,6.3079,6.2839,6.2361,6.1523,6.0745,5.9997,5.7633,5.5718,5.4192,5.3832,5.2905,5.1648,5.1468,5.0331,4.8716,4.8716,4.8147,4.7279,4.71,4.716,4.7279,0.0,0.0,0.0,0.0,0.0,0.0,0.0,0.0,0.0,0.0,0.0,0.0,0.0,4.7366,4.7764,4.8759,5.2581,5.7618,6.388,7.022,7.6623,8.3321,8.6433,8.9376,9.2319,9.3098,9.4214,9.5736,9.4992,9.4654,9.462,9.3876,9.3537,9.347,9.2692,9.1947,9.1203,9.0493,8.9342,8.7922,8.7211,8.4674,8.0953,7.7198,7.3037,6.9011,6.7455,6.3599,5.9268,5.9167,5.8186,5.7137,5.778,5.7949,5.7645,5.6156,5.4126,5.2503,5.3281,0.0,5.6122,5.8321,6.0554,6.2787,6.5019,6.6102,6.7083,6.8639,6.9011,6.9045,6.9079,6.9688,7.0195,7.0195,7.0804,7.1312,7.1312,7.006,6.864,6.7262,6.5798,6.4948,0.0,6.6444,6.7268,6.733,6.6052,6.5203,6.5203,6.4513,6.4123,6.4093,6.3524,6.3194,6.3079,6.3079,6.3079,6.3019,6.1732,6.0745,5.9967,5.6735,5.488,5.4132,5.2845,5.1498,5.0242,4.9613,4.8566,4.7369,4.7369,4.7339,4.7219,4.6591,4.6741,4.7219,0.0,0.0,0.0,0.0,0.0,0.0,0.0,0.0,0.0,0.0,0.0,0.0,0.0,0.0,0.0,0.0,5.1491,5.5611,5.9946,6.6982,7.2954,7.7435,8.2374,8.596,8.7989,8.9715,9.1338,9.2793,9.2556,9.2692,9.3199,9.2928,9.2793,9.2793,9.2015,9.1271,9.0493,8.9275,8.9309,8.9816,8.5621,8.3761,8.2813,7.6082,7.0344,6.5487,0.0,6.0013,5.7983,5.6021,5.5344,5.5209,5.4431,5.4532,5.4769,5.3754,5.3619,5.4194,5.5953,0.0,6.008,6.2753,6.4377,6.5899,6.8166,6.8876,6.9045,6.9079,6.8301,6.7286,6.6305,6.6711,6.7354,6.7861,6.9417,7.0737,7.1244,7.0872,6.9312,6.6039,6.5701,0.0,0.0,0.0,0.0,6.6381,6.5975,6.5322,6.4336,6.4126,6.3827,6.3408,6.3199,6.3079,6.3079,6.3079,6.2869,6.2421,6.1074,5.9608,5.8052,5.6526,5.4999,5.3473,5.2576,5.1708,5.084,5.0182,4.9404,4.8566,4.8117,4.7698,4.7219,4.6561,4.6471,4.6561,0.0,0.0,0.0,0.0,0.0,0.0,0.0,0.0,0.0,0.0,0.0,0.0,0.0,0.0,0.0,0.0,0.0,5.3067,5.6185,6.2158,6.7262,7.0937,7.5539,7.8812,8.0582,8.2093,8.3899,8.6059,8.6578,8.7497,8.8861,8.9656,9.0053,9.0053,9.0087,8.9545,8.8564,8.7313,8.6755,8.6253,8.1111,7.862,7.7107,7.0303,6.4829,0.0,5.7233,5.571,5.4981,5.3436,5.3481,5.3991,5.2706,5.2672,5.3078,5.3112,5.4363,5.6325,5.8829,6.1332,6.3869,6.6305,6.7658,6.8808,7.0263,7.0398,6.9823,6.8538,6.7083,6.5392,6.3362,6.3362,6.3937,6.4715,6.6508,6.8436,7.0263,6.9671,6.8293,6.6311,6.5416,6.3984,0.0,0.0,0.0,6.4554,6.484,6.4539,6.3647,6.3677,6.3498,6.3079,6.3079,6.3079,6.3079,6.2839,6.2271,6.1373,6.0027,5.859,5.7064,5.5957,5.464,5.3144,5.2486,5.1558,5.0481,5.0062,4.9374,4.8506,4.8087,4.7668,4.7219,4.6561,4.6172,4.5873,0.0,0.0,0.0,0.0,0.0,0.0,0.0,0.0,0.0,0.0,0.0,0.0,0.0,0.0,0.0,0.0,0.0,0.0,5.2847,5.6121,5.9806,6.4026,6.6615,6.8888,7.0967,7.12,7.2818,7.615,7.7561,7.948,8.1976,8.4027,8.4973,8.504,8.6459,8.6257,8.4871,8.4094,8.1504,7.7609,7.3972,6.9715,6.5191,6.0864,5.7302,5.4434,5.23,5.1005,5.055,5.1525,5.2627,5.3382,5.2638,5.2435,5.2739,5.4329,5.6393,5.8761,6.1806,6.4749,6.7354,6.8842,7.0263,7.1312,7.121,7.0601,6.935,6.7049,6.5324,6.3294,0.0,0.0,6.0283,6.1163,6.2606,6.4937,6.8654,6.6756,6.5739,0.0,0.0,0.0,0.0,0.0,0.0,6.2168,0.0,6.3104,6.3079,6.3079,6.3079,6.3079,6.3049,6.3019,6.3019,6.2331,6.1343,6.0057,5.874,5.7752,5.7034,5.5089,5.3832,5.3144,5.2426,5.105,4.9314,4.9254,4.8476,4.7369,4.7309,4.7309,4.7219,4.6561,4.5903,4.5185,0.0,0.0,0.0,0.0,0.0,0.0,0.0,0.0,0.0,0.0,0.0,0.0,0.0,0.0,0.0,0.0,0.0,0.0,4.9801,5.2856,5.5352,5.7238,6.1633,6.4509,6.561,6.7394,6.8921,7.0382,7.0689,7.1444,7.2685,7.3192,7.3496,7.3529,7.3891,7.3562,7.2674,7.1917,7.1913,7.1966,6.7198,6.5541,6.5319,5.9766,5.6039,5.3467,5.1842,5.0816,5.055,0.0,0.0,0.0,0.0,5.3991,5.4532,5.7137,5.9471,6.1907,6.4884,6.7455,6.9553,7.05,7.1041,7.1007,6.9925,6.8639,6.688,6.4072,6.0994,5.822,0.0,0.0,0.0,6.0994,6.3568,0.0,6.9467,6.8471,0.0,0.0,0.0,6.3747,6.1934,6.2038,0.0,0.0,6.2677,6.303,6.3134,6.3079,6.3079,6.3079,6.26,6.2331,6.2331,6.1194,6.0416,6.0057,5.874,5.7752,5.7034,5.5089,5.3832,5.3084,5.1439,5.0451,4.9912,4.8925,4.8327,4.7997,4.7489,4.7309,4.7219,4.6561,4.5903,4.5185,0.0,0.0,0.0,0.0,0.0,0.0,0.0,0.0,0.0,0.0,0.0,0.0,0.0,0.0,0.0,0.0,0.0,0.0,0.0,4.9733,5.103,5.1934,5.4511,5.6203,5.6895,5.7869,5.9349,6.1145,6.1822,6.31,6.4988,6.5901,6.6323,6.6355,6.7102,6.6907,6.6193,6.5447,6.5191,0.0,0.0,5.8772,5.8562,5.4392,5.1871,5.0555,4.9733,4.9821,0.0,0.0,0.0,5.5615,5.6664,5.7476,5.8524,6.1163,0.0,6.5392,6.8064,7.0195,7.165,7.1751,7.1548,7.0669,6.8166,6.6677,6.4613,6.0351,5.778,0.0,5.3078,0.0,0.0,0.0,0.0,0.0,6.9543,6.8728,6.7546,0.0,6.6251,0.0,6.3044,6.266,6.263,0.0,6.3031,6.3113,6.3134,6.3079,6.3079,6.3079,6.245,6.1822,6.1224,6.0475,5.9787,5.9219,5.8171,5.7334,5.6645,5.497,5.3832,5.3084,0.0,5.0331,4.9733,4.8716,4.8117,4.7818,4.7459,4.7309,4.7249,4.689,4.6142,4.5244,0.0,0.0,0.0,0.0,0.0,0.0,0.0,0.0,0.0,0.0,0.0,0.0,0.0,0.0,0.0,0.0,0.0,0.0,0.0,0.0,0.0,4.8117,4.7608,4.7578,4.8147,4.7608,4.8716,5.1558,5.2823,5.4943,5.7738,5.9691,6.0532,6.0596,6.1942,6.2167,6.1524,6.0789,5.9217,5.6715,5.373,5.1417,4.9673,0.0,4.7309,4.7309,4.7452,0.0,0.0,0.0,5.6513,5.849,6.0283,6.1907,6.3565,6.5899,6.7489,6.8977,7.1278,7.2834,7.3578,7.2732,7.1921,7.0297,6.644,6.4681,6.2279,5.6731,0.0,5.3889,5.0548,5.1321,5.345,5.6554,0.0,6.2475,6.9088,6.8076,6.7451,6.9663,6.758,6.5772,6.5203,6.3977,6.3438,6.3947,6.3438,6.3079,6.3079,6.3079,6.3049,6.2959,6.2301,6.1373,6.0086,5.9997,5.9338,5.8112,5.7423,5.6765,5.6137,5.473,5.3743,5.3084,5.1618,0.0,4.9194,4.8446,4.7818,4.7309,4.7309,4.7309,4.7309,4.7309,4.6501,4.5424,0.0,0.0,0.0,0.0,0.0,0.0,0.0,0.0,0.0,0.0,4.6741,4.6561,0.0,0.0,0.0,0.0,0.0,0.0,0.0,0.0,0.0,4.7459,4.7369,4.7369,4.7489,4.7369,4.7578,4.8147,4.838,4.8857,4.94,4.9755,4.9992,4.9992,5.0235,5.0266,5.0144,5.0022,4.9695,4.9189,4.8615,4.814,4.7788,4.7429,0.0,0.0,0.0,0.0,0.0,0.0,5.8219,6.0283,6.3666,6.573,6.7523,7.0398,7.1413,7.209,7.4322,7.5134,7.4999,7.3646,7.2293,7.0161,6.5797,6.2313,0.0,0.0,5.2807,5.0652,4.9227,5.133,0.0,5.782,0.0,0.0,0.0,0.0,6.5853,0.0,0.0,0.0,0.0,0.0,0.0,0.0,0.0,6.3079,6.3079,6.3079,6.2839,6.2271,6.1613,6.0894,6.0086,5.9548,5.889,5.8112,5.7423,5.6765,5.6107,5.4221,5.3294,5.3054,5.0661,0.0,4.9164,4.7967,4.7399,4.7309,4.7309,4.7309,4.7309,4.7309,4.68,4.6142,0.0,0.0,0.0,0.0,0.0,0.0,0.0,0.0,4.5663,4.8027,4.8356,4.8087,4.7399,4.701,0.0,0.0,0.0,0.0,0.0,0.0,0.0,0.0,0.0,0.0,0.0,4.7309,0.0,0.0,0.0,4.7489,4.7818,4.7459,4.7309,4.7309,4.7309,4.7309,4.7309,4.7309,4.7309,4.7309,4.7309,4.7309,4.7309,0.0,0.0,0.0,0.0,0.0,0.0,0.0,5.7396,6.0705,6.5361,6.8132,7.0195,7.28,7.3815,7.4593,7.686,7.7468,7.7029,7.51,7.2665,6.9248,6.3565,0.0,0.0,0.0,5.0488,4.9127,4.8265,0.0,0.0,0.0,0.0,0.0,0.0,0.0,0.0,0.0,0.0,0.0,0.0,0.0,0.0,0.0,0.0,6.3079,6.3079,6.3079,6.278,6.2121,6.1463,6.0775,6.0086,5.9428,5.859,5.7573,5.7244,5.6406,5.5089,5.3773,5.2995,5.2546,5.0631,0.0,4.9194,4.8207,4.7608,4.7309,4.7309,4.7309,4.7309,4.7309,4.689,4.6322,0.0,0.0,0.0,0.0,0.0,0.0,0.0,4.604,4.6621,4.9134,5.0032,4.9703,4.7728,4.7189,4.6711,0.0,0.0,0.0,0.0,0.0,0.0,0.0,0.0,0.0,0.0,0.0,0.0,0.0,0.0,0.0,0.0,0.0,0.0,0.0,4.7309,4.7309,4.7309,4.7309,4.7309,0.0,0.0,4.7309,0.0,0.0,0.0,0.0,0.0,0.0,0.0,0.0,5.5549,5.9466,6.4285,6.8324,7.165,7.3409,7.4999,7.6657,7.8754,7.9464,7.8991,7.6555,7.3037,6.847,6.1873,5.7515,0.0,0.0,4.853,4.7926,4.7134,0.0,0.0,0.0,0.0,0.0,0.0,0.0,0.0,0.0,0.0,0.0,0.0,0.0,0.0,0.0,0.0,0.0,6.3079,6.2929,6.263,6.2121,6.1313,6.0625,6.0086,5.9428,5.8501,5.7304,5.7154,5.6166,5.4401,5.3563,5.2815,5.2127,5.081,0.0,0.0,4.8566,4.7908,4.7309,4.7309,4.7309,4.7309,4.7309,4.698,4.6531,0.0,0.0,0.0,0.0,0.0,0.0,0.0,4.691,4.7848,4.9883,5.072,5.0391,4.8416,4.8686,4.8027,0.0,0.0,0.0,0.0,0.0,0.0,0.0,0.0,0.0,0.0,0.0,0.0,0.0,0.0,0.0,0.0,0.0,0.0,0.0,0.0,0.0,4.7309,4.7309,0.0,0.0,0.0,0.0,0.0,0.0,0.0,0.0,0.0,0.0,0.0,0.0,0.0,5.573,5.8292,6.4697,7.1345,7.1548,0.0,0.0,7.9667,8.0581,8.0378,7.7502,7.3477,6.8605,6.2584,0.0,5.2494,4.9356,4.7525,4.6127,4.5227,4.6412,0.0,0.0,0.0,5.4538,0.0,0.0,0.0,0.0,0.0,0.0,0.0,0.0,0.0,0.0,0.0,0.0,6.3079,6.251,6.2151,6.2091,6.0864,6.0146,6.0086,5.9428,5.874,5.8022,5.7393,5.6406,5.5059,5.3773,5.2815,5.2127,5.081,0.0,0.0,4.8566,4.7908,4.7309,4.7309,4.7309,4.7309,4.7309,4.7279,4.7219,0.0,0.0,0.0,0.0,0.0,0.0,0.0,4.6963,4.7698,5.0481,5.1738,5.1798,5.0212,4.9942,4.8446,0.0,0.0,0.0,0.0,0.0,0.0,0.0,0.0,0.0,0.0,0.0,0.0,0.0,0.0,0.0,0.0,0.0,0.0,0.0,0.0,0.0,0.0,0.0,0.0,0.0,0.0,0.0,0.0,0.0,0.0,0.0,0.0,0.0,0.0,0.0,0.0,0.0,5.2566,5.7227,0.0,0.0,7.1665,7.5337,7.8653,8.0412,8.0581,7.7638,7.2834,6.7269,6.1107,0.0,5.0245,4.774,4.6255,4.5227,4.4887,4.5372,4.6202,0.0,0.0,0.0,0.0,0.0,0.0,0.0,0.0,0.0,0.0,0.0,0.0,0.0,0.0,0.0,6.251,6.2241,6.1912,6.1523,6.0595,6.0086,6.0086,5.9039,5.8171,5.7483,5.6855,5.5658,5.3952,5.3414,5.2606,5.1588,5.105,0.0,0.0,4.8985,4.8267,4.7309,4.7309,4.7309,4.7309,4.7309,4.7309,4.7309,0.0,0.0,0.0,0.0,0.0,4.6598,4.7668,4.7098,4.7578,5.0272,5.1947,5.2396,5.1079,5.0182,4.8386,4.5185,0.0,0.0,0.0,0.0,0.0,0.0,0.0,0.0,0.0,0.0,0.0,4.7309,4.7309,0.0,0.0,0.0,0.0,0.0,0.0,0.0,0.0,0.0,0.0,0.0,0.0,0.0,0.0,0.0,0.0,0.0,0.0,0.0,0.0,0.0,0.0,0.0,0.0,0.0,0.0,0.0,6.7758,7.2094,7.6019,7.8517,7.9431,7.713,7.1637,6.5429,0.0,0.0,4.8433,4.6262,4.5005,4.4358,4.4358,4.4358,4.4525,4.4907,4.5155,4.6621,5.0391,0.0,0.0,0.0,0.0,0.0,0.0,0.0,0.0,0.0,0.0,0.0,0.0,6.1792,6.1493,6.0835,6.0146,5.9697,5.9518,5.859,5.7782,5.7094,5.6466,5.5239,5.3473,5.3264,5.2456,5.1199,5.102,0.0,0.0,4.9134,4.8446,4.7578,4.7369,4.7309,4.7309,4.7309,4.7309,4.7309,0.0,0.0,0.0,0.0,0.0,0.0,0.0,4.765,4.7788,4.9105,5.099,5.1708,5.0391,4.9075,4.7758,4.6411,0.0,0.0,0.0,0.0,0.0,0.0,0.0,0.0,0.0,0.0,4.7309,4.7309,4.7309,4.7309,4.7309,0.0,0.0,0.0,0.0,0.0,0.0,0.0,0.0,0.0,0.0,0.0,4.7309,0.0,0.0,0.0,0.0,0.0,0.0,0.0,0.0,0.0,0.0,4.8019,5.0016,5.5861,6.2789,6.9184,7.1748,7.4661,7.6758,7.5912,6.997,6.3239,0.0,0.0,4.7418,4.5246,4.4004,4.3329,4.3329,4.3329,4.3539,4.4227,4.4855,4.6471,4.9793,5.1379,0.0,0.0,0.0,0.0,0.0,0.0,0.0,0.0,0.0,0.0,0.0,6.1134,6.0805,6.0116,5.9458,5.88,5.8141,5.8141,5.7782,5.7094,5.6466,5.5478,5.4192,5.3503,5.2456,0.0,0.0,0.0,0.0,4.8835,4.8297,4.8207,4.7549,4.7309,4.7309,4.7309,4.7309,4.7309,0.0,0.0,0.0,0.0,0.0,0.0,0.0,4.6452,4.6488,4.7156,4.8177,4.9045,4.9523,4.7997,4.677,4.6352,0.0,0.0,0.0,0.0,0.0,0.0,0.0,0.0,0.0,0.0,4.7309,4.7309,4.7309,4.7309,4.7309,4.7309,4.7309,0.0,0.0,0.0,0.0,0.0,0.0,0.0,0.0,4.7309,4.7309,0.0,0.0,0.0,0.0,0.0,0.0,0.0,0.0,0.0,0.0,0.0,0.0,5.0825,5.5898,6.1392,6.417,6.6423,6.7575,6.6357,6.2647,5.8345,5.4493,0.0,4.6748,4.4807,4.3867,4.3479,4.3928,4.3629,4.3838,4.5424,4.5843,4.6681,4.8626,0.0,0.0,0.0,0.0,0.0,0.0,0.0,0.0,0.0,0.0,0.0,0.0,6.0685,6.0116,5.9428,5.877,5.8321,5.8112,5.7244,5.6675,5.6466,5.5807,5.479,5.3503,5.3294,5.2456,0.0,0.0,0.0,0.0,4.9314,4.8686,4.8207,4.7549,4.7309,4.7309,4.7309,4.7309,4.7309,0.0,0.0,0.0,0.0,0.0,0.0,0.0,4.5609,4.5282,4.5537,4.6142,4.707,4.8386,4.677,4.5783,4.6292,0.0,0.0,0.0,0.0,0.0,0.0,0.0,0.0,0.0,4.7309,4.7429,4.7668,4.7908,4.8027,4.8027,4.8027,4.7908,4.7668,4.7429,0.0,0.0,0.0,0.0,0.0,4.7309,4.7309,4.7309,0.0,0.0,0.0,0.0,0.0,0.0,0.0,0.0,0.0,0.0,0.0,0.0,0.0,5.0723,5.4324,5.8309,6.0638,6.1892,6.1278,5.835,0.0,0.0,0.0,0.0,4.4959,4.4167,4.3838,4.4227,4.3778,4.3748,4.5005,4.5603,4.6461,4.794,0.0,0.0,0.0,0.0,0.0,0.0,0.0,0.0,0.0,0.0,0.0,0.0,6.0236,5.9428,5.877,5.8351,5.7872,5.7393,5.6585,5.5927,5.5418,5.5029,5.4102,5.2815,5.2815,5.2217,0.0,0.0,0.0,0.0,4.9374,4.8805,4.8566,4.7668,4.7309,4.7309,4.7309,4.7309,4.7309,0.0,0.0,0.0,0.0,0.0,0.0,0.0,0.0,0.0,4.4257,4.4766,4.5633,4.689,4.5364,4.4736,4.5992,0.0,0.0,0.0,0.0,0.0,0.0,0.0,0.0,0.0,4.7309,4.7608,4.8207,4.8925,4.9254,4.9194,4.9284,4.8955,4.8267,4.7638,0.0,0.0,0.0,0.0,0.0,4.7309,4.7309,0.0,0.0,0.0,0.0,0.0,0.0,0.0,0.0,0.0,0.0,0.0,0.0,0.0,0.0,0.0,0.0,0.0,5.6841,5.8599,5.9209,5.6144,0.0,0.0,0.0,0.0,0.0,0.0,0.0,4.4377,4.3808,4.3389,4.3509,4.4556,4.5988,4.788,0.0,0.0,0.0,0.0,0.0,0.0,0.0,0.0,0.0,0.0,0.0,0.0,5.9817,5.877,5.8082,5.8052,5.7453,5.6196,5.6077,5.5418,5.4221,5.4162,5.3443,5.2187,5.2157,5.1768,0.0,0.0,0.0,0.0,4.9045,4.8656,4.9075,4.7788,4.7309,4.7309,4.7309,4.7309,4.7309,0.0,0.0,0.0,0.0,0.0,0.0,0.0,0.0,0.0,0.0,4.3688,4.3928,4.4227,4.3838,4.3688,0.0,0.0,0.0,0.0,0.0,0.0,0.0,0.0,0.0,0.0,4.7309,4.7369,4.7549,4.8686,4.9015,4.8536,4.9553,4.9404,4.8267,4.8117,4.7788,0.0,0.0,0.0,0.0,4.7309,4.7309,0.0,0.0,0.0,0.0,4.7309,4.7309,0.0,0.0,0.0,0.0,0.0,0.0,0.0,0.0,4.7309,4.7632,4.8961,0.0,5.0044,4.9677,4.9144,4.8248,0.0,0.0,0.0,0.0,0.0,0.0,0.0,0.0,4.3838,4.5364,4.5873,4.6864,4.9099,0.0,0.0,0.0,0.0,0.0,0.0,0.0,0.0,0.0,0.0,0.0,0.0,5.9548,5.856,5.7363,5.7334,5.6974,5.6196,5.5179,5.4521,5.4192,5.3683,5.2995,5.2187,5.1678,5.1079,0.0,0.0,0.0,4.9643,4.8686,4.8386,4.8446,4.7608,4.7309,4.7309,4.7309,4.7309,4.7309,0.0,0.0,0.0,0.0,0.0,0.0,0.0,0.0,0.0,0.0,0.0,0.0,0.0,0.0,0.0,0.0,0.0,0.0,0.0,0.0,0.0,0.0,0.0,4.5933,4.7279,4.7309,4.7459,4.7758,4.8775,4.9224,4.9194,4.9613,4.9404,4.8716,4.8117,4.7638,0.0,0.0,0.0,4.7309,4.7309,0.0,0.0,0.0,0.0,0.0,4.7309,4.7309,0.0,4.7309,4.7309,4.7309,0.0,0.0,0.0,0.0,4.7309,4.7309,4.7309,4.7309,4.7219,4.686,4.704,4.695,4.5544,0.0,0.0,0.0,0.0,0.0,0.0,0.0,0.0,4.6316,4.7507,4.9346,0.0,0.0,0.0,0.0,0.0,0.0,0.0,0.0,0.0,0.0,0.0,0.0,0.0,5.9001,5.7723,5.6705,5.6077,5.5598,5.5269,5.4551,5.3892,5.3294,5.2905,5.2217,5.1289,5.093,5.0421,0.0,0.0,0.0,4.9224,4.8566,4.8297,4.8207,4.7549,4.7309,4.7309,4.7309,4.7309,4.7309,0.0,0.0,0.0,0.0,0.0,0.0,0.0,0.0,0.0,0.0,0.0,0.0,0.0,0.0,0.0,0.0,0.0,0.0,0.0,0.0,0.0,0.0,0.0,4.5933,4.7279,4.7309,4.7578,4.8147,4.9194,4.9942,5.0391,5.0242,4.9912,4.9344,4.8147,4.7489,0.0,0.0,4.7309,4.7309,4.7309,0.0,0.0,0.0,0.0,0.0,0.0,0.0,0.0,4.7309,4.7309,4.7309,4.7309,0.0,0.0,0.0,0.0,0.0,4.7309,4.7542,4.7628,4.7448,4.7306,4.71,4.6491,0.0,0.0,0.0,0.0,0.0,0.0,0.0,0.0,0.0,0.0,0.0,0.0,0.0,0.0,0.0,0.0,0.0,0.0,0.0,0.0,0.0,0.0,0.0,0.0,5.8365,5.6795,5.6196,5.4999,5.4251,5.4042,5.3952,5.3324,5.2187,5.2007,5.1319,5.0242,5.0032,4.9643,4.9105,0.0,0.0,4.8925,4.8356,4.8147,4.8087,4.7519,4.7309,4.7309,4.7309,4.7309,4.7309,0.0,0.0,0.0,0.0,0.0,0.0,0.0,0.0,0.0,0.0,0.0,0.0,0.0,0.0,0.0,0.0,0.0,0.0,0.0,0.0,0.0,0.0,4.5435,4.5933,4.7279,4.7309,4.7369,4.7459,5.0331,5.1528,5.1109,5.3264,5.2785,5.0062,4.9314,4.8356,4.7309,4.7309,4.7309,4.7309,4.7309,0.0,0.0,0.0,0.0,0.0,0.0,0.0,0.0,4.7309,4.7309,4.7309,4.7309,0.0,0.0,0.0,0.0,0.0,4.7309,4.8384,4.9233,4.8039,4.7509,4.7207,4.6893,0.0,0.0,0.0,0.0,0.0,0.0,0.0,0.0,0.0,0.0,0.0,0.0,0.0,0.0,0.0,0.0,0.0,0.0,0.0,0.0,0.0,0.0,0.0,0.0,5.788,5.6795,5.6196,5.5448,5.4491,5.3354,5.2785,5.2396,5.2187,5.1079,5.0421,5.0212,4.9075,4.8536,4.8416,0.0,4.7608,4.7608,4.7489,4.7459,4.7429,4.7339,4.7309,4.7309,4.7309,4.7309,4.7309,0.0,0.0,0.0,0.0,0.0,0.0,0.0,0.0,0.0,0.0,0.0,0.0,0.0,0.0,0.0,0.0,0.0,0.0,0.0,0.0,0.0,4.6191,4.6088,4.6273,4.6741,4.7818,4.8716,4.9434,5.1648,5.2935,5.3354,5.3144,5.1858,4.9673,4.8656,4.7878,4.7309,4.7309,4.7309,4.7309,0.0,0.0,0.0,0.0,0.0,0.0,0.0,0.0,0.0,0.0,4.701,4.7249,4.689,0.0,0.0,0.0,0.0,0.0,4.7309,4.8286,4.9284,4.9221,4.9358,4.9353,4.8495,0.0,0.0,0.0,0.0,0.0,0.0,0.0,0.0,0.0,0.0,0.0,0.0,0.0,0.0,0.0,0.0,0.0,0.0,0.0,0.0,0.0,0.0,0.0,0.0,0.0,5.6395,5.5119,5.4102,5.3264,5.2665,5.1648,5.1139,5.1139,5.0541,4.9883,4.9164,4.8566,4.8087,4.7728,0.0,4.7309,4.7309,4.7309,4.7309,4.7309,4.7309,4.7309,4.7309,4.7309,4.7309,4.7309,0.0,0.0,0.0,0.0,0.0,0.0,0.0,0.0,0.0,0.0,0.0,0.0,0.0,0.0,0.0,0.0,0.0,0.0,0.0,0.0,4.6358,4.6795,4.678,4.6823,4.698,4.8656,5.0212,5.1678,5.3294,5.47,5.5807,5.3174,5.1139,4.9673,4.8356,4.7608,4.7309,4.7309,4.7309,4.7309,0.0,0.0,0.0,0.0,0.0,0.0,0.0,0.0,0.0,0.0,0.0,0.0,0.0,0.0,0.0,4.7249,4.7309,4.7309,4.7309,4.8332,4.9564,5.0197,0.0,5.1128,0.0,0.0,0.0,0.0,0.0,0.0,0.0,0.0,0.0,0.0,0.0,0.0,0.0,0.0,0.0,0.0,0.0,0.0,0.0,0.0,0.0,0.0,0.0,0.0,0.0,0.0,5.5984,5.4221,5.2905,5.2127,5.1977,5.081,5.0242,5.0242,4.9942,4.9254,4.8267,4.8117,4.7788,4.7309,4.7309,4.7309,4.7309,4.7309,4.7309,4.7309,4.7309,4.7309,4.7309,4.7309,4.7309,4.7309,0.0,0.0,0.0,0.0,0.0,0.0,0.0,0.0,0.0,0.0,0.0,0.0,0.0,0.0,0.0,0.0,0.0,0.0,0.0,0.0,4.6454,4.718,4.6917,4.7466,4.9074,4.9793,5.1109,5.3025,5.5568,5.7184,5.7842,5.5239,5.2965,5.102,4.9703,4.8446,4.7309,4.7309,4.7309,4.7309,4.7309,0.0,0.0,0.0,0.0,0.0,0.0,0.0,0.0,0.0,0.0,0.0,0.0,0.0,4.6501,4.713,4.7309,4.7309,4.7309,4.9223,5.1197,5.0557,0.0,0.0,0.0,0.0,0.0,0.0,0.0,0.0,0.0,0.0,0.0,0.0,0.0,0.0,0.0,0.0,0.0,0.0,0.0,0.0,0.0,0.0,0.0,0.0,0.0,0.0,0.0,0.0,0.0,5.4221,5.2905,5.1917,5.1289,5.0601,5.0242,5.0242,4.9015,4.8386,4.8267,4.7668,4.7369,4.7309,4.7309,4.7309,4.7309,4.7309,4.7309,4.7309,4.7309,4.7309,4.7309,4.7309,4.7309,4.7309,0.0,0.0,0.0,0.0,0.0,0.0,0.0,0.0,0.0,0.0,0.0,0.0,0.0,0.0,0.0,0.0,0.0,0.0,0.0,4.8161,4.7701,4.7229,4.8079,4.8871,4.9641,5.121,5.3899,5.745,5.8444,5.8261,5.6855,5.4192,5.1917,4.9942,4.8626,4.7758,4.7309,4.7309,4.7309,4.7309,4.7309,4.7309,0.0,0.0,0.0,0.0,0.0,0.0,0.0,0.0,4.5454,4.5963,4.6022,4.6471,4.698,4.7249,4.7764,4.821,4.821,4.9963,0.0,0.0,0.0,0.0,0.0,0.0,0.0,0.0,0.0,0.0,0.0,0.0,0.0,0.0,0.0,0.0,0.0,0.0,0.0,0.0,0.0,0.0,0.0,0.0,0.0,0.0,0.0,0.0,0.0,0.0,0.0,5.4112,5.2024,5.087,5.0601,4.9553,4.9015,4.9015,4.8536,4.8087,4.7668,4.7429,4.7309,4.7309,4.7309,4.7309,4.7309,4.7309,4.7309,4.7309,4.7309,4.7309,4.7309,4.7309,4.7309,4.7309,0.0,0.0,0.0,0.0,0.0,0.0,0.0,0.0,0.0,0.0,0.0,0.0,0.0,0.0,0.0,0.0,0.0,0.0,4.9018,4.8736,4.8265,4.7658,4.8459,4.9595,5.1118,5.2997,5.5902,5.9969,6.0083,5.8716,5.6107,5.3234,5.1169,4.9823,4.8297,4.7728,4.7908,4.7698,4.7489,4.7309,4.7309,4.7309,0.0,0.0,0.0,0.0,0.0,0.0,0.0,0.0,4.5424,4.6077,4.632,4.6635,4.7182,4.8012,4.8543,4.8891,4.9215,5.0595,5.1921,0.0,0.0,0.0,0.0,0.0,0.0,0.0,0.0,0.0,0.0,0.0,0.0,0.0,0.0,0.0,0.0,0.0,0.0,0.0,0.0,0.0,0.0,0.0,0.0,0.0,0.0,0.0,0.0,0.0,0.0,0.0,5.1213,4.9823,4.9613,4.8745,4.8177,4.7967,4.7967,4.7728,4.7309,4.7309,4.7309,4.7309,4.7309,4.7309,4.7309,4.7309,4.7309,4.7309,4.7309,4.7309,4.7309,4.7309,4.7309,4.7309,0.0,0.0,0.0,0.0,0.0,0.0,0.0,0.0,0.0,0.0,0.0,0.0,0.0,0.0,0.0,0.0,0.0,0.0,4.9018,4.8161,4.7902,4.8559,4.769,4.941,5.3964,5.4987,5.6782,5.9561,5.9937,5.8745,5.6047,5.2755,5.1199,5.1109,4.9164,4.8656,4.9284,4.8566,4.7908,4.7309,4.7309,4.7309,4.7309,0.0,0.0,0.0,0.0,0.0,0.0,0.0,4.5873,4.5763,4.8081,4.7668,4.6833,4.9584,4.9615,4.9085,5.0087,5.1155,0.0,0.0,0.0,0.0,0.0,0.0,0.0,0.0,0.0,0.0,0.0,0.0,0.0,0.0,0.0,0.0,0.0,0.0,0.0,0.0,0.0,0.0,0.0,0.0,0.0,0.0,0.0,0.0,0.0,0.0,0.0,0.0,5.0605,4.8955,4.8297,4.8267,4.7967,4.7309,4.7309,4.7309,4.7309,4.7309,4.7309,4.7309,4.7309,4.7309,4.7309,4.7309,4.7309,4.7309,4.7309,4.7309,4.7309,4.7309,4.7309,4.7309,0.0,0.0,0.0,0.0,0.0,0.0,0.0,0.0,0.0,0.0,0.0,0.0,0.0,0.0,0.0,0.0,0.0,0.0,4.9018,4.8736,4.8389,4.7902,4.926,5.039,5.1069,5.4568,5.7264,5.9055,5.8829,5.6629,5.2665,5.1678,5.0242,4.8506,4.9314,4.94,4.8906,4.8498,4.8283,4.8293,4.7593,4.7309,4.7396,0.0,0.0,0.0,0.0,0.0,0.0,0.0,0.0,0.0,4.8166,4.8573,4.8872,4.9423,5.0133,5.0802,5.1285,5.2241,0.0,0.0,0.0,0.0,0.0,0.0,0.0,0.0,0.0,0.0,0.0,0.0,0.0,0.0,0.0,0.0,0.0,0.0,0.0,0.0,0.0,0.0,0.0,0.0,0.0,0.0,0.0,0.0,0.0,0.0,0.0,0.0,5.0692,4.9174,4.8297,4.7818,4.7489,4.7309,4.7309,4.7309,4.7309,4.7309,4.7309,4.7309,4.7309,4.7309,4.7309,4.7309,4.7309,4.7309,4.7309,4.7309,4.7309,4.7309,4.7309,4.7309,0.0,0.0,0.0,0.0,0.0,0.0,0.0,0.0,0.0,0.0,0.0,0.0,0.0,0.0,0.0,0.0,0.0,0.0,0.0,4.9018,4.8837,4.8625,5.0015,5.1024,5.1693,5.503,5.6978,5.7412,5.7661,5.553,5.1229,5.2429,5.1819,4.9764,5.1878,5.184,5.011,4.99,4.9396,4.8759,4.8431,4.837,4.8656,0.0,0.0,0.0,0.0,0.0,0.0,0.0,0.0,0.0,4.905,4.955,5.0056,5.0284,5.0973,5.1707,5.234,0.0,0.0,0.0,0.0,0.0,0.0,0.0,0.0,0.0,0.0,0.0,0.0,0.0,0.0,0.0,0.0,0.0,0.0,0.0,0.0,0.0,0.0,0.0,0.0,0.0,0.0,0.0,0.0,0.0,0.0,0.0,0.0,0.0,5.0505,4.8906,4.7908,4.7489,4.7309,4.7309,4.7309,4.7309,4.7309,4.7309,4.7309,4.7309,4.7309,4.7309,4.7309,4.7309,4.7309,4.7309,4.7309,4.7309,4.7309,4.7309,4.7309,4.7309,0.0,0.0,0.0,0.0,0.0,0.0,0.0,0.0,0.0,0.0,4.9018,0.0,0.0,0.0,0.0,0.0,0.0,0.0,0.0,0.0,4.9323,5.0067,5.0304,5.1758,5.4634,5.5953,5.6023,5.4952,5.6323,5.5037,5.1301,5.4285,5.4799,5.3356,5.5784,5.526,5.2453,5.2105,5.0829,4.9116,4.9708,5.0151,5.0461,5.1257,0.0,0.0,0.0,0.0,0.0,0.0,0.0,0.0,5.0486,5.055,5.0767,5.1711,5.1993,5.2269,0.0,0.0,0.0,0.0,0.0,0.0,0.0,0.0,0.0,0.0,0.0,0.0,0.0,0.0,0.0,0.0,0.0,0.0,0.0,0.0,0.0,0.0,0.0,0.0,0.0,0.0,0.0,0.0,0.0,0.0,0.0,0.0,0.0,5.2285,5.0034,4.8293,4.7309,4.7309,4.7309,4.7309,4.7309,4.7309,4.7309,4.7309,4.7309,4.7309,4.7309,4.7309,4.7309,4.7309,4.7309,4.7309,4.7309,4.7309,4.7309,4.7309,4.7309,4.7309,0.0,0.0,0.0,0.0,0.0,0.0,0.0,0.0,0.0,0.0,0.0,0.0,0.0,0.0,0.0,0.0,0.0,0.0,0.0,0.0,4.9323,5.0067,5.1792,5.3619,5.5446,5.5209,5.4586,5.3437,5.4995,5.4254,5.1461,5.4389,5.4964,5.3682,5.5761,5.5931,5.4487,5.2397,5.1371,5.1155,5.0557,5.0292,5.0506,5.1466,5.121,0.0,0.0,0.0,0.0,0.0,0.0,0.0,5.087,5.1459,5.2294,5.2232,5.2457,5.2924,0.0,0.0,0.0,0.0,0.0,0.0,0.0,0.0,0.0,0.0,0.0,0.0,0.0,0.0,0.0,0.0,0.0,0.0,0.0,0.0,0.0,0.0,0.0,0.0,0.0,0.0,0.0,0.0,0.0,0.0,0.0,0.0,0.0,4.9684,4.9047,4.8293,4.7309,4.7309,4.7309,0.0,4.7309,4.7309,4.7309,4.7309,4.7309,4.7309,4.7309,4.7309,4.7309,4.7309,4.7309,4.7309,4.7309,4.7309,4.7309,4.7309,4.7309,4.7309,0.0,0.0,0.0,0.0,0.0,0.0,0.0,0.0,0.0,0.0,0.0,0.0,0.0,0.0,0.0,0.0,0.0,0.0,0.0,0.0,4.9492,5.0574,5.2469,5.3856,5.4634,5.4262,5.382,5.3265,5.4033,5.3601,5.1997,5.5273,5.6173,5.5153,5.7364,5.7036,5.476,5.3331,5.2356,5.1882,5.1662,5.1778,5.1987,5.2853,5.2644,5.2026,5.311,0.0,0.0,0.0,0.0,0.0,0.0,0.0,5.3061,5.233,5.2664,5.3298,0.0,0.0,0.0,0.0,0.0,0.0,0.0,0.0,0.0,0.0,0.0,0.0,0.0,0.0,0.0,0.0,0.0,0.0,0.0,0.0,0.0,0.0,0.0,0.0,0.0,0.0,0.0,0.0,0.0,0.0,0.0,5.279,5.0987,4.9388,4.8996,4.8293,4.7309,4.7309,4.7309,4.7309,4.7309,4.7309,4.7309,4.7309,4.7309,4.7309,4.7309,4.7309,4.7309,4.7309,4.7309,4.7309,4.7309,4.7309,4.7309,4.7309,4.7309,4.7309,0.0,0.0,0.0,0.0,0.0,0.0,0.0,0.0,0.0,0.0,0.0,0.0,0.0,0.0,0.0,0.0,0.0,0.0,0.0,0.0,0.0,5.1352,5.2604,5.3484,5.389,5.3653,5.3551,5.3687,5.3551,5.3528,0.0,5.6504,5.7509,5.6989,5.8909,5.7942,5.4923,5.424,5.3334,5.2203,5.287,5.3231,5.3585,5.416,5.4025,5.3518,5.3518,5.3518,5.3484,5.328,0.0,0.0,0.0,0.0,5.3348,5.2454,5.28,5.3551,0.0,0.0,0.0,0.0,0.0,0.0,0.0,0.0,0.0,0.0,0.0,0.0,0.0,0.0,0.0,0.0,0.0,0.0,0.0,0.0,0.0,0.0,0.0,0.0,0.0,0.0,0.0,0.0,0.0,0.0,5.4635,5.2421,5.0653,4.948,4.8872,4.8157,4.7309,4.7309,4.7309,4.7309,4.7309,4.7309,4.7309,4.7309,4.7309,4.7309,4.7309,4.7309,4.7309,4.7309,4.7309,4.7309,4.7309,4.7309,4.7309,4.7309,4.7309,4.7309,0.0,0.0,0.0,0.0,0.0,0.0,0.0,0.0,0.0,0.0,0.0,0.0,0.0,0.0,0.0,0.0,0.0,0.0,4.9018,0.0,0.0,5.2097,5.2367,5.3382,5.5378,5.416,5.3822,5.4431,5.3822,0.0,0.0,0.0,0.0,5.8614,5.8309,5.7904,5.7278,5.4659,5.3449,5.328,5.3382,5.345,5.3518,5.3619,5.3585,5.3518,5.3518,5.3518,5.3348,5.2416,5.2697,0.0,0.0,0.0,5.3484,5.3348,5.3416,0.0,0.0,0.0,0.0,0.0,0.0,0.0,0.0,0.0,0.0,0.0,0.0,0.0,0.0,0.0,0.0,0.0,0.0,0.0,0.0,0.0,0.0,0.0,0.0,0.0,0.0,0.0,0.0,0.0,0.0,0.0,5.2055,4.9388,4.7794,4.7658,4.7568,4.7452,4.7309,4.7309,4.7309,4.7309,4.7309,4.7309,4.7309,4.7309,4.7309,4.7309,4.7309,4.7309,4.7309,4.7309,4.7309,4.7309,4.7309,4.7309,4.7309,4.7309,4.7309,4.7309,0.0,0.0,0.0,0.0,0.0,0.0,0.0,0.0,0.0,0.0,0.0,0.0,0.0,0.0,0.0,5.0202,4.9864,4.9627,4.9627,4.9898,5.0371,5.1048,5.1454,5.2367,5.3754,5.3179,5.3213,5.3991,0.0,0.0,0.0,5.7881,5.8761,0.0,0.0,5.7273,5.7103,5.46,5.3518,5.3518,5.3518,5.3518,5.3518,5.3518,5.3518,5.3518,5.3518,5.3518,5.3416,5.2939,5.311,5.3416,5.2939,0.0,0.0,0.0,0.0,0.0,0.0,0.0,0.0,0.0,0.0,0.0,0.0,0.0,0.0,0.0,0.0,0.0,0.0,0.0,0.0,0.0,0.0,0.0,0.0,0.0,0.0,0.0,0.0,0.0,0.0,0.0,0.0,0.0,0.0,5.263,5.0736,4.9047,4.7904,4.7309,4.7309,4.7309,4.7309,4.7309,4.7309,4.7309,4.7309,4.7309,4.7309,4.7309,4.7309,4.7309,4.7309,4.7309,4.7309,4.7309,4.7309,4.7309,4.7309,4.7309,4.7309,4.7309,4.7309,4.7309,0.0,0.0,0.0,0.0,0.0,0.0,0.0,0.0,0.0,0.0,0.0,0.0,0.0,0.0,0.0,0.0,5.071,5.0371,5.0371,5.0371,5.0439,5.0642,5.1014,5.1657,5.257,5.2401,5.2706,0.0,0.0,0.0,5.8457,5.8457,5.9979,0.0,5.937,5.7814,0.0,0.0,0.0,5.4566,5.3788,5.3518,5.3518,5.3518,5.3518,5.3518,5.3518,5.3518,5.3518,5.3518,5.3518,5.3518,5.3518,5.3518,0.0,0.0,0.0,0.0,0.0,0.0,0.0,0.0,0.0,0.0,0.0,0.0,0.0,0.0,0.0,0.0,0.0,0.0,0.0,0.0,0.0,0.0,0.0,0.0,0.0,0.0,0.0,0.0,0.0,0.0,0.0,0.0,0.0,5.2294,4.975,4.8872,4.8072,4.7309,4.7309,4.7309,4.7309,4.7309,4.7309,4.7309,4.7309,4.7309,4.7309,4.7309,4.7309,4.7309,4.7309,4.7309,4.7309,4.7309,4.7309,4.7309,4.7309,4.7309,4.7309,4.7309,4.7309,4.7309,0.0,0.0,0.0,0.0,0.0,0.0,0.0,0.0,0.0,0.0,0.0,0.0,5.115,5.115,5.1183,5.1217,5.1183,5.115,5.115,5.115,5.1454,5.2164,5.1555,0.0,5.3416,5.2706,5.2706,0.0,0.0,0.0,5.9979,5.9979,6.2313,6.6373,6.2719,6.0655,5.9776,0.0,0.0,0.0,5.4634,5.3518,5.3518,5.3518,5.3518,5.3518,5.3518,0.0,5.3518,5.3518,5.3518,5.3518,0.0,5.3518,5.3518,0.0,0.0,0.0,0.0,0.0,0.0,0.0,0.0,0.0,0.0,0.0,0.0,0.0,0.0,0.0,0.0,0.0,0.0,0.0,0.0,0.0,0.0,0.0,0.0,0.0,0.0,0.0,0.0,0.0,0.0,0.0,0.0,5.085,4.8984,4.7934,4.7396,4.7309,4.7309,4.7309,4.7309,4.7309,4.7309,4.7309,4.7309,4.7309,4.7309,4.7309,4.7309,4.7309,4.7309,4.7309,4.7309,4.7309,4.7309,4.7309,4.7309,4.7309,4.7309,4.7309,4.7309,4.7309,0.0,0.0,0.0,0.0,0.0,0.0,0.0,0.0,0.0,0.0,0.0,0.0,0.0,5.1928,5.2131,5.2638,5.2198,5.1928,5.1928,5.1488,5.1319,5.1589,5.1352,5.1691,5.2706,5.2469,0.0,0.0,0.0,5.5277,5.8693,5.9167,6.1028,6.3903,6.211,6.14,6.1298,5.7137,0.0,0.0,0.0,5.3518,5.3518,5.3518,0.0,0.0,0.0,0.0,0.0,0.0,0.0,0.0,0.0,5.3518,5.3518,5.3518,0.0,0.0,0.0,0.0,0.0,0.0,0.0,0.0,0.0,0.0,0.0,0.0,0.0,0.0,0.0,0.0,0.0,0.0,0.0,0.0,0.0,0.0,0.0,0.0,0.0,0.0,0.0,0.0,0.0,0.0,0.0,0.0,4.7934,4.7538,4.7309,4.7309,4.7309,4.7309,4.7309,4.7309,4.7309,4.7309,4.7309,4.7309,4.7309,4.7309,4.7309,4.7309,4.7309,4.7309,4.7309,4.7309,4.7309,4.7309,4.7309,4.7309,4.7309,4.7309,4.7309,4.7309,0.0,0.0,0.0,0.0,0.0,0.0,0.0,0.0,0.0,0.0,0.0,0.0,0.0,0.0,5.2909,5.345,5.301,5.2706,5.2706,5.2232,5.1995,5.1995,5.1995,5.2198,5.2706,5.2706,0.0,0.0,0.0,0.0,0.0,5.8287,5.9979,6.2347,6.1095,6.1501,0.0,0.0,0.0,5.7746,0.0,0.0,5.5006,0.0,0.0,0.0,0.0,0.0,0.0,0.0,0.0,0.0,0.0,5.3518,5.3518,5.3518,5.3518,0.0,0.0,0.0,0.0,0.0,0.0,0.0,0.0,0.0,0.0,0.0,0.0,0.0,0.0,0.0,0.0,0.0,0.0,0.0,0.0,0.0,0.0,0.0,0.0,0.0,0.0,0.0,0.0,0.0,0.0,0.0,4.7396,4.7309,4.7309,4.7309,4.7309,4.7309,4.7309,4.7309,4.7309,4.7309,4.7309,4.7309,4.7309,4.7309,4.7309,4.7309,4.7309,4.7309,4.7309,4.7309,4.7309,4.7309,4.7309,4.7309,4.7309,4.7309,4.7309,4.7309,0.0,0.0,0.0,0.0,0.0,0.0,0.0,0.0,0.0,0.0,0.0,0.0,0.0,0.0,0.0,5.3551,5.3551,5.3551,5.3518,5.3518,5.3518,5.3518,5.3518,5.3518,5.3518,5.3518,0.0,0.0,0.0,0.0,0.0,0.0,5.9404,6.2144,6.0013,6.1061,6.4377,0.0,6.2922,6.2042,0.0,5.7239,5.8017,0.0,0.0,0.0,5.7881,5.7442,0.0,0.0,0.0,0.0,0.0,5.3518,5.3518,5.3518,5.3518,0.0,0.0,0.0,0.0,0.0,0.0,0.0,0.0,0.0,0.0,0.0,0.0,0.0,0.0,0.0,0.0,0.0,0.0,0.0,0.0,0.0,0.0,0.0,0.0,0.0,0.0,0.0,0.0,0.0,4.9752,4.8293,4.7396,4.7309,4.7309,4.7309,4.7309,4.7309,4.7309,4.7309,4.7309,4.7309,4.7309,4.7309,4.7309,4.7309,4.7309,4.7309,4.7309,4.7309,4.7309,4.7309,4.7309,4.7309,4.7309,4.7309,4.7309,4.7309,4.7309,4.7309,0.0,0.0,0.0,0.0,0.0,0.0,0.0,0.0,0.0,0.0,0.0,0.0,0.0,5.4465,5.5108,5.5108,5.5108,5.4634,5.3585,5.3518,5.3518,5.3518,5.3518,5.3518,5.3518,5.3518,5.3518,0.0,0.0,0.0,5.5209,5.5953,5.7306,0.0,5.9607,6.008,6.0419,5.8051,0.0,0.0,5.6934,5.6934,0.0,0.0,0.0,0.0,0.0,5.7746,0.0,0.0,5.6021,5.5953,0.0,0.0,5.3518,5.3518,5.3518,0.0,5.3518,0.0,0.0,0.0,0.0,0.0,0.0,0.0,0.0,0.0,0.0,0.0,0.0,0.0,0.0,0.0,0.0,0.0,0.0,0.0,0.0,0.0,0.0,0.0,0.0,0.0,0.0,0.0,4.8025,4.7624,4.7309,4.7309,4.7309,4.7309,4.7309,4.7309,4.7309,4.7309,4.7309,4.7309,4.7309,4.7309,4.7309,4.7309,4.7309,4.7309,4.7309,4.7309,4.7309,4.7309,4.7309,4.7309,4.7309,4.7309,4.7309,4.7309,4.7309,4.7369,0.0,0.0,0.0,0.0,0.0,0.0,0.0,0.0,0.0,0.0,0.0,0.0,0.0,5.619,5.6833,5.6224,5.5886,5.5209,5.4025,5.3687,5.3518,5.3518,5.3518,5.3518,5.3518,5.3518,5.3518,5.3518,0.0,5.3721,5.416,5.46,5.5412,0.0,0.0,0.0,0.0,0.0,0.0,0.0,5.8524,0.0,0.0,6.0655,6.0757,0.0,0.0,0.0,6.0825,5.8863,5.7577,0.0,0.0,0.0,0.0,0.0,0.0,0.0,0.0,0.0,0.0,0.0,0.0,0.0,5.4296,5.4634,0.0,0.0,0.0,0.0,0.0,0.0,0.0,0.0,0.0,0.0,0.0,0.0,0.0,0.0,0.0,0.0,0.0,0.0,4.9026,4.8019,4.7538,4.7309,4.7309,4.7309,4.7309,4.7309,4.7309,4.7309,4.7309,4.7309,4.7309,4.7309,4.7309,4.7309,4.7309,4.7309,4.7309,4.7309,4.7309,4.7309,4.7309,4.7309,4.7309,4.7309,4.7309,4.7309,4.7309,4.7309,4.7489,4.7758,0.0,0.0,0.0,0.0,0.0,0.0,0.0,0.0,0.0,0.0,5.5141,5.5818,5.7374,5.8592,5.8761,5.7543,5.6528,5.5615,5.4769,5.3957,5.3518,5.3518,5.3518,5.3518,5.3518,5.3518,5.3518,5.3518,5.3518,0.0,0.0,5.3518,5.3856,5.4431,0.0,0.0,0.0,0.0,0.0,5.8829,6.1028,6.2279,0.0,0.0,6.5662,0.0,6.573,6.5696,6.5155,6.1569,5.8896,0.0,0.0,0.0,0.0,0.0,5.3551,0.0,0.0,0.0,0.0,0.0,0.0,0.0,5.5209,5.4499,5.3991,0.0,0.0,0.0,0.0,0.0,0.0,0.0,0.0,0.0,0.0,0.0,0.0,0.0,0.0,0.0,0.0,4.9784,4.8594,4.8594,4.7849,4.7309,4.7309,4.7309,4.7309,4.7309,4.7309,4.7309,4.7309,4.7309,4.7309,4.7309,4.7309,4.7309,4.7309,4.7309,4.7309,4.7309,4.7309,4.7309,4.7309,4.7309,4.7309,4.7309,4.7309,4.7309,4.7309,4.7399,4.7788,4.8297,5.3518,0.0,0.0,0.0,0.0,0.0,0.0,0.0,0.0,0.0,5.866,5.9844,6.1975,6.14,6.096,6.1264,5.8964,5.69,5.5581,5.4262,5.3518,5.3518,5.3518,5.3518,5.3518,5.3518,5.3518,5.3518,5.3518,0.0,0.0,0.0,5.3585,5.3721,0.0,0.0,0.0,0.0,0.0,5.6494,5.8118,0.0,6.5865,6.5087,6.5561,6.6508,6.5899,6.5696,6.529,0.0,6.0452,5.8423,0.0,0.0,0.0,0.0,0.0,0.0,0.0,0.0,0.0,0.0,0.0,0.0,5.4126,5.416,5.4296,0.0,0.0,0.0,0.0,0.0,0.0,0.0,0.0,0.0,0.0,0.0,0.0,0.0,0.0,0.0,5.1499,4.9161,4.7624,4.7624,4.7366,4.7309,4.7309,4.7309,4.7309,4.7309,4.7309,4.7309,4.7309,4.7309,4.7309,4.7309,4.7309,4.7309,4.7309,4.7309,4.7309,4.7309,4.7309,4.7309,4.7309,4.7309,4.7309,4.7309,4.7309,4.7309,4.7369,4.7908,4.8177,4.8446,5.3585,0.0,0.0,0.0,0.0,0.0,0.0,5.8457,5.8863,6.0013,6.1129,6.2245,6.3396,6.3193,6.2482,6.1332,5.9539,5.7679,5.5852,5.4668,5.389,5.3518,5.3518,5.3687,5.4025,5.3687,5.3687,5.4059,0.0,0.0,0.0,0.0,0.0,0.0,0.0,0.0,0.0,0.0,5.5919,5.6562,6.0283,0.0,6.529,6.6406,6.7523,6.8436,6.8064,6.7455,6.644,6.4241,6.2482,0.0,0.0,5.7374,5.6596,0.0,5.4634,5.3957,0.0,0.0,0.0,5.4059,0.0,0.0,0.0,5.4059,5.3957,0.0,0.0,0.0,0.0,0.0,0.0,0.0,0.0,0.0,0.0,0.0,0.0,0.0,0.0,0.0,4.945,4.8116,4.7309,4.7309,4.7309,4.7309,4.7309,4.7309,4.7309,4.7309,4.7309,4.7309,4.7309,4.7309,4.7309,4.7309,4.7309,4.7309,4.7309,4.7309,4.7309,4.7309,4.7309,4.7309,4.7309,4.7309,4.7309,4.7309,4.7309,4.7489,4.7848,4.8177,4.8686,4.9344,5.3653,0.0,0.0,0.0,0.0,0.0,5.981,6.0351,6.0926,6.2009,6.3429,6.441,6.458,0.0,0.0,6.2212,6.0047,5.8355,0.0,0.0,0.0,5.3721,5.3585,5.3788,5.4363,5.3788,5.3788,5.4397,0.0,0.0,5.3518,5.3518,0.0,0.0,0.0,0.0,0.0,0.0,0.0,5.7712,0.0,6.4478,6.37,6.7455,6.9248,6.9789,7.0094,6.9316,6.7793,6.573,0.0,6.3328,5.9844,5.8964,0.0,0.0,0.0,0.0,0.0,0.0,0.0,0.0,0.0,5.4363,0.0,0.0,0.0,5.3551,0.0,0.0,0.0,0.0,0.0,0.0,0.0,0.0,0.0,0.0,0.0,0.0,0.0,0.0,0.0,4.7366,4.7309,4.7309,4.7309,4.7309,4.7309,4.7309,4.7309,4.7309,4.7309,4.7309,4.7309,4.7309,4.7309,4.7309,4.7309,4.7309,4.7309,4.7309,4.7309,4.7309,4.7309,4.7309,4.7309,4.7309,4.7369,4.7489,4.7489,4.7818,4.8327,4.8566,4.9344,5.0242,5.3653,5.4093,0.0,0.0,5.6968,5.9066,5.9945,6.1264,6.2854,6.4918,6.6474,0.0,0.0,0.0,0.0,0.0,0.0,0.0,6.2415,0.0,0.0,5.4431,5.3856,5.3551,5.3619,5.3551,5.3551,5.3619,5.3551,5.3518,5.3518,5.3518,0.0,0.0,5.416,0.0,0.0,0.0,5.734,0.0,6.2415,6.326,0.0,6.6609,6.8098,6.8335,6.9688,6.9654,6.8707,0.0,6.6068,6.5019,0.0,6.0994,0.0,0.0,0.0,0.0,0.0,0.0,0.0,0.0,5.5987,0.0,0.0,0.0,5.4296,5.3619,0.0,0.0,0.0,0.0,0.0,0.0,0.0,0.0,0.0,0.0,0.0,0.0,0.0,0.0,0.0,4.7849,4.7309,4.7309,4.7309,4.7309,4.7309,4.7309,4.7309,4.7309,4.7309,4.7309,4.7309,4.7309,4.7309,4.7309,4.7309,4.7309,4.7309,4.7309,4.7309,4.7309,4.7309,4.7309,4.7309,4.7309,4.7638,4.8177,4.8177,4.8207,4.8416,4.9583,5.0122,5.0331,5.3551,5.4093,0.0,0.0,5.663,5.8558,6.1061,6.3802,6.6102,6.7489,6.8199,0.0,0.0,0.0,0.0,0.0,0.0,0.0,0.0,0.0,0.0,0.0,0.0,0.0,5.5412,5.4566,5.4126,5.4126,5.3721,5.3518,5.3518,5.3518,5.3957,0.0,5.4634,0.0,5.6393,0.0,0.0,0.0,0.0,0.0,0.0,6.6508,6.8842,6.9316,6.9958,6.9722,6.8876,0.0,6.6609,0.0,0.0,0.0,0.0,0.0,0.0,0.0,0.0,0.0,0.0,0.0,0.0,0.0,0.0,0.0,5.3856,0.0,0.0,0.0,0.0,0.0,0.0,0.0,5.3687,0.0,0.0,0.0,0.0,0.0,0.0,0.0,0.0,0.0,0.0,0.0,4.7309,4.7309,4.7309,4.7309,4.7309,4.7309,4.7309,4.7309,4.7309,4.7309,4.7309,4.7309,4.7309,4.7309,4.7309,4.7309,4.7309,4.7309,4.7309,4.7309,4.7339,4.7728,4.8027,4.8356,4.9134,4.9434,4.9494,5.0032,5.0481,5.084,5.3518,0.0,0.0,0.0,0.0,5.8355,6.211,0.0,0.0,0.0,0.0,0.0,7.0669,6.9789,0.0,0.0,0.0,6.5256,0.0,0.0,5.9099,0.0,0.0,0.0,0.0,0.0,5.4702,5.4296,5.3754,5.3721,5.4093,5.3687,5.4397,0.0,0.0,5.6393,5.7476,0.0,0.0,5.8118,6.14,6.2076,6.167,6.6609,6.9045,6.9925,7.0128,6.9722,6.891,6.7557,6.7117,0.0,6.3869,0.0,0.0,0.0,0.0,0.0,5.8761,0.0,0.0,0.0,0.0,0.0,0.0,0.0,0.0,0.0,0.0,0.0,0.0,0.0,0.0,0.0,0.0,5.3177,0.0,0.0,0.0,0.0,0.0,0.0,0.0,0.0,0.0,4.7309,4.7309,4.7309,4.7309,4.7309,4.7309,4.7309,4.7309,4.7309,4.7309,4.7309,4.7309,4.7309,4.7309,4.7309,4.7309,4.7309,4.7309,4.7309,4.7309,4.7399,4.7608,4.8087,4.8506,4.8925,4.9883,5.0361,5.0511,5.0511,5.081,5.1229,5.3518,5.4093,0.0,0.0,0.0,0.0,0.0,0.0,0.0,0.0,0.0,0.0,0.0,0.0,0.0,0.0,0.0,6.9214,6.9857,0.0,6.0216,0.0,0.0,0.0,0.0,0.0,0.0,5.3551,5.3518,5.4228,0.0,5.416,5.4668,5.6833,0.0,5.8896,5.9099,6.1298,6.2651,6.326,6.3429,6.4715,6.6576,0.0,6.7827,6.9214,6.9925,0.0,0.0,6.8132,6.7861,0.0,0.0,0.0,0.0,0.0,0.0,0.0,0.0,0.0,0.0,5.7543,0.0,0.0,0.0,0.0,5.5243,0.0,0.0,0.0,0.0,0.0,0.0,5.4431,0.0,0.0,0.0,0.0,0.0,0.0,0.0,0.0,0.0,0.0,0.0,4.7309,4.7309,4.7309,4.7309,4.7309,4.7309,4.7309,4.7309,4.7309,4.7309,4.7309,4.7309,4.7309,4.7309,4.7309,4.7309,4.7309,4.7309,4.7309,4.7309,4.7668,4.8267,4.8267,4.9045,5.0182,5.0212,5.0631,5.1199,5.1199,5.1199,5.1229,0.0,0.0,0.0,0.0,0.0,0.0,0.0,6.5595,0.0,0.0,0.0,0.0,0.0,0.0,7.7435,0.0,0.0,7.3713,7.2462,6.9113,0.0,0.0,0.0,6.1535,0.0,0.0,0.0,0.0,0.0,0.0,0.0,0.0,5.5919,0.0,0.0,5.9573,0.0,0.0,0.0,0.0,0.0,6.5121,6.7523,0.0,0.0,6.8335,6.8571,6.8504,0.0,6.7996,6.759,6.6948,6.573,6.4986,6.4377,6.3125,6.2584,0.0,0.0,0.0,6.0825,5.8795,0.0,0.0,0.0,0.0,0.0,0.0,0.0,0.0,0.0,0.0,0.0,5.3822,5.3653,0.0,0.0,0.0,0.0,0.0,0.0,0.0,0.0,0.0,0.0,4.7309,4.7309,4.7309,4.7309,4.7309,4.7309,4.7309,4.7309,4.7309,4.7309,4.7309,4.7309,4.7309,4.7309,4.7549,4.7967,4.7967,4.8177,4.8596,4.8596,4.8716,4.8955,4.9404,4.9823,5.0272,5.072,5.102,5.1229,5.1229,5.1229,5.1229,5.6599,0.0,0.0,0.0,0.0,0.0,0.0,0.0,0.0,0.0,7.5236,0.0,8.0648,0.0,8.0953,0.0,8.0209,7.7841,7.4492,7.2935,0.0,6.7658,6.6677,0.0,0.0,0.0,0.0,0.0,0.0,5.6934,0.0,0.0,0.0,0.0,0.0,0.0,0.0,0.0,6.4208,0.0,0.0,6.5831,0.0,0.0,6.7658,6.7895,0.0,6.7726,6.7523,6.7523,6.7184,6.6677,6.5933,6.5358,6.4749,6.3497,6.3159,6.299,6.2212,6.1839,0.0,5.9776,5.849,0.0,5.5378,0.0,0.0,0.0,0.0,0.0,0.0,0.0,0.0,5.3518,5.3518,5.3041,0.0,4.9931,0.0,0.0,0.0,0.0,0.0,0.0,4.704,4.7279,4.71,4.707,0.0,0.0,4.7309,4.7309,4.7309,4.7309,4.7309,4.7549,4.7668,4.7668,4.7908,4.8237,4.8626,4.8626,4.8865,4.9254,4.9254,4.9404,4.9643,5.0062,5.0361,5.0631,5.105,5.1229,5.1229,5.1229,5.1229,5.1229,0.0,0.0,0.0,0.0,6.052,0.0,0.0,0.0,7.2935,0.0,7.7468,8.0209,8.2441,8.3287,8.3998,8.4742,8.4065,0.0,7.642,7.6014,0.0,0.0,6.8741,6.7387,6.2922,0.0,0.0,0.0,0.0,0.0,0.0,0.0,0.0,0.0,6.1806,0.0,6.0452,6.5628,6.6576,6.4715,6.617,6.6779,6.6812,6.6812,6.7252,6.7895,6.7827,6.7354,6.6812,6.6779,6.6779,6.6643,6.5967,6.5696,6.5222,6.3125,6.3463,6.4072,6.1941,6.1873,6.2042,6.052,0.0,0.0,0.0,0.0,5.707,0.0,0.0,0.0,0.0,0.0,0.0,5.3518,5.3518,5.28,0.0,0.0,0.0,0.0,0.0,0.0,0.0,4.6741,4.6621,4.7249,4.6741,4.6651,0.0,0.0,4.7309,4.7309,4.7309,4.7309,4.7369,4.7967,4.8297,4.8356,4.8985,4.9284,4.9314,4.9314,4.9344,4.9344,4.9344,4.9703,5.0301,5.0301,5.0661,5.1229,5.1229,5.1229,5.1229,5.1229,5.1229,5.1229,5.905,6.0385,6.2009,0.0,6.2618,6.3429,0.0,0.0,0.0,0.0,8.0547,8.3456,8.6264,8.6738,8.6907,8.711,8.596,0.0,0.0,0.0,0.0,7.527,7.4965,7.3037,6.9113,6.8842,0.0,6.3159,0.0,0.0,6.2076,0.0,0.0,0.0,0.0,0.0,6.0419,6.5121,6.6136,6.4681,6.5595,6.6305,0.0,0.0,6.7252,6.776,6.6643,6.6508,6.6745,6.617,6.5967,6.6034,6.6406,6.5764,6.4783,6.4208,6.3937,6.3565,6.2415,6.2245,6.2144,6.1231,6.0013,5.8727,0.0,0.0,0.0,0.0,0.0,0.0,0.0,0.0,0.0,0.0,5.3518,0.0,0.0,0.0,0.0,4.8512,0.0,0.0,4.7309,4.716,4.713,4.7309,4.716,4.713,4.7309,0.0,0.0,4.7309,4.7309,4.7549,4.8027,4.8207,4.8536,4.9015,4.9194,4.9523,5.0002,5.0002,5.0242,5.072,5.072,5.081,5.096,5.096,5.1079,5.1229,5.1229,5.1229,5.1229,5.1229,5.1229,5.1229,6.2341,0.0,0.0,6.6373,0.0,0.0,7.0256,0.0,0.0,7.9262,8.231,0.0,8.6805,8.7888,8.8734,8.9376,8.7786,0.0,0.0,0.0,0.0,7.8619,7.8077,7.6284,7.2834,7.1379,0.0,6.6576,0.0,0.0,6.3768,0.0,0.0,0.0,0.0,6.2685,0.0,6.485,6.6034,6.5561,6.5662,0.0,0.0,6.6677,6.7083,6.7286,6.6102,6.5967,6.6305,6.6203,6.5967,6.5764,6.6203,6.5764,6.5019,6.4681,6.4309,6.3835,6.3091,6.2888,6.2618,6.1569,6.0655,5.9641,5.822,5.7881,5.734,0.0,0.0,0.0,0.0,0.0,0.0,0.0,0.0,0.0,0.0,0.0,0.0,0.0,4.7904,0.0,4.7309,4.704,4.698,4.7279,4.704,4.701,0.0,0.0,0.0,4.7309,4.7309,4.7608,4.8267,4.8566,4.9045,4.9703,4.9972,5.0301,5.0661,5.0661,5.087,5.1229,5.1229,5.1229,5.1229,5.1229,5.1229,5.1259,5.1528,5.1468,5.1259,5.1528,5.1468,5.1229,0.0,0.0,0.0,0.0,0.0,0.0,0.0,7.6272,0.0,8.1457,0.0,8.5985,8.6554,8.8286,8.9838,9.1034,0.0,8.7177,8.5182,8.4877,8.3287,7.9972,7.9735,7.8247,7.5134,7.2969,0.0,0.0,0.0,0.0,6.5189,6.1704,0.0,0.0,0.0,0.0,0.0,6.4241,6.5324,6.5899,6.5425,6.5358,6.5628,6.6373,6.6745,6.6711,6.5967,6.5764,6.5933,6.6474,6.6237,6.5696,6.5797,6.5696,6.5425,6.4783,6.4546,6.4309,6.3565,6.3362,6.3024,6.1637,6.1231,6.0588,5.8524,5.7949,5.7509,5.6156,5.5344,5.4837,0.0,0.0,0.0,0.0,0.0,0.0,0.0,0.0,0.0,0.0,0.0,0.0,4.7309,4.68,4.6681,4.7249,4.677,4.6711,0.0,0.0,0.0,4.7309,4.7309,4.7668,4.8416,0.0,4.9643,5.0361,5.096,5.1229,5.1229,5.1229,5.1229,5.1229,5.1229,5.1229,5.1229,5.1229,5.1259,5.1409,5.1977,5.1858,5.1409,5.2007,5.1798,5.1229,0.0,0.0,0.0,0.0,0.0,7.7628,8.0812,8.2496,8.4317,8.6789,8.9659,0.0,9.1057,9.0743,9.0593,9.0437,8.8937,0.0,0.0,0.0,0.0,8.3727,8.305,8.1054,7.7468,7.5777,7.3308,0.0,0.0,0.0,6.2922,6.0994,0.0,0.0,0.0,0.0,6.2347,6.1467,0.0,6.1366,6.2516,6.37,6.4884,6.5595,6.6271,6.6711,6.5967,6.6102,6.6542,6.6034,6.5797,6.5797,6.644,6.5764,6.4783,6.4647,6.4174,6.3531,6.2787,6.2584,6.2381,6.1535,6.0791,6.0047,5.9066,5.8355,5.7645,5.6799,5.6494,5.6224,5.5649,0.0,0.0,0.0,0.0,0.0,0.0,0.0,0.0,0.0,0.0,4.821,0.0,4.7189,4.7189,4.7309,4.7189,4.7189,4.7309,0.0,0.0,0.0,4.7309,0.0,0.0,0.0,4.9853,5.105,5.1169,5.1229,5.1229,5.1229,5.1229,5.1229,5.1229,5.1229,5.1229,5.1229,5.1528,5.2037,5.2157,5.2127,5.2037,5.2157,5.1798,5.1229,0.0,0.0,0.0,0.0,0.0,0.0,0.0,8.8807,0.0,8.8936,9.0179,9.1139,9.0862,9.1923,9.237,9.1789,9.0378,8.9233,8.8676,8.7177,8.6027,8.5249,8.4133,0.0,7.9194,7.6521,7.3883,7.1345,0.0,0.0,6.2922,0.0,0.0,5.7949,0.0,6.1501,0.0,0.0,0.0,6.1975,6.3091,6.3734,6.4208,6.5696,6.6237,6.617,6.5831,6.5933,6.617,6.5797,6.5189,6.4749,6.5865,6.5222,6.4106,6.4478,6.3802,6.2956,6.2956,6.2415,6.1637,6.0858,6.0114,5.9336,5.8592,5.8152,5.778,5.7442,5.707,5.6461,5.5344,5.4837,0.0,0.0,0.0,0.0,0.0,0.0,0.0,0.0,0.0,0.0,0.0,0.0,0.0,0.0,0.0,4.7309,4.7309,0.0,0.0,0.0,0.0,0.0,0.0,0.0,0.0,5.1229,5.1229,5.1229,5.1229,5.1229,5.1229,5.1229,5.1229,5.1229,5.1259,5.1588,5.1917,5.2276,5.2965,5.2815,5.2276,5.2995,5.2606,5.1738,0.0,7.5529,0.0,0.0,8.2547,0.0,0.0,9.3509,9.4622,9.137,9.1164,9.1264,9.1212,9.3185,9.4216,9.345,9.2024,9.0573,8.9321,8.7851,8.669,8.5824,8.4471,8.2712,8.0479,7.6927,7.4052,0.0,0.0,0.0,0.0,5.9201,0.0,0.0,0.0,0.0,0.0,0.0,6.211,6.2854,6.3599,6.3835,6.3937,6.5696,6.617,6.5899,6.5764,6.5696,6.5662,6.5493,6.4681,6.3937,6.5087,6.4546,6.3632,6.4208,6.3429,6.2516,6.3125,6.2415,6.1298,6.0351,5.9674,5.8998,5.8084,5.7881,5.7881,5.7881,5.7442,5.663,5.531,5.5074,0.0,0.0,0.0,0.0,0.0,0.0,0.0,0.0,0.0,0.0,4.881,0.0,0.0,0.0,0.0,4.7309,4.7309,4.7309,4.7309,0.0,0.0,4.8596,4.9254,0.0,5.0571,5.1229,5.1229,5.1229,5.1229,5.1229,5.1289,5.1439,5.1439,5.1498,5.1678,5.2366,5.2636,5.2725,5.3803,5.3563,5.2755,5.3832,5.3443,5.2426,0.0,0.0,0.0,0.0,0.0,0.0,0.0,9.4348,9.6722,9.7048,9.7117,9.6932,9.6414,9.6038,9.5342,9.4075,9.2565,9.1108,8.988,8.8395,8.6955,8.5898,8.4979,8.3456,8.1224,7.8213,7.4627,0.0,0.0,0.0,0.0,0.0,0.0,0.0,0.0,0.0,0.0,5.9066,5.9742,6.0486,6.1298,6.2787,6.4512,6.4749,6.5595,6.6609,6.5933,6.5696,6.5595,6.4918,6.4613,6.4512,6.4647,6.414,6.3531,6.3599,6.3024,6.2415,6.2482,6.2381,6.1941,6.0452,6.0047,5.9641,5.822,5.7881,5.7881,5.7881,5.7848,5.7543,5.6731,5.6596,5.6156,0.0,0.0,0.0,0.0,0.0,0.0,0.0,0.0,0.0,0.0,4.7904,0.0,0.0,4.7309,4.7309,4.7309,4.7309,4.7309,4.7309,0.0,4.8596,4.9254,4.9912,5.0571,5.1229,5.1229,5.1229,5.1229,5.1229,5.1558,5.2127,5.2127,5.2456,5.3054,5.3743,5.4012,5.4042,5.4162,5.4132,5.4042,5.4162,5.3743,5.3174,0.0,0.0,0.0,0.0,0.0,0.0,0.0,9.5794,9.6979,9.7787,9.7897,9.7814,9.7633,9.7296,9.6447,9.4661,9.3963,9.2814,9.1134,8.9985,8.9021,8.7987,8.6501,8.462,8.2389,7.9182,7.5574,0.0,0.0,0.0,0.0,0.0,0.0,0.0,0.0,5.7848,5.9268,6.0047,6.1061,6.2245,6.3463,6.4208,6.4715,6.5595,6.6,6.6102,6.5797,6.5696,6.5561,6.485,6.4613,6.4613,6.4613,6.4106,6.3531,6.3531,6.299,6.2381,6.2381,6.2076,6.1467,6.0385,5.9776,5.9167,5.8118,5.7881,5.7881,5.7881,5.7881,5.7679,5.6934,5.6799,5.6596,0.0,0.0,0.0,0.0,0.0,0.0,0.0,0.0,0.0,0.0,0.0,0.0,0.0,0.0,4.7309,4.7309,4.7309,4.7309,4.7309,0.0,4.9015,4.9254,5.0301,5.096,5.1229,5.1229,5.1229,5.1229,5.1229,5.1379,5.1618,5.2037,5.2576,5.3234,5.3922,5.4221,5.4251,5.464,5.4551,5.4251,5.464,5.4371,5.3892,8.6775,0.0,8.7876,0.0,9.1877,9.3161,9.6539,9.6832,9.7052,9.8117,9.7823,9.764,9.786,9.7897,9.718,9.554,9.4949,9.3867,9.1995,9.1034,9.0036,8.9108,8.7714,0.0,8.3926,8.0562,7.6957,7.3174,6.9557,0.0,0.0,0.0,0.0,0.0,5.7239,5.8626,6.0791,6.1366,6.2482,6.3937,6.4952,6.5189,6.5019,6.6068,6.6305,6.6,6.6,6.6,6.5899,6.5155,6.4918,6.485,6.441,6.3937,6.3463,6.326,6.2821,6.2381,6.2381,6.2009,6.1366,6.0351,5.9708,5.9066,5.8118,5.7881,5.7881,5.7881,5.7881,5.7712,5.7205,5.7137,5.7036,5.6833,0.0,0.0,0.0,0.0,0.0,0.0,5.2557,5.1921,5.1921,4.9977,0.0,0.0,0.0,0.0,4.7309,4.7309,0.0,0.0,0.0,0.0,0.0,5.0661,5.1229,5.1229,5.1229,5.1229,5.1229,5.1409,5.1618,5.1828,5.2516,5.3174,5.3803,5.4311,5.4491,5.4551,5.4999,5.491,5.4551,5.5029,5.491,5.4551,8.8757,8.9381,9.0408,9.3675,9.4923,9.5988,9.764,9.7199,9.7273,9.8888,9.7713,9.7016,9.7787,9.7897,9.7566,9.6759,9.5217,9.3769,9.2579,9.098,8.9546,0.0,0.0,8.7391,8.5922,8.2606,7.8985,7.5134,0.0,0.0,6.3463,0.0,6.0825,6.008,6.0892,6.167,6.2347,6.2381,6.3226,6.458,6.4613,6.5019,6.5662,6.5696,6.617,6.6812,6.6812,6.6812,6.6677,6.5933,6.5662,6.5425,6.3971,6.3531,6.3362,6.2618,6.2381,6.2381,6.2381,6.2381,6.2009,6.0486,6.008,5.9708,5.822,5.7881,5.7881,5.7881,5.7881,5.7881,5.7881,5.7881,5.7645,5.6934,0.0,0.0,0.0,0.0,0.0,0.0,5.2557,5.1921,5.1921,4.9977,0.0,0.0,0.0,0.0,0.0,0.0,0.0,4.8267,4.8925,0.0,5.0212,5.09,5.1229,5.1229,5.1229,5.1229,5.1229,5.1887,5.2546,5.3204,5.3892,5.4551,5.5179,5.5179,5.5179,5.5179,5.5179,5.5179,5.5179,5.5179,5.5179,5.5179,9.0849,9.195,9.3051,9.4116,9.5437,9.6502,9.7016,9.6869,9.6869,9.7419,9.6539,9.5988,9.6245,9.6759,9.6979,0.0,9.5731,9.4698,0.0,9.2746,9.1717,9.0674,8.9135,8.7515,8.6045,8.2551,7.9086,7.5549,0.0,0.0,0.0,6.4005,6.3159,6.2448,6.2685,6.3497,6.4647,6.4647,6.5222,6.6102,6.6102,6.6237,6.644,6.644,6.6609,6.6812,6.6812,6.6812,6.6711,6.5933,6.5696,6.5425,6.3971,6.3531,6.3362,6.2618,6.2381,6.2381,6.2381,6.2381,6.2144,6.1163,6.052,5.9844,5.8863,5.8254,5.7881,5.7881,5.7881,5.7881,5.7881,5.7881,5.7814,5.7577,5.7137,0.0,0.0,0.0,0.0,0.0,5.3179,5.3008,0.0,5.1704,0.0,0.0,0.0,0.0,0.0,0.0,0.0,0.0,4.9344,0.0,5.0242,5.09,5.1229,5.1229,5.1229,5.1229,5.1229,5.1439,5.1648,5.1887,5.2546,5.3204,5.3862,5.4311,5.479,5.5179,5.5179,5.5179,5.5179,5.5179,5.5179,5.5179,9.2684,9.3565,9.441,9.4703,9.5584,9.6355,9.6649,9.6685,9.6685,9.6685,9.6282,9.5951,9.5951,9.6135,0.0,9.5804,9.507,9.441,9.3859,9.3088,9.2354,9.1803,9.011,8.8386,8.6644,0.0,0.0,7.7375,7.4064,7.0712,6.7354,6.6339,6.5764,6.5595,6.5595,6.5967,6.6508,6.6508,6.6643,6.6812,6.6812,6.6812,6.6812,6.6812,6.6812,6.6812,6.6812,6.6812,6.6745,6.6271,6.573,6.5155,6.4546,6.3768,6.299,6.2516,6.2381,6.2381,6.2381,6.2381,6.2212,6.1467,6.0926,6.0283,5.9268,5.8423,5.7881,5.7881,5.7881,5.7881,5.7881,5.7881,5.7881,5.7881,5.7509,5.6867,5.5852,0.0,0.0,0.0,0.0,0.0,0.0,5.2957,5.195,0.0,0.0,0.0,0.0,0.0,0.0,4.8656,4.9673,0.0,5.0601,5.102,5.1229,5.1229,5.1229,5.1229,5.1229,5.1468,5.1708,5.2007,5.2665,5.3324,5.3982,5.4401,5.482,5.5179,5.5179,5.5179,5.5179,5.5179,5.5179,5.5179,9.4153,9.4336,0.0,0.0,9.5547,0.0,9.6575,9.6685,9.6685,9.6685,9.6649,9.6612,9.6539,9.5841,9.5034,9.4189,0.0,0.0,0.0,9.2281,9.1803,9.1803,9.0997,8.9676,8.7739,8.6222,8.3738,8.0243,7.4822,7.1587,7.0473,6.8929,6.8538,6.9248,6.9214,6.8774,6.8064,6.7963,6.7489,6.688,6.6846,6.6812,6.6812,6.6812,6.6812,6.6812,6.6812,6.6812,6.6812,6.6745,6.5831,6.4783,6.5425,6.4174,6.2482,6.2482,6.2415,6.2381,6.2381,6.2381,6.2212,6.1467,6.1231,6.0757,5.9336,5.8423,5.7881,5.7881,5.7881,5.7881,5.7881,5.7881,5.7881,5.7881,5.7848,5.734,5.5919,0.0,0.0,0.0,0.0,0.0,0.0,5.3761,5.2712,0.0,0.0,0.0,0.0,0.0,4.9873,4.9404,4.9972,5.0601,5.1199,5.1229,5.1229,5.1229,5.1229,5.1229,5.1319,5.1917,5.2546,5.3204,5.3862,5.4521,5.5119,5.5119,5.5149,5.5179,5.5179,5.5179,5.5179,5.5179,5.5179,5.5179,0.0,0.0,9.529,9.5474,9.6025,9.6502,9.6685,9.6685,9.6685,9.6685,9.6171,9.5547,9.4923,9.4153,9.3308,9.2464,9.2831,9.3088,9.3088,9.2281,9.1803,9.1803,9.0725,8.9343,8.7775,8.6686,8.4295,8.058,7.697,7.453,7.305,7.1314,7.0601,7.077,7.0195,6.9823,6.9586,6.8402,6.7793,6.759,6.7049,6.6812,6.6812,6.6812,6.6812,6.6812,6.6812,6.6812,6.6711,6.6136,6.573,6.5358,6.4986,6.4106,6.326,6.326,6.2854,6.2381,6.2381,6.2381,6.2212,6.1467,6.0419,5.9471,5.9099,5.8423,5.7881,5.7881,5.7881,5.7881,5.7881,5.7881,5.7881,5.7881,5.7408,5.6731,5.5852,5.5716,0.0,0.0,5.5006,5.5446,5.5446,5.5201,5.4077,0.0,0.0,0.0,0.0,5.1796,5.2676,5.0094,5.0631,5.105,5.1229,5.1229,5.1229,5.1229,5.1229,5.1468,5.1977,5.2127,5.2546,5.3204,5.3354,5.3803,5.4431,5.4431,5.473,5.5179,5.5179,5.5179,5.5179,5.5179,5.5179,5.5179,9.5327,9.5768,9.6061,9.6061,9.6428,9.6685,9.6685,9.6685,9.6685,9.6685,9.6318,9.5878,9.5437,9.4336,9.3455,9.2978,9.2684,9.2501,9.2501,9.206,9.1803,9.1803,9.0808,8.9615,8.8281,8.7584,8.5225,8.1237,7.893,7.6684,7.4693,7.2877,7.1969,7.1969,7.1104,7.05,7.0128,6.9316,6.8538,6.7861,6.7455,6.7117,6.6812,6.6812,6.6812,6.6812,6.6812,6.6812,6.6745,6.6339,6.5967,6.5662,6.5628,6.4647,6.3599,6.3903,6.3226,6.2381,6.2381,6.2381,6.2279,6.1907,6.0926,6.0047,6.0047,5.9201,5.8389,5.8389,5.8118,5.7881,5.7881,5.7881,5.778,5.7442,5.707,5.6427,5.5344,5.5513,0.0,5.4668,5.5547,5.6224,5.6224,5.6224,5.5381,5.3388,5.4287,0.0,5.0878,5.3036,5.3121,5.0333,5.1878,5.2215,5.1229,5.1229,5.1229,5.1229,5.1229,5.1409,5.1768,5.2366,5.2845,5.3204,5.3832,5.4311,5.467,5.467,5.488,5.5179,5.5179,5.5179,5.5179,5.5179,5.5179,5.5179,9.6575,9.6685,9.6685,9.6685,9.6685,9.6685,9.6685,9.6612,9.6539,9.6539,9.6428,9.6282,9.6171,9.4923,9.4079,9.3932,9.2611,9.1803,9.1803,9.1803,9.1803,9.1803,9.1143,9.0227,8.8988,8.8326,8.6132,8.2287,8.0515,7.8386,7.5849,7.3751,7.2797,7.2714,7.1776,7.0973,7.0364,7.0229,6.9417,6.8233,6.7996,6.7523,6.6948,6.6846,6.6812,6.6812,6.6812,6.6812,6.6812,6.6812,6.6373,6.5967,6.6609,6.5392,6.3802,6.441,6.3565,6.2381,6.2381,6.2313,6.2245,6.2347,6.1738,6.1163,6.1264,6.0182,5.9167,5.9167,5.8592,5.8051,5.8051,5.7983,5.7645,5.6934,5.6697,5.619,5.4938,0.0,5.5513,5.4972,5.6122,5.6968,5.6968,5.6968,5.6505,5.5369,5.4948,5.4361,5.3664,5.4035,5.3196,5.097,5.3255,5.3656,5.1727,5.1818,5.1818,5.1727,5.1542,5.157,5.181,5.2762,5.3294,5.3563,5.47,5.5179,5.5179,5.5179,5.5179,5.5179,5.5179,5.5179,5.5179,5.5179,5.5179,5.5179,9.6685,9.6685,9.6685,9.6685,9.6685,9.6685,9.6685,9.6135,9.5694,9.5694,9.5107,9.441,9.3749,9.3455,9.2978,9.2244,9.195,9.1803,9.1803,9.1803,9.1803,9.1803,9.1693,9.0887,8.9386,8.7916,8.6192,8.4186,8.167,7.9576,7.7703,7.4361,7.2797,7.2714,7.1776,7.1244,7.1109,7.0466,7.006,6.9722,6.8402,6.7827,6.7658,6.7049,6.6812,6.6812,6.6812,6.6812,6.6812,6.6812,6.6745,6.6643,6.6779,6.573,6.4444,6.458,6.3565,6.2381,6.2381,6.1941,6.1603,6.2245,6.1332,6.0452,6.1163,6.0588,5.9945,5.9945,5.9336,5.8829,5.8829,5.8321,5.7645,5.6934,5.6292,5.5818,5.5581,0.0,5.5919,5.6393,5.7205,5.7712,5.7712,5.7712,5.7043,5.5402,5.6545,5.6245,5.3728,5.5897,5.6228,5.401,5.4358,5.4421,5.4084,5.4686,5.4686,5.4084,5.3077,5.3281,5.433,5.3537,5.3803,5.488,5.5089,5.5179,5.5179,5.5179,5.5179,5.5179,5.5179,5.5179,5.5179,5.5179,5.5179,5.5179,9.6061,9.6392,9.6685,9.6685,9.6685,9.6685,9.6685,9.6392,9.6171,9.6171,9.5474,9.4813,9.4446,9.3639,9.2941,9.2537,9.206,9.1803,9.1803,9.1803,9.1803,9.1803,9.1803,9.1069,8.9454,8.7839,8.6224,8.4609,8.2518,8.0636,7.9032,7.6301,7.4851,7.4385,7.2797,7.2142,7.2022,7.1172,7.0567,7.0094,6.8977,6.8301,6.7827,6.7083,6.6812,6.6812,6.6812,6.6812,6.6812,6.6812,6.6542,6.6271,6.6677,6.5527,6.4106,6.4478,6.3565,6.2381,6.2381,6.2448,6.2482,6.2415,6.2144,6.1941,6.1907,6.1298,6.0757,6.0757,6.0148,5.9471,5.9099,5.8727,5.8118,5.7002,5.6528,0.0,0.0,5.6055,5.6427,5.6765,5.7442,5.7881,5.7881,5.7881,5.76,5.6754,5.7459,5.7312,5.6007,5.7204,5.748,5.6393,5.5247,5.492,5.549,5.5242,5.4847,5.4222,5.3694,5.3622,5.4009,5.3826,5.4072,5.467,5.5029,5.5179,5.5179,5.5179,5.5179,5.5179,5.5179,5.5179,5.5179,5.5179,5.5179,5.5179,9.5804,9.6282,9.6685,9.6685,9.6685,9.6685,9.6685,9.6539,9.6428,9.6428,9.5584,9.496,9.496,9.3675,9.2794,9.2794,9.217,9.1803,9.1803,9.1803,9.1803,9.1803,9.1436,9.0592,8.916,8.7545,8.604,8.4609,8.2994,8.1452,8.0057,7.8,7.6653,7.5971,7.3764,7.2962,7.309,7.2056,7.1348,7.0735,6.9816,6.9033,6.8335,6.7218,6.6914,6.7049,6.688,6.6812,6.6812,6.6812,6.644,6.6034,6.6643,6.5527,6.4106,6.4478,6.3666,6.2618,6.2448,6.2956,6.3328,6.2584,6.2956,6.3328,6.255,6.1941,6.1569,6.1569,6.0926,6.0216,5.9641,5.9404,5.8795,5.7306,0.0,0.0,0.0,5.6461,5.6867,5.7036,5.7543,5.7881,5.7881,5.7881,5.7881,5.7881,5.7881,5.7881,5.7881,5.7881,5.7881,5.7881,5.6402,5.5992,5.689,5.6235,5.5661,5.5352,5.509,5.4694,5.4222,5.448,5.4548,5.4461,5.497,5.5179,5.5179,5.5179,5.5179,5.5179,5.5179,5.5179,5.5179,5.5179,5.5179,5.5179,9.6612,9.6649,9.6685,9.6685,9.6685,9.6685,9.6685,9.6061,9.5584,9.5584,9.4263,9.3272,9.3272,9.2464,9.1913,9.1913,9.184,9.1803,9.1803,9.1803,9.1803,9.1803,9.0372,8.9197,8.8316,8.6701,8.5453,8.4609,8.2994,8.1746,8.0865,7.8255,7.6942,7.6764,7.401,7.3332,7.4082,7.3125,7.2714,7.2507,7.1053,7.034,6.9789,6.7624,6.7218,6.7726,6.7049,6.6812,6.6812,6.6812,6.6779,6.6745,6.6779,6.6237,6.5392,6.4783,6.4038,6.3294,6.2584,6.2956,6.3328,6.2584,6.2956,6.3328,6.255,6.2347,6.2313,6.2313,6.1738,6.1197,6.1129,6.052,5.9539,5.8051,0.0,0.0,5.6833,5.6765,5.7036,5.7712,5.7848,5.7881,5.7881,5.7881,5.7881,5.7881,5.7881,5.7881,5.7881,5.7881,5.7881,5.7881,5.841,5.8673,5.8781,5.9422,5.9717,5.9674,5.8668,5.7845,5.7306,5.631,5.5608,5.5119,5.5179,5.5179,5.5179,5.5179,5.5179,5.5179,5.5179,5.5179,5.5179,5.5179,5.5179,5.5179,9.5217,9.5621,9.6098,9.6612,9.6685,9.6685,9.6685,9.6428,9.6245,9.6245,9.485,9.3822,9.3822,9.2611,9.1803,9.1803,9.1803,9.1803,9.1803,9.1803,9.1583,9.1069,9.0005,8.905,8.8206,8.6628,8.5416,8.4609,8.3508,8.2039,8.0241,7.9186,7.8216,7.713,7.5406,7.4903,7.512,7.4158,7.3412,7.2693,7.1654,7.082,6.9992,6.8166,6.7963,6.847,6.7252,6.7117,6.7354,6.644,6.5797,6.5527,6.5967,6.4986,6.3666,6.3869,6.3734,6.3463,6.3159,6.3937,6.458,6.3396,6.3971,6.4681,6.3937,6.3768,6.3632,6.3193,6.2854,6.2381,6.1467,6.1061,6.0486,5.9438,0.0,5.9167,5.8896,5.8863,5.8795,5.8592,5.8592,5.8389,5.7915,5.7881,5.7881,5.7881,5.7881,5.7881,5.7881,5.8321,5.8592,5.8592,5.9302,5.9471,5.9032,5.9742,5.9977,5.9671,5.8573,5.7692,5.7213,5.6777,5.6457,5.6378,5.6378,5.6378,5.628,5.5551,5.5179,5.5179,5.5179,5.5179,5.5179,5.5179,5.5179,5.5179,9.463,9.4923,9.5474,9.6502,9.6282,9.6025,9.6282,9.6098,9.5951,9.5951,9.4777,9.3932,9.3932,9.2648,9.1803,9.1803,9.1803,9.1803,9.1803,9.1803,9.1326,9.0298,8.9711,8.894,8.7839,8.6481,8.5416,8.4609,8.3801,8.2296,8.0167,7.991,7.9029,7.7646,7.6373,7.5959,7.6197,7.5227,7.4158,7.3182,7.2415,7.1532,7.0364,6.8842,6.8605,6.8944,6.7624,6.732,6.7387,6.6373,6.5696,6.5358,6.5595,6.4478,6.3226,6.3971,6.4208,6.414,6.3903,6.4918,6.5628,6.3937,6.4613,6.5493,6.4783,6.4613,6.4478,6.3971,6.3869,6.3565,6.2516,6.2347,6.2076,6.1298,6.096,6.0723,6.052,6.025,5.9911,5.9404,5.937,5.9066,5.8321,5.8254,5.8152,5.7915,5.8118,5.8254,5.8254,5.8727,5.9032,5.9032,5.9708,5.9979,5.9742,6.0216,6.0404,6.0388,5.9577,5.8775,5.8145,5.8145,5.79,5.7527,5.7527,5.7339,5.6991,5.6085,5.5551,5.5179,5.5179,5.5179,5.5179,5.5179,5.5179,5.5179,9.5327,9.485,9.4813,9.6392,9.5364,9.4593,9.5364,9.4813,9.4299,9.4299,9.3602,9.3088,9.3088,9.2317,9.1803,9.1803,9.1803,9.1803,9.1803,9.1803,9.1069,8.9491,8.9417,8.8683,8.7068,8.6224,8.5416,8.4609,8.3801,8.259,8.1012,8.0167,7.936,7.849,7.6627,7.633,7.7243,7.6264,7.5227,7.4239,7.346,7.2429,7.1142,6.9688,6.9113,6.9011,6.8199,6.7455,6.6846,6.6812,6.6812,6.6677,6.5899,6.5189,6.4749,6.5493,6.5696,6.5527,6.4816,6.5696,6.6271,6.4072,6.4613,6.5493,6.4783,6.4613,6.4613,6.4613,6.4613,6.4613,6.4613,6.4613,6.4377,6.3632,6.2888,6.2144,6.1434,6.0622,6.0114,6.0114,6.0114,5.981,5.9099,5.9032,5.8727,5.7949,5.8592,5.9032,5.9032,5.9032,5.9032,5.9032,5.9708,6.0486,6.1298,6.1298,6.167,6.2381,6.2381,6.1756,6.0586,6.0586,5.9957,5.8812,5.8812,5.8177,5.6991,5.6991,5.628,5.5179,5.5179,5.5179,5.5179,5.5179,5.5179,5.5179,9.3896,9.4079,9.4446,9.4923,9.5107,9.5034,9.4703,9.4446,9.4299,9.4299,9.3602,9.3088,9.3088,9.2317,9.1803,9.1803,9.1803,9.1803,9.1803,9.1803,9.1326,9.0298,8.9711,8.894,8.7876,8.7068,8.6261,8.5416,8.4646,8.3434,8.1819,8.0424,7.936,7.8552,7.7385,7.7019,7.7243,7.6956,7.5891,7.431,7.4062,7.2916,7.121,7.0229,7.0195,7.05,6.9214,6.8605,6.8267,6.7184,6.6474,6.5899,6.5155,6.5493,6.6102,6.5764,6.5696,6.5628,6.5425,6.5696,6.5865,6.5222,6.5764,6.6406,6.6203,6.6136,6.6,6.5459,6.5358,6.5189,6.4681,6.4613,6.4546,6.4309,6.4072,6.37,6.2956,6.2651,6.211,6.1061,6.0926,6.0622,5.9844,5.9776,5.9674,5.9471,5.9641,5.9573,5.9032,5.9505,5.9539,5.9032,6.0283,6.1061,6.1298,6.1806,6.2178,6.2381,6.1561,6.0953,6.0586,6.0586,6.0417,6.0075,6.0075,5.9346,5.8177,5.7339,5.628,5.5179,5.5179,5.5179,5.5179,5.5179,5.5179,5.5179,9.3602,9.3418,9.3529,9.4189,9.4153,9.4006,9.3859,9.3529,9.3308,9.3308,9.2905,9.2574,9.2574,9.2134,9.1803,9.1803,9.1803,9.1803,9.1803,9.1803,9.1583,9.1106,9.0298,8.9344,8.8206,8.7729,8.6921,8.5783,8.4976,8.3765,8.215,8.0865,7.969,7.8589,7.8075,7.7635,7.7304,7.7304,7.613,7.431,7.4757,7.3412,7.1244,7.1265,7.111,7.0737,6.9857,6.9147,6.847,6.7557,6.6542,6.5662,6.5527,6.5899,6.6339,6.617,6.6136,6.6136,6.6136,6.6136,6.6136,6.6136,6.6474,6.6812,6.6812,6.6812,6.6677,6.6237,6.6136,6.6,6.5561,6.5459,6.5459,6.5459,6.5222,6.4884,6.4444,6.3869,6.3193,6.2279,6.1907,6.1434,6.0655,6.0588,6.0588,6.0588,6.0588,6.0385,5.9945,6.0317,6.0385,5.9945,6.0825,6.1434,6.1738,6.2178,6.2381,6.2381,6.1676,6.1317,6.1317,6.1317,6.1317,6.1317,6.1317,6.0586,5.9434,5.869,5.7434,5.5918,5.5918,5.5651,5.5179,5.5179,5.5179,5.5179,9.4042,9.2941,9.2354,9.3822,9.2868,9.217,9.2868,9.2317,9.1803,9.1803,9.1803,9.1803,9.1803,9.1803,9.1803,9.1803,9.1803,9.1803,9.1803,9.1803,9.1803,9.1803,9.1106,9.0005,8.8463,8.828,8.7435,8.5894,8.5013,8.3838,8.237,8.1379,8.0094,7.8699,7.8552,7.8038,7.7304,7.7304,7.6197,7.4535,7.544,7.4082,7.1546,7.2414,7.1781,7.0297,7.0297,6.9316,6.7996,6.7861,6.6914,6.5899,6.6609,6.6339,6.5933,6.6609,6.6812,6.6812,6.6812,6.6812,6.6812,6.6812,6.6812,6.6812,6.6812,6.6812,6.6812,6.6812,6.688,6.688,6.6812,6.688,6.688,6.6812,6.6237,6.5764,6.5696,6.4546,6.3666,6.3531,6.2922,6.2212,6.1467,6.14,6.14,6.14,6.14,6.1366,6.1298,6.1298,6.1264,6.1197,6.1264,6.1637,6.2279,6.2347,6.2381,6.2381,6.2381,6.2381,6.2381,6.2381,6.2381,6.2381,6.2381,6.1756,6.0586,6.0586,5.9258,5.7181,5.7181,5.6445,5.5551,5.5381,5.5381,5.5381,9.3345,9.3088,9.2721,9.2391,9.2611,9.2648,9.217,9.1913,9.1803,9.1803,9.1803,9.1803,9.1803,9.1803,9.1803,9.1803,9.1803,9.1803,9.1803,9.1803,9.1803,9.1803,9.162,9.1069,9.0115,8.883,8.7729,8.6738,8.5306,8.4425,8.4022,8.1305,7.9874,7.947,7.8185,7.7488,7.7304,7.7304,7.6563,7.551,7.5718,7.446,7.2498,7.2714,7.2125,7.1075,7.1075,7.0094,6.8673,6.7455,6.6846,6.6609,6.6779,6.6711,6.6609,6.6779,6.6812,6.6812,6.6812,6.6812,6.6812,6.6812,6.6812,6.6812,6.6812,6.6812,6.6812,6.6812,6.7252,6.7489,6.6914,6.7286,6.7489,6.6914,6.6677,6.6373,6.5764,6.5425,6.4783,6.3666,6.3362,6.299,6.2212,6.2144,6.2144,6.2144,6.2144,6.1907,6.1332,6.1298,6.1028,6.0385,6.096,6.1366,6.1535,6.211,6.2381,6.2381,6.2381,6.2381,6.2381,6.2381,6.2381,6.2381,6.2381,6.1756,6.0586,6.0586,5.9697,5.8451,5.8451,5.8268,5.79,5.6991,5.6638,5.6445,9.3088,9.2758,9.2354,9.1877,9.217,9.2317,9.1877,9.1803,9.1803,9.1803,9.1803,9.1803,9.1803,9.1803,9.1803,9.1803,9.1803,9.1803,9.1803,9.1803,9.1803,9.1803,9.1436,9.0849,9.0078,8.883,8.7986,8.7582,8.56,8.4609,8.4535,8.1709,8.0167,7.9727,7.8479,7.7708,7.7304,7.7304,7.6728,7.5855,7.633,7.5048,7.288,7.3332,7.2582,7.1312,7.1312,7.0364,6.891,6.7726,6.7117,6.6812,6.6812,6.6812,6.6812,6.6812,6.6812,6.6812,6.6812,6.6812,6.6812,6.6812,6.7083,6.7252,6.688,6.7083,6.7218,6.688,6.7387,6.7658,6.6948,6.7117,6.7252,6.688,6.6812,6.6677,6.6271,6.5899,6.5256,6.4174,6.4038,6.3734,6.299,6.2618,6.2381,6.2381,6.2381,6.2212,6.1839,6.1806,6.1637,6.1197,6.1603,6.1806,6.1806,6.2212,6.2381,6.2381,6.2381,6.2381,6.2381,6.2381,6.2381,6.2381,6.2381,6.203,6.148,6.148,6.0787,5.961,5.961,5.9346,5.8632,5.7434,5.6638,5.6085,9.3088,9.2391,9.1803,9.1803,9.1803,9.1803,9.1803,9.1803,9.1803,9.1803,9.1803,9.1803,9.1803,9.1803,9.1803,9.1803,9.1803,9.1803,9.1803,9.1803,9.1803,9.1803,9.1033,9.0298,8.9638,8.8683,8.8133,8.7986,8.571,8.4609,8.4535,8.215,8.0571,7.9764,7.8956,7.8112,7.7304,7.7304,7.6793,7.6094,7.6793,7.544,7.309,7.3772,7.288,7.1312,7.1312,7.0432,6.9147,6.8199,6.7489,6.6981,6.6846,6.6812,6.6812,6.6812,6.6812,6.6812,6.6812,6.6812,6.6846,6.6981,6.7455,6.7793,6.732,6.7658,6.7895,6.7151,6.7692,6.803,6.7151,6.7218,6.732,6.7049,6.7015,6.6948,6.6846,6.6271,6.5595,6.4884,6.4681,6.4309,6.3599,6.2956,6.2516,6.2415,6.2381,6.2381,6.2381,6.2381,6.2381,6.2381,6.2381,6.2381,6.2381,6.2381,6.2381,6.2381,6.2381,6.2381,6.2381,6.2381,6.2381,6.2381,6.2381,6.2381,6.2381,6.2381,6.1837,6.087,6.087,6.0332,5.9258,5.7807,5.6445,5.5179,9.2941,9.2391,9.1803,9.1803,9.1803,9.1803,9.1803,9.1803,9.1803,9.1803,9.1803,9.1803,9.1803,9.1803,9.1803,9.1803,9.1803,9.1803,9.1803,9.1803,9.1803,9.1803,9.1033,9.0555,9.0445,8.8977,8.7876,8.7178,8.5453,8.4609,8.4535,8.215,8.0571,7.9764,7.8956,7.8112,7.7304,7.7304,7.7243,7.7019,7.633,7.5227,7.4005,7.3252,7.2279,7.1312,7.1312,7.077,6.9823,6.8402,6.7827,6.7658,6.7015,6.6812,6.6812,6.6812,6.6812,6.6812,6.6812,6.6812,6.6948,6.759,6.7827,6.8064,6.8639,6.8876,6.8707,6.7929,6.8876,6.9451,6.803,6.8842,6.9282,6.7963,6.776,6.7523,6.6914,6.6711,6.6373,6.5628,6.4986,6.4309,6.3599,6.3429,6.3091,6.2448,6.2381,6.2381,6.2381,6.2381,6.2381,6.2381,6.2381,6.2381,6.2381,6.2381,6.2381,6.2381,6.2381,6.2381,6.2381,6.2381,6.2381,6.2381,6.2381,6.2381,6.2381,6.2381,6.2302,6.211,6.211,6.203,6.1676,5.9434,5.7086,5.5179,9.2281,9.206,9.1803,9.1803,9.1803,9.1803,9.1803,9.1803,9.1803,9.1803,9.1803,9.1803,9.1803,9.1803,9.1803,9.1803,9.1803,9.1803,9.1803,9.1803,9.1803,9.1803,9.0592,8.9931,8.9931,8.8353,8.7362,8.6995,8.538,8.4609,8.4535,8.215,8.0571,7.9764,7.8956,7.8112,7.7304,7.7304,7.7304,7.7243,7.6793,7.6027,7.5048,7.4005,7.3044,7.2056,7.1546,7.0838,7.0026,6.8944,6.8571,6.8368,6.7184,6.7083,6.7354,6.6948,6.6812,6.6812,6.6812,6.6812,6.6981,6.7726,6.8233,6.8774,6.9553,7.0026,6.9992,6.8808,6.9451,6.9857,6.8774,6.9113,6.935,6.8673,6.8199,6.7793,6.7455,6.7083,6.6677,6.6339,6.529,6.4647,6.4715,6.4377,6.3971,6.3632,6.326,6.3024,6.3024,6.2618,6.2381,6.2381,6.2381,6.2381,6.2381,6.2381,6.2381,6.2381,6.2381,6.2381,6.2381,6.2381,6.2381,6.2381,6.2381,6.2381,6.2381,6.2381,6.2381,6.2381,6.2381,6.1595,6.0332,5.9957,5.8268,5.6183]},{"header":{"parameterUnit":"m.s-1","parameterCategory":1,"la1":30.6,"la2":28.766,"lo1":-90.7593,"lo2":-88.6598,"dy":0.0162,"dx":0.0183,"nx":116,"ny":114,"refTime":"2023-11-19T06:00:00:Z","depth":0,"parameterNumber":3,"parameterNumberName":"V-component_of_WINDS"},"data":[0.0,0.0,0.0,0.0,0.0,0.0,0.0,0.0,0.0,0.0,0.0,0.0,0.0,0.0,0.0,0.0,0.0,0.0,0.0,0.0,0.0,0.0,0.0,0.0,0.0,0.0,0.0,0.0,0.0,0.0,0.0,0.0,0.0,0.0,0.0,0.0,0.0,0.0,0.0,0.0,0.0,0.0,0.0,0.0,0.0,0.0,0.0,0.0,0.0,0.0,0.0,0.0,0.0,0.0,0.0,0.0,0.0,0.0,0.0,0.0,0.0,0.0,0.0,0.0,0.0,0.0,0.0,0.0,0.0,0.0,0.0,0.0,0.0,0.0,0.0,0.0,0.0,0.0,0.0,0.0,0.0,0.0,0.0,0.0,0.0,0.0,0.0,0.0,0.0,0.0,0.0,0.0,0.0,0.0,0.0,0.0,0.0,0.0,0.0,0.0,0.0,0.0,0.0,0.0,0.0,0.0,0.0,0.0,0.0,0.0,0.0,0.0,0.0,0.0,0.0,0.0,0.0,0.0,0.0,0.0,0.0,0.0,0.0,0.0,0.0,0.0,0.0,0.0,0.0,0.0,0.0,0.0,0.0,0.0,0.0,0.0,0.0,0.0,0.0,0.0,0.0,0.0,0.0,0.0,0.0,0.0,0.0,0.0,0.0,0.0,0.0,0.0,0.0,0.0,0.0,0.0,0.0,0.0,0.0,0.0,0.0,0.0,0.0,0.0,0.0,0.0,0.0,0.0,0.0,0.0,0.0,0.0,0.0,0.0,0.0,0.0,0.0,0.0,0.0,0.0,0.0,0.0,0.0,0.0,0.0,0.0,0.0,0.0,0.0,0.0,0.0,0.0,0.0,0.0,0.0,0.0,0.0,0.0,0.0,0.0,0.0,0.0,0.0,0.0,0.0,0.0,0.0,0.0,0.0,0.0,0.0,0.0,0.0,0.0,0.0,0.0,0.0,0.0,0.0,0.0,0.0,0.0,0.0,0.0,0.0,0.0,0.0,0.0,0.0,0.0,0.0,0.0,0.0,0.0,0.0,0.0,0.0,0.0,0.0,0.0,0.0,0.0,0.0,0.0,0.0,0.0,0.0,0.0,0.0,0.0,0.0,0.0,0.0,0.0,0.0,0.0,0.0,0.0,0.0,0.0,0.0,0.0,0.0,0.0,0.0,0.0,0.0,0.0,0.0,0.0,0.0,0.0,0.0,0.0,0.0,0.0,0.0,0.0,0.0,0.0,0.0,0.0,0.0,0.0,0.0,0.0,0.0,0.0,0.0,0.0,0.0,0.0,0.0,0.0,0.0,0.0,0.0,0.0,0.0,0.0,0.0,0.0,0.0,0.0,0.0,0.0,0.0,0.0,0.0,0.0,0.0,0.0,0.0,0.0,0.0,0.0,0.0,0.0,0.0,0.0,0.0,0.0,0.0,0.0,0.0,0.0,0.0,0.0,0.0,0.0,0.0,0.0,0.0,0.0,0.0,0.0,0.0,0.0,0.0,0.0,0.0,0.0,0.0,0.0,0.0,0.0,0.0,0.0,0.0,0.0,0.0,0.0,0.0,0.0,0.0,0.0,0.0,0.0,0.0,0.0,0.0,0.0,0.0,0.0,0.0,0.0,0.0,0.0,0.0,0.0,0.0,0.0,0.0,0.0,0.0,0.0,0.0,0.0,0.0,0.0,0.0,0.0,0.0,0.0,0.0,0.0,0.0,0.0,0.0,0.0,0.0,0.0,0.0,0.0,0.0,0.0,0.0,0.0,0.0,0.0,0.0,0.0,0.0,0.0,0.0,0.0,0.0,0.0,0.0,0.0,0.0,0.0,0.0,0.0,0.0,0.0,0.0,0.0,0.0,0.0,0.0,0.0,0.0,0.0,0.0,0.0,0.0,0.0,0.0,0.0,0.0,0.0,0.0,0.0,0.0,0.0,0.0,0.0,0.0,0.0,0.0,0.0,0.0,0.0,0.0,0.0,0.0,0.0,0.0,0.0,0.0,0.0,0.0,0.0,0.0,0.0,0.0,0.0,0.0,0.0,0.0,0.0,0.0,0.0,0.0,0.0,0.0,0.0,0.0,0.0,0.0,0.0,0.0,0.0,0.0,0.0,0.0,0.0,0.0,0.0,0.0,0.0,0.0,0.0,0.0,0.0,0.0,0.0,0.0,0.0,0.0,0.0,0.0,0.0,0.0,0.0,0.0,0.0,0.0,0.0,0.0,0.0,0.0,0.0,0.0,0.0,0.0,0.0,0.0,0.0,0.0,0.0,0.0,0.0,0.0,0.0,0.0,0.0,0.0,0.0,0.0,0.0,0.0,0.0,0.0,0.0,0.0,0.0,0.0,0.0,0.0,0.0,0.0,0.0,0.0,0.0,0.0,0.0,0.0,0.0,0.0,0.0,0.0,0.0,0.0,0.0,0.0,0.0,0.0,0.0,0.0,0.0,0.0,0.0,0.0,0.0,0.0,0.0,0.0,0.0,0.0,0.0,0.0,0.0,0.0,0.0,0.0,0.0,0.0,0.0,0.0,0.0,0.0,0.0,0.0,0.0,0.0,0.0,0.0,0.0,0.0,0.0,0.0,0.0,0.0,0.0,0.0,0.0,0.0,0.0,0.0,0.0,0.0,0.0,0.0,0.0,0.0,0.0,0.0,0.0,0.0,0.0,0.0,0.0,0.0,0.0,0.0,0.0,0.0,0.0,0.0,0.0,0.0,0.0,0.0,0.0,0.0,0.0,0.0,0.0,0.0,0.0,0.0,0.0,0.0,0.0,0.0,0.0,0.0,0.0,0.0,0.0,0.0,0.0,0.0,0.0,0.0,0.0,0.0,0.0,0.0,0.0,0.0,0.0,0.0,0.0,0.0,0.0,0.0,0.0,0.0,0.0,0.0,0.0,0.0,0.0,0.0,0.0,0.0,0.0,0.0,0.0,0.0,0.0,0.0,0.0,0.0,0.0,0.0,0.0,0.0,0.0,0.0,0.0,0.0,0.0,0.0,0.0,0.0,0.0,0.0,0.0,0.0,0.0,0.0,0.0,0.0,0.0,0.0,0.0,0.0,0.0,0.0,0.0,0.0,0.0,0.0,0.0,0.0,0.0,0.0,0.0,0.0,0.0,0.0,0.0,0.0,0.0,0.0,0.0,0.0,0.0,0.0,0.0,0.0,0.0,0.0,0.0,0.0,0.0,0.0,0.0,0.0,0.0,0.0,0.0,0.0,0.0,0.0,0.0,0.0,0.0,0.0,0.0,0.0,0.0,0.0,0.0,0.0,0.0,0.0,0.0,0.0,0.0,0.0,0.0,0.0,0.0,0.0,0.0,0.0,0.0,0.0,0.0,0.0,0.0,0.0,0.0,0.0,0.0,0.0,0.0,0.0,0.0,0.0,0.0,0.0,0.0,0.0,0.0,0.0,0.0,0.0,0.0,0.0,0.0,0.0,0.0,0.0,0.0,0.0,0.0,0.0,0.0,0.0,0.0,0.0,0.0,0.0,0.0,0.0,0.0,0.0,0.0,0.0,0.0,0.0,0.0,0.0,0.0,0.0,0.0,0.0,0.0,0.0,0.0,0.0,0.0,0.0,0.0,0.0,0.0,0.0,0.0,0.0,0.0,0.0,0.0,0.0,0.0,0.0,0.0,0.0,0.0,0.0,0.0,0.0,0.0,0.0,0.0,0.0,0.0,0.0,0.0,0.0,0.0,0.0,0.0,0.0,0.0,0.0,0.0,0.0,0.0,0.0,0.0,0.0,0.0,0.0,0.0,0.0,0.0,0.0,0.0,0.0,0.0,0.0,0.0,0.0,0.0,0.0,0.0,0.0,0.0,0.0,0.0,0.0,0.0,0.0,0.0,0.0,0.0,0.0,0.0,0.0,0.0,0.0,0.0,0.0,0.0,0.0,0.0,0.0,0.0,0.0,0.0,0.0,0.0,0.0,0.0,0.0,0.0,0.0,0.0,0.0,0.0,0.0,0.0,0.0,0.0,0.0,0.0,0.0,0.0,0.0,0.0,0.0,0.0,0.0,0.0,0.0,0.0,0.0,0.0,0.0,0.0,0.0,0.0,0.0,0.0,0.0,0.0,0.0,0.0,0.0,0.0,0.0,0.0,0.0,0.0,0.0,0.0,0.0,0.0,0.0,0.0,0.0,0.0,0.0,0.0,0.0,0.0,0.0,0.0,0.0,0.0,0.0,0.0,0.0,0.0,0.0,0.0,0.0,0.0,0.0,0.0,0.0,0.0,0.0,0.0,0.0,0.0,0.0,0.0,0.0,0.0,0.0,0.0,0.0,0.0,0.0,0.0,0.0,0.0,0.0,0.0,0.0,0.0,0.0,0.0,0.0,0.0,0.0,0.0,0.0,0.0,0.0,0.0,0.0,0.0,0.0,0.0,0.0,0.0,0.0,0.0,0.0,0.0,0.0,0.0,0.0,0.0,0.0,0.0,0.0,0.0,0.0,0.0,0.0,0.0,0.0,0.0,0.0,0.0,0.0,0.0,0.0,0.0,0.0,0.0,0.0,0.0,0.0,0.0,0.0,0.0,0.0,0.0,0.0,0.0,0.0,0.0,0.0,0.0,0.0,0.0,0.0,0.0,0.0,0.0,0.0,0.0,0.0,0.0,0.0,0.0,0.0,0.0,0.0,0.0,0.0,0.0,0.0,0.0,0.0,0.0,0.0,0.0,0.0,0.0,0.0,0.0,0.0,0.0,0.0,0.0,0.0,0.0,0.0,0.0,0.0,0.0,0.0,0.0,0.0,0.0,0.0,0.0,0.0,0.0,0.0,0.0,0.0,0.0,0.0,0.0,0.0,0.0,0.0,0.0,0.0,0.0,0.0,0.0,0.0,0.0,0.0,0.0,0.0,0.0,0.0,0.0,0.0,0.0,0.0,0.0,0.0,0.0,0.0,0.0,0.0,0.0,0.0,0.0,0.0,0.0,0.0,0.0,0.0,0.0,0.0,0.0,0.0,0.0,0.0,0.0,0.0,0.0,0.0,0.0,0.0,0.0,0.0,0.0,0.0,0.0,0.0,0.0,0.0,0.0,0.0,0.0,0.0,0.0,0.0,0.0,0.0,0.0,0.0,0.0,0.0,0.0,0.0,0.0,0.0,0.0,0.0,0.0,0.0,0.0,0.0,0.0,0.0,0.0,0.0,0.0,0.0,0.0,0.0,0.0,0.0,0.0,0.0,0.0,0.0,0.0,0.0,0.0,0.0,0.0,0.0,0.0,0.0,0.0,0.0,0.0,0.0,0.0,0.0,0.0,0.0,0.0,0.0,0.0,0.0,0.0,0.0,0.0,0.0,0.0,0.0,0.0,0.0,0.0,0.0,0.0,0.0,0.0,0.0,0.0,0.0,0.0,0.0,0.0,0.0,0.0,0.0,0.0,0.0,0.0,0.0,0.0,0.0,0.0,0.0,0.0,0.0,0.0,0.0,0.0,0.0,0.0,0.0,0.0,0.0,0.0,0.0,0.0,0.0,0.0,0.0,0.0,0.0,0.0,0.0,0.0,0.0,0.0,0.0,0.0,0.0,0.0,0.0,0.0,0.0,0.0,0.0,0.0,0.0,0.0,0.0,0.0,0.0,0.0,0.0,0.0,0.0,0.0,0.0,0.0,0.0,0.0,0.0,0.0,0.0,0.0,0.0,0.0,0.0,0.0,0.0,0.0,0.0,0.0,0.0,0.0,0.0,0.0,0.0,0.0,0.0,0.0,0.0,0.0,0.0,0.0,0.0,0.0,0.0,0.0,0.0,0.0,0.0,0.0,0.0,0.0,0.0,0.0,0.0,0.0,0.0,0.0,0.0,0.0,0.0,0.0,0.0,0.0,0.0,0.0,0.0,0.0,0.0,0.0,0.0,0.0,0.0,0.0,0.0,0.0,0.0,0.0,0.0,0.0,0.0,0.0,0.0,0.0,0.0,0.0,0.0,0.0,0.0,0.0,0.0,0.0,0.0,0.0,0.0,0.0,0.0,0.0,0.0,0.0,0.0,0.0,0.0,0.0,0.0,0.0,0.0,0.0,0.0,0.0,0.0,0.0,0.0,0.0,0.0,0.0,0.0,0.0,0.0,0.0,0.0,0.0,0.0,0.0,0.0,0.0,-2.5019,0.0,0.0,0.0,0.0,0.0,0.0,0.0,0.0,0.0,0.0,0.0,0.0,0.0,0.0,0.0,0.0,0.0,0.0,0.0,0.0,0.0,0.0,0.0,0.0,0.0,0.0,0.0,0.0,0.0,0.0,0.0,0.0,0.0,0.0,0.0,0.0,0.0,0.0,0.0,-3.1171,-3.1071,-3.27,-3.1357,-3.0117,-2.8906,0.0,0.0,0.0,0.0,0.0,0.0,0.0,0.0,0.0,0.0,0.0,0.0,0.0,0.0,0.0,0.0,0.0,0.0,0.0,0.0,0.0,0.0,0.0,0.0,0.0,0.0,0.0,0.0,0.0,0.0,0.0,0.0,0.0,0.0,0.0,0.0,0.0,0.0,0.0,0.0,0.0,0.0,0.0,0.0,0.0,0.0,0.0,0.0,0.0,0.0,0.0,0.0,0.0,0.0,0.0,0.0,0.0,0.0,0.0,0.0,0.0,0.0,0.0,0.0,0.0,0.0,0.0,0.0,0.0,0.0,0.0,-2.5664,0.0,0.0,0.0,0.0,0.0,0.0,0.0,0.0,0.0,0.0,0.0,0.0,0.0,0.0,0.0,0.0,0.0,0.0,0.0,0.0,0.0,0.0,0.0,-2.9746,-2.9805,-2.9805,-2.9805,-2.9941,0.0,0.0,0.0,0.0,0.0,0.0,-3.0898,-3.0898,-3.1388,-3.2514,-3.2058,-3.2037,-3.2324,-3.3105,-3.248,-3.0664,-3.0078,0.0,0.0,0.0,0.0,0.0,0.0,0.0,0.0,0.0,0.0,0.0,0.0,0.0,0.0,0.0,0.0,0.0,0.0,0.0,0.0,0.0,0.0,0.0,0.0,0.0,0.0,0.0,0.0,0.0,0.0,0.0,0.0,0.0,0.0,0.0,0.0,0.0,0.0,0.0,0.0,0.0,0.0,0.0,0.0,0.0,0.0,0.0,0.0,0.0,0.0,0.0,0.0,0.0,0.0,0.0,0.0,0.0,0.0,0.0,0.0,0.0,0.0,0.0,-3.1289,-3.1738,-3.168,-3.1953,-3.1934,-3.1543,-2.9238,-2.7949,-2.7441,0.0,0.0,0.0,0.0,0.0,0.0,0.0,0.0,0.0,0.0,0.0,0.0,0.0,0.0,0.0,0.0,0.0,0.0,0.0,0.0,0.0,0.0,-3.0469,-3.0723,-3.0723,-3.0723,-3.0742,-3.0801,0.0,0.0,-3.0898,-3.0898,-3.0898,-3.0898,-3.0898,-3.1796,-3.3505,-3.5252,-3.5868,-3.543,-3.5937,-3.5801,-3.5039,-3.2051,-3.1309,-3.2129,0.0,0.0,0.0,0.0,0.0,0.0,0.0,0.0,0.0,0.0,0.0,0.0,0.0,0.0,0.0,0.0,0.0,0.0,0.0,0.0,0.0,0.0,0.0,0.0,0.0,0.0,0.0,0.0,0.0,0.0,0.0,0.0,0.0,0.0,0.0,0.0,0.0,0.0,0.0,0.0,0.0,-2.4902,-2.4902,0.0,0.0,0.0,0.0,0.0,0.0,0.0,0.0,0.0,0.0,0.0,0.0,0.0,-3.0273,-3.1562,-3.2734,-3.3184,-3.293,-3.457,-3.5156,-3.4785,-3.4434,-3.4473,-3.4746,-3.3633,0.0,-2.918,-2.8437,0.0,0.0,0.0,0.0,0.0,0.0,0.0,0.0,0.0,0.0,0.0,0.0,0.0,0.0,0.0,0.0,0.0,0.0,0.0,0.0,0.0,-3.1621,-3.2226,-3.1973,-3.3301,-3.3516,-3.2051,-3.2422,-3.2492,-3.2153,-3.1325,-3.1325,-3.2092,-3.1562,-3.2255,-3.4242,-3.7104,-3.8365,-3.7832,-3.8516,-3.8613,-3.8105,-3.584,-3.4082,-3.2715,-3.1582,0.0,0.0,0.0,0.0,0.0,0.0,0.0,0.0,0.0,0.0,0.0,0.0,0.0,0.0,0.0,0.0,0.0,0.0,0.0,0.0,0.0,0.0,0.0,0.0,0.0,0.0,0.0,0.0,0.0,0.0,0.0,0.0,0.0,0.0,0.0,0.0,0.0,0.0,0.0,-2.5137,-2.5723,-2.5469,-2.5879,-2.5703,0.0,0.0,0.0,0.0,0.0,0.0,0.0,0.0,0.0,-3.1406,-3.2285,-3.3144,-3.3965,-3.5019,-3.5547,-3.5605,-3.6855,-3.7363,-3.7187,-3.7226,-3.707,-3.6797,-3.6406,-3.4941,-3.2695,-3.0859,-2.916,-2.7676,0.0,0.0,0.0,0.0,-2.9214,-3.0405,0.0,0.0,0.0,0.0,0.0,0.0,0.0,0.0,0.0,0.0,0.0,0.0,-3.1603,-3.2851,-3.3809,-3.3945,-3.5508,-3.5684,-3.375,-3.3594,-3.3347,-3.2827,-3.156,-3.148,-3.2695,-3.2674,-3.3769,-3.6035,-3.9062,-4.0488,-4.0371,-4.125,-4.1387,-4.084,-3.9961,-3.7734,-3.4531,-3.3437,-3.2031,-3.0469,0.0,0.0,0.0,0.0,0.0,0.0,0.0,0.0,0.0,0.0,0.0,0.0,0.0,0.0,0.0,0.0,0.0,0.0,0.0,0.0,0.0,0.0,0.0,0.0,0.0,0.0,0.0,0.0,0.0,0.0,0.0,0.0,0.0,0.0,0.0,0.0,0.0,-2.6465,-2.709,-2.6328,-2.748,-2.7559,0.0,0.0,0.0,0.0,0.0,0.0,-3.0644,-3.1738,-3.2969,-3.4375,-3.5137,-3.5859,-3.6543,-3.7168,-3.7715,-3.8125,-3.8769,-3.9141,-3.9238,-3.9453,-3.9416,-3.9102,-3.8426,-3.7547,-3.6176,-3.3395,-3.0957,-2.9062,-2.8398,-2.7891,-2.7688,-2.9241,-3.0777,-3.2293,0.0,0.0,0.0,0.0,0.0,0.0,0.0,0.0,0.0,0.0,0.0,-3.1623,-3.3125,-3.4101,-3.5293,-3.6934,-3.6445,-3.5996,-3.5859,-3.3594,-3.2329,-3.2231,-3.1328,-3.1074,-3.1584,-3.4316,-3.7051,-3.9629,-4.1426,-4.2695,-4.3496,-4.4394,-4.4336,-4.3535,-4.3906,-4.2383,-3.9258,-3.5137,-3.4043,-3.4746,-3.1016,0.0,0.0,0.0,0.0,0.0,0.0,0.0,0.0,0.0,0.0,0.0,0.0,0.0,0.0,0.0,0.0,0.0,0.0,0.0,0.0,0.0,0.0,0.0,0.0,0.0,0.0,0.0,0.0,0.0,0.0,0.0,0.0,0.0,0.0,0.0,0.0,0.0,0.0,-2.7773,-3.0137,0.0,0.0,0.0,0.0,-3.0566,-3.1426,-3.248,-3.3769,-3.4297,-3.5332,-3.7051,-3.7539,-3.8379,-3.9668,-3.9707,-3.9941,-4.0351,-4.041,-4.0644,-4.1035,-4.0644,-4.1214,-4.2293,-4.0017,-3.9129,-3.8946,-3.5431,-3.293,-3.123,-2.9961,-2.9199,-2.9075,-3.1322,-3.2577,-3.3538,0.0,0.0,0.0,0.0,0.0,0.0,0.0,0.0,-2.9944,-3.0953,-3.1938,-3.3066,-3.4531,-3.6934,-3.8809,-3.9707,-4.0508,-4.0137,-3.8203,-3.6191,-3.569,-3.6865,-3.3781,-3.3086,-3.5195,-3.7383,-3.9648,-4.1953,-4.3945,-4.5215,-4.5781,-4.6113,-4.6074,-4.5762,-4.5391,-4.4473,-4.2949,-3.918,-3.6562,-3.4746,-3.2539,-3.0879,0.0,0.0,0.0,0.0,0.0,0.0,0.0,0.0,0.0,0.0,0.0,0.0,0.0,0.0,0.0,0.0,0.0,0.0,0.0,0.0,0.0,0.0,0.0,0.0,0.0,0.0,0.0,0.0,0.0,0.0,0.0,0.0,0.0,0.0,0.0,0.0,0.0,-3.0605,-3.2988,0.0,0.0,-3.1875,-3.2402,-3.3281,-3.3906,-3.4922,-3.6465,-3.7207,-3.8144,-3.9336,-3.9785,-4.0234,-4.0723,-4.0723,-4.1376,-4.2829,-4.2829,-4.2911,-4.3055,-4.2604,-4.2431,-4.2523,-3.9945,-3.9779,-4.124,-3.857,-3.5988,-3.3776,-3.1979,-3.2125,-3.3225,-3.3498,-3.4713,-3.6284,0.0,0.0,0.0,0.0,0.0,0.0,0.0,0.0,-2.9767,-3.1023,-3.2615,-3.4355,-3.6269,-3.9414,-4.1738,-4.2617,-4.3183,-4.2519,-4.0234,-3.8204,-3.7248,-3.7634,-3.4911,-3.4785,-3.7656,-3.9863,-4.1953,-4.3965,-4.582,-4.6875,-4.7148,-4.7305,-4.7285,-4.7129,-4.6719,-4.6211,-4.5508,-4.3086,-3.9883,-3.6309,-3.457,-3.3105,-3.1699,0.0,0.0,0.0,0.0,0.0,0.0,0.0,0.0,0.0,0.0,0.0,0.0,0.0,0.0,0.0,0.0,0.0,0.0,0.0,0.0,0.0,0.0,0.0,0.0,0.0,0.0,0.0,0.0,0.0,0.0,0.0,0.0,0.0,0.0,0.0,-3.2637,-3.2793,-3.5351,-3.6348,-3.4473,-3.4824,-3.5449,-3.6172,-3.6777,-3.7676,-3.8945,-3.9551,-4.0137,-4.0723,-4.1035,-4.1172,-4.1172,-4.1172,-4.2196,-4.4096,-4.4096,-4.4377,-4.5105,-4.4632,-4.4452,-4.4364,-4.1749,-4.1786,-4.3385,-4.1219,-3.9282,-3.7561,-3.5407,-3.5157,-3.6273,-3.5813,-3.6657,-3.7987,0.0,0.0,0.0,0.0,0.0,0.0,0.0,-2.8672,-2.9258,-3.0117,-3.2539,-3.5312,-3.832,-4.1367,-4.3867,-4.5586,-4.4141,-4.2754,-4.1875,-3.9271,-3.6643,-3.4289,-3.459,-3.6074,-3.8672,-4.1641,-4.4004,-4.5762,-4.7012,-4.7617,-4.7637,-4.8027,-4.8008,-4.7637,-4.8047,-4.7754,-4.6933,-4.6543,-4.3945,-3.9863,-3.7226,-3.5879,-3.5078,0.0,0.0,0.0,0.0,0.0,0.0,0.0,0.0,0.0,0.0,0.0,0.0,0.0,0.0,0.0,0.0,0.0,0.0,0.0,0.0,0.0,0.0,0.0,0.0,0.0,0.0,0.0,0.0,0.0,0.0,0.0,0.0,0.0,-2.9668,-3.2598,-3.4629,-3.4277,-3.7226,-3.8457,-3.6387,-3.7695,-3.8848,-3.9258,-4.0059,-4.0742,-4.1172,-4.1172,-4.1172,-4.1172,-4.1172,-4.1172,-4.1172,-4.1172,-4.2196,-4.4247,-4.4226,-4.5254,-4.7006,-4.6491,-4.6996,-4.8207,-4.5711,-4.4913,-4.5277,-4.3408,-4.2775,-4.2682,-4.0076,-3.8522,-3.7904,-3.8225,-3.8394,-3.8515,0.0,0.0,0.0,0.0,0.0,0.0,0.0,-2.9121,-2.9824,-3.0996,-3.4219,-3.7441,-4.0156,-4.3418,-4.5859,-4.6953,-4.5215,-4.3535,-4.2324,-3.8635,-3.6261,-3.5488,-3.8586,-4.0949,-4.2246,-4.4043,-4.5801,-4.7519,-4.8183,-4.8516,-4.8516,-4.8633,-4.8613,-4.8516,-4.8633,-4.8379,-4.7851,-4.7734,-4.6465,-4.4238,-4.0703,-3.8281,-3.6504,0.0,0.0,0.0,0.0,0.0,0.0,0.0,0.0,0.0,0.0,0.0,0.0,0.0,0.0,0.0,0.0,0.0,0.0,0.0,0.0,0.0,0.0,0.0,0.0,0.0,0.0,0.0,0.0,0.0,0.0,0.0,0.0,-3.1562,-3.1875,-3.4336,-3.6543,-3.7656,-3.9746,-4.0742,-3.9844,-4.0449,-4.0957,-4.1074,-4.1035,-4.1172,-4.1601,-4.1348,-4.1172,-4.1172,-4.1172,-4.1172,-4.1172,-4.1172,-4.2943,-4.6146,-4.5794,-4.6838,-4.9201,-4.7912,-4.7604,-4.8159,-4.5119,-4.5069,-4.7082,-4.4872,-4.4051,-4.3831,-4.0716,-4.0569,-4.1891,-4.0009,-3.9588,-3.9873,0.0,0.0,0.0,0.0,0.0,0.0,0.0,-2.956,-3.0108,-3.2471,-3.5376,-3.8281,-4.0898,-4.3926,-4.5957,-4.6465,-4.4707,-4.2793,-4.0937,-3.7812,-3.676,-3.8528,-4.0868,-4.2857,-4.4199,-4.5879,-4.7305,-4.8476,-4.8926,-4.9238,-4.9394,-4.9023,-4.9043,-4.9394,-4.9023,-4.8828,-4.875,-4.8555,-4.7949,-4.6855,-4.4062,-4.1641,-3.9394,-3.6523,-3.4922,-3.4023,-3.2695,-3.2148,-3.1836,-3.0469,0.0,0.0,0.0,0.0,0.0,0.0,0.0,0.0,0.0,0.0,0.0,0.0,0.0,0.0,0.0,0.0,0.0,0.0,0.0,0.0,0.0,0.0,0.0,0.0,-3.2246,-3.4121,-3.5078,-3.6523,-3.8047,-3.957,-4.0957,-4.1699,-4.1465,-4.1973,-4.2266,-4.207,-4.2012,-4.1992,-4.2051,-4.1836,-4.1621,-4.1445,-4.2166,-4.2531,-4.2503,-4.3228,-4.5127,-4.8217,-4.7918,-4.8826,-5.0774,-4.9767,-4.9255,0.0,-4.6656,-4.6553,-4.7708,-4.6044,-4.5182,0.0,0.0,0.0,0.0,0.0,-4.0474,-4.0425,0.0,0.0,0.0,0.0,0.0,0.0,0.0,-2.9944,-3.0306,-3.3997,-3.6062,-3.8223,-4.0684,-4.3262,-4.4824,-4.4863,-4.3281,-4.1269,-3.8887,-3.7344,-3.8286,-4.2076,-4.2246,-4.3203,-4.5273,-4.7266,-4.8516,-4.9004,-4.9394,-4.9805,-5.0156,-4.9375,-4.9433,-5.0137,-4.9355,-4.9238,-4.957,-4.9121,-4.8711,-4.8242,-4.6953,-4.5176,-4.2891,-3.9199,-3.791,-3.7754,-3.5371,-3.4023,-3.3223,-3.2207,0.0,0.0,0.0,0.0,0.0,0.0,0.0,0.0,0.0,0.0,0.0,0.0,0.0,0.0,0.0,0.0,0.0,0.0,0.0,0.0,0.0,0.0,0.0,0.0,-3.459,-3.6836,-3.8555,-3.8828,-3.9316,-4.0527,-4.1387,-4.1875,-4.1875,-4.2598,-4.291,-4.2519,-4.2812,-4.2851,-4.2519,0.0,0.0,0.0,0.0,-4.4537,-4.4377,-4.6146,-4.8049,-4.9961,-4.9842,-5.061,-5.2076,-5.1398,-5.0845,-5.0368,-4.9264,-4.8435,-4.7832,-4.6753,-4.5924,-4.5246,-4.4744,-4.389,-4.2836,-4.1756,-4.1028,-4.0526,0.0,0.0,0.0,0.0,0.0,0.0,0.0,-3.0409,-3.0764,-3.4378,-3.6262,-3.7871,-3.9414,-4.1894,-4.3594,-4.3926,-4.2402,-4.0918,-3.9726,-3.9648,-4.0484,-4.2309,-4.4013,-4.5605,-4.7051,-4.8164,-4.9121,-4.9922,-5.0019,-5.0098,-5.0176,-5.0,-5.0019,-5.0176,-5.0,-4.9961,-5.0019,-4.959,-4.9355,-4.916,-4.7851,-4.625,-4.4375,-4.1875,-4.0117,-3.8789,-3.7598,-3.707,-3.6641,-3.4726,-3.4394,-3.4336,-3.1797,-3.0469,0.0,0.0,0.0,0.0,0.0,0.0,0.0,0.0,0.0,0.0,0.0,0.0,0.0,0.0,0.0,0.0,0.0,0.0,0.0,-3.3867,-3.6094,-3.8164,-3.9902,-4.0449,-4.0898,-4.1484,-4.1992,-4.2305,-4.2305,-4.2773,-4.3047,-4.2949,-4.2695,-4.2676,-4.293,-4.2617,0.0,-4.404,-4.4461,-4.5297,-4.6441,-4.6735,-4.8049,-4.9961,0.0,0.0,-5.2051,-5.0594,-5.0092,-5.0368,-4.9264,-4.8435,-4.7832,-4.6753,-4.5447,-4.4116,-4.3991,-4.3564,-4.2836,-4.1756,-4.1279,-4.1028,0.0,0.0,0.0,0.0,0.0,0.0,0.0,-3.1692,-3.1911,-3.5349,-3.6328,-3.6949,-3.7602,-3.9659,-4.0803,-4.0308,-3.9023,-3.873,-3.9824,-4.0488,-4.209,-4.4883,-4.625,-4.7656,-4.916,-4.9609,-5.0254,-5.1133,-5.0918,-5.0918,-5.1133,-5.0703,-5.0605,-5.0781,-5.0371,-5.0293,-5.0469,-5.0039,-4.9726,-4.9453,-4.8574,-4.7461,-4.6074,-4.3926,-4.2285,-4.0996,-3.9941,-3.9277,-3.8652,-3.6894,-3.6191,-3.5684,-3.373,-3.2226,-3.1016,0.0,0.0,0.0,0.0,0.0,0.0,0.0,0.0,0.0,0.0,0.0,0.0,0.0,0.0,-3.0098,0.0,0.0,-3.4336,-3.6035,-3.7773,-3.9375,-4.0664,-4.1035,-4.1328,-4.1758,-4.2168,-4.25,-4.2734,-4.3144,-4.3496,-4.3711,-4.332,-4.3262,-4.3711,-4.3105,-4.348,-4.4991,-4.5791,-4.6928,-4.8506,-4.9534,-5.029,-5.1027,-5.0489,-5.053,-5.1222,-5.0092,-4.959,-4.954,-4.8435,-4.7782,-4.7405,-4.605,-4.4468,-4.2986,-4.2986,-4.2811,-4.2434,-4.1329,-4.0927,-4.0802,0.0,0.0,0.0,0.0,0.0,0.0,0.0,-3.2813,-3.298,-3.6045,-3.66,-3.6455,-3.5904,-3.778,-3.8357,-3.6816,-3.6423,-3.7409,-4.0078,-4.123,-4.3613,-4.7656,-4.8242,-4.9238,-5.0898,-5.0918,-5.1348,-5.2207,-5.1855,-5.1855,-5.2187,-5.1504,-5.1348,-5.1641,-5.0879,-5.0742,-5.1016,-5.0508,-5.0098,-4.9726,-4.9199,-4.8476,-4.748,-4.5527,-4.4121,-4.3027,-4.1758,-4.0586,-3.9473,-3.8418,-3.7207,-3.6016,-3.5215,-3.3906,-3.2461,-3.1445,-3.0449,0.0,0.0,0.0,0.0,0.0,0.0,0.0,0.0,0.0,-2.9512,-3.0703,-3.166,-3.2578,-3.3613,-3.5215,-3.6777,-3.7969,-3.9219,-4.0293,-4.1055,-4.1172,-4.1484,-4.2191,-4.2308,-4.2598,-4.3027,-4.3765,-4.4489,-4.4885,-4.4858,-4.5146,-4.5528,-4.4764,-4.5036,-4.6566,-4.7737,-4.9014,-5.0576,-5.2189,-5.2703,-5.2251,-5.2051,-5.1473,-5.0569,-4.9791,-4.9188,-4.8711,-4.7506,-4.6778,-4.6376,-4.4895,-4.3388,-4.1982,-4.1882,-4.1831,-4.1731,-4.0852,-4.0526,-4.0425,0.0,0.0,0.0,0.0,0.0,0.0,0.0,0.0,-3.3215,-3.5601,-3.6905,-3.7132,-3.5749,-3.7652,-3.8441,-3.7058,-3.8574,-4.0164,-4.1563,-4.3125,-4.543,-4.8574,-4.9141,-5.0,-5.1328,-5.1367,-5.1777,-5.2637,-5.2598,-5.2598,-5.2637,-5.2539,-5.2519,-5.2539,-5.209,-5.1894,-5.1894,-5.1074,-5.0703,-5.0586,-4.9785,-4.8926,-4.7988,-4.6621,-4.5078,-4.3476,-4.2187,-4.043,-3.8691,-3.8555,-3.7656,-3.6504,-3.6016,-3.5195,-3.4101,-3.25,-3.1133,-2.9941,-2.9082,-2.8613,-2.8516,-2.9199,-2.9355,-2.9863,0.0,0.0,-3.2559,-3.3457,-3.4336,-3.5,-3.5137,-3.6562,-3.8008,-3.8906,-3.9844,-4.0625,-4.1113,-4.1172,-4.1911,-4.4112,-4.3218,-4.2598,-4.3027,-4.519,-4.6405,-4.6467,-4.8302,-4.9383,-4.9293,-4.8763,-4.9153,-5.0624,-5.0402,-5.1081,-5.2491,-5.2767,-5.2904,-5.2829,-5.185,-5.1297,-5.1147,-4.9565,-4.8837,-4.8686,-4.7079,-4.5547,-4.4116,-4.3438,-4.2484,-4.1379,-4.0902,-4.0701,-4.0676,-4.0551,-4.0526,-4.0425,0.0,0.0,0.0,0.0,0.0,0.0,0.0,0.0,0.0,-3.549,-3.6789,-3.6725,-3.4445,-3.5838,-3.701,-3.7219,-3.8274,-3.9815,-4.1817,-4.3949,-4.6484,-4.9492,-5.0039,-5.0879,-5.2148,-5.1933,-5.2363,-5.3476,-5.3223,-5.3086,-5.3086,-5.3086,-5.2949,-5.2695,-5.2266,-5.209,-5.2051,-5.1426,-5.1035,-5.0762,-5.0156,-4.9219,-4.8047,-4.6523,-4.4551,-4.2422,-4.1152,-3.9941,0.0,-3.75,-3.6894,-3.6562,-3.5879,-3.5039,-3.4043,-3.2598,-3.1426,-3.0469,-2.9844,-2.9531,-2.9609,0.0,-3.1074,-3.1875,-3.3535,-3.4121,-3.4629,-3.5723,-3.6641,-3.7324,-3.7559,-3.8613,-3.9551,0.0,-4.0488,-4.0976,-4.1152,-4.1172,-4.1345,-4.1887,-4.2981,-4.444,-4.6405,-4.7561,-4.8379,-4.8945,-4.9673,-4.9986,-4.983,-4.9093,-4.9479,-5.091,-5.0556,-5.1075,-5.2929,-5.2929,-5.2754,-5.2452,-5.1649,-5.1096,-5.072,-4.9038,-4.7757,-4.6828,-4.6125,-4.507,-4.379,-4.3564,-4.261,-4.1304,-4.1078,-4.0601,-4.0049,-4.0049,-4.0049,-3.9998,0.0,0.0,0.0,0.0,0.0,0.0,0.0,0.0,0.0,0.0,-3.7156,-3.7263,-3.5178,-3.5836,-3.6811,-3.7453,-3.7878,-3.9038,-4.14,-4.3519,-4.623,-4.9492,-5.0391,-5.1465,-5.2851,-5.2715,-5.3203,-5.4375,-5.3945,-5.373,-5.373,-5.3613,-5.3379,-5.3047,-5.2617,-5.2363,-5.2226,-5.1797,-5.1308,-5.0762,-5.0351,-4.9238,-4.7656,-4.582,-4.3535,-4.1113,-3.9941,-3.8769,-3.7559,-3.5996,-3.5527,-3.5508,-3.5,-3.4414,-3.3672,-3.25,-3.1465,-3.0644,-3.0449,-3.0566,0.0,-3.1973,-3.2969,-3.4023,-3.5293,-3.5937,-3.6601,-3.7773,-3.8516,-3.9043,-3.9336,-4.0019,-4.0527,-4.0527,-4.0879,-4.1172,-4.1172,-4.0976,-4.0892,-4.0674,-4.2508,-4.4913,-4.7976,-4.9163,-5.0102,-5.083,-5.1171,-5.1291,-5.1116,-5.0434,-5.0373,-5.1488,-5.0982,-5.1443,-5.2929,-5.2929,-5.2729,-5.2327,-5.1624,-5.0971,-5.0343,-4.836,-4.6753,-4.5472,-4.5171,-4.4392,-4.3338,-4.3187,-4.2233,-4.0877,-4.0877,-4.04,-3.9672,-3.9521,-3.9572,-3.9672,0.0,0.0,0.0,0.0,0.0,0.0,0.0,0.0,0.0,0.0,0.0,0.0,0.0,-3.9569,-3.9025,-3.7583,-3.7679,-3.8499,-4.0111,-4.1569,-4.4238,-4.8105,-4.9902,-5.1601,-5.3301,-5.375,-5.4394,-5.5273,-5.4844,-5.4648,-5.4629,-5.4199,-5.4004,-5.3965,-5.3516,-5.3086,-5.2656,-5.2246,-5.1582,-5.0762,-5.0351,-4.8887,-4.6738,-4.457,-4.2168,-3.9844,-3.8945,-3.6719,-3.4219,-3.416,-3.3594,-3.2988,-3.3359,-3.3457,-3.3281,-3.2422,-3.125,-3.0312,-3.0762,0.0,-3.2402,-3.3672,-3.4961,-3.625,-3.7539,-3.8164,-3.873,-3.9629,-3.9844,-3.9863,-3.9883,-4.0234,-4.0527,-4.0527,-4.0879,-4.1172,-4.1172,-4.0449,-4.0634,-4.2439,-4.212,-4.2784,0.0,-4.9166,-5.1384,-5.1431,-5.325,-5.447,-5.447,-5.3894,-5.3568,-5.3543,-5.3067,-5.2792,-5.2929,-5.2929,-5.2929,-5.2879,-5.18,-5.0971,-5.0318,-4.7606,-4.605,-4.5422,-4.4342,-4.3212,-4.2158,-4.163,-4.0752,-3.9747,-3.9747,-3.9722,-3.9622,-3.9094,-3.922,-3.9622,0.0,0.0,0.0,0.0,0.0,0.0,0.0,0.0,0.0,0.0,0.0,0.0,0.0,0.0,0.0,0.0,-3.9155,-3.9484,-3.9866,-4.1855,-4.3619,-4.4707,-4.7558,-4.9629,-5.0801,-5.1797,-5.2734,-5.3574,-5.3437,-5.3516,-5.3808,-5.3652,-5.3574,-5.3574,-5.3125,-5.2695,-5.2246,-5.1543,-5.1562,-5.1855,-4.9433,-4.8359,-4.7812,-4.3926,-4.1436,-3.9739,0.0,-3.5882,-3.3476,-3.2344,-3.1953,-3.1875,-3.1426,-3.1484,-3.1621,-3.1035,-3.0957,-3.1289,-3.2305,0.0,-3.4687,-3.623,-3.7168,-3.8047,-3.9355,-3.9766,-3.9863,-3.9883,-3.9434,-3.8848,-3.8281,-3.8516,-3.8887,-3.918,-4.0078,-4.084,-4.1133,-4.0918,-4.1032,-4.1668,-4.3486,0.0,0.0,0.0,0.0,-5.0936,-5.1778,-5.2661,-5.3984,-5.3808,-5.3557,-5.3206,-5.303,-5.2929,-5.2929,-5.2929,-5.2754,-5.2377,-5.1247,-5.0017,-4.8711,-4.7431,-4.615,-4.4869,-4.4116,-4.3388,-4.266,-4.2108,-4.1455,-4.0752,-4.0375,-4.0023,-3.9622,-3.9069,-3.8994,-3.9069,0.0,0.0,0.0,0.0,0.0,0.0,0.0,0.0,0.0,0.0,0.0,0.0,0.0,0.0,0.0,0.0,0.0,-3.9268,-3.9891,-4.1337,-4.2439,-4.3258,-4.5838,-4.7824,-4.8898,-4.957,-5.0661,-5.2222,-5.1509,-5.1797,-5.2867,-5.2286,-5.1992,-5.1992,-5.2012,-5.1699,-5.1133,-5.041,-5.0594,-5.1061,-4.8016,-4.7007,-4.702,-4.2871,-4.051,0.0,-3.7167,-3.5491,-3.3858,-3.2266,-3.1503,-3.1172,-3.043,-3.041,-3.0644,-3.0664,-3.1387,-3.2519,-3.3965,-3.541,-3.6875,-3.8281,-3.9062,-3.9726,-4.0566,-4.0644,-4.0312,-3.957,-3.873,-3.7754,-3.6582,-3.6582,-3.6914,-3.7363,-3.8398,-3.9512,-4.0566,-4.1039,-4.1441,-4.2042,-4.4124,-4.564,0.0,0.0,0.0,-5.1119,-5.1576,-5.2263,-5.3406,-5.3432,-5.3281,-5.2929,-5.2929,-5.2929,-5.2929,-5.2729,-5.2251,-5.1498,-5.0368,-4.9163,-4.7883,-4.6954,-4.5849,-4.4593,-4.4041,-4.3263,-4.2359,-4.2007,-4.143,-4.0701,-4.035,-3.9998,-3.9622,-3.9069,-3.8743,-3.8492,0.0,0.0,0.0,0.0,0.0,0.0,0.0,0.0,0.0,0.0,0.0,0.0,0.0,0.0,0.0,0.0,0.0,0.0,-3.9823,-3.9846,-4.0912,-4.339,-4.4721,-4.603,-4.7419,-4.735,-4.8656,-5.1122,-4.9174,-4.9424,-5.1473,-4.9991,-4.9306,-4.9346,-5.0169,-5.0051,-4.9248,-4.8797,-4.8731,-4.8731,-4.6223,-4.5057,-4.4387,-4.1441,-3.9383,-3.7762,-3.6451,-3.5714,-3.5068,-3.362,-3.2092,-3.082,-3.0391,-3.0273,-3.0449,-3.1367,-3.2559,-3.3926,-3.5684,-3.7383,-3.8887,-3.9746,-4.0566,-4.1172,-4.1113,-4.0762,-4.0039,-3.8711,-3.7715,-3.6543,0.0,0.0,-3.4805,-3.5312,-3.6328,-3.7681,-3.9837,-4.1109,-4.2285,0.0,0.0,0.0,0.0,0.0,0.0,-5.1705,0.0,-5.2717,-5.2929,-5.2929,-5.2929,-5.2929,-5.2904,-5.2879,-5.2879,-5.2302,-5.1473,-5.0393,-4.9289,-4.846,-4.7857,-4.6225,-4.5171,-4.4593,-4.3991,-4.2836,-4.1379,-4.1329,-4.0676,-3.9747,-3.9697,-3.9697,-3.9622,-3.9069,-3.8517,-3.7914,0.0,0.0,0.0,0.0,0.0,0.0,0.0,0.0,0.0,0.0,0.0,0.0,0.0,0.0,0.0,0.0,0.0,0.0,-3.8214,-3.929,-3.9848,-3.9339,-4.1768,-4.3512,-4.4255,-4.5031,-4.6051,-4.7028,-4.6566,-4.684,-4.7654,-4.7305,-4.7048,-4.7069,-4.7301,-4.709,-4.6522,-4.6037,-4.6478,-4.7183,-4.4267,-4.3586,-4.4058,-4.0693,-3.9421,-3.9383,-3.8361,-3.692,-3.5068,0.0,0.0,0.0,0.0,-3.1172,-3.1484,-3.2988,-3.4336,-3.5742,-3.7461,-3.8945,-4.0156,-4.0703,-4.1016,-4.0996,-4.0371,-3.9629,-3.8613,-3.6992,-3.5215,-3.3613,0.0,0.0,0.0,-3.5215,-3.8384,0.0,-4.3408,-4.5105,0.0,0.0,0.0,-4.8915,-4.9707,-5.0014,0.0,0.0,-5.0528,-5.0587,-5.2742,-5.2929,-5.2929,-5.2929,-5.2528,-5.2302,-5.2302,-5.1348,-5.0695,-5.0393,-4.9289,-4.846,-4.7857,-4.6225,-4.5171,-4.4543,-4.3162,-4.2333,-4.1882,-4.1053,-4.0551,-4.0275,-3.9848,-3.9697,-3.9622,-3.9069,-3.8517,-3.7914,0.0,0.0,0.0,0.0,0.0,0.0,0.0,0.0,0.0,0.0,0.0,0.0,0.0,0.0,0.0,0.0,0.0,0.0,0.0,-3.9382,-3.969,-3.8958,-4.0336,-4.1399,-4.1908,-4.2431,-4.3318,-4.4833,-4.3894,-4.4183,-4.5505,-4.487,-4.4525,-4.4547,-4.4836,-4.4917,-4.4438,-4.3937,-4.4387,0.0,0.0,-4.2116,-4.3136,-4.0432,-3.9623,-3.9854,-3.9382,-3.7543,0.0,0.0,0.0,-3.2109,-3.2715,-3.3184,-3.3789,-3.5312,0.0,-3.7754,-3.9297,-4.0527,-4.1367,-4.1426,-4.1308,-4.0801,-3.9355,-3.8496,-3.7305,-3.4844,-3.3359,0.0,-3.0644,0.0,0.0,0.0,0.0,0.0,-4.2616,-4.5706,-4.818,0.0,-5.1297,0.0,-5.2666,-5.2578,-5.2553,0.0,-5.127,-5.1108,-5.2742,-5.2929,-5.2929,-5.2929,-5.2402,-5.1875,-5.1373,-5.0745,-5.0167,-4.969,-4.8812,-4.8109,-4.7531,-4.6125,-4.5171,-4.4543,0.0,-4.2233,-4.1731,-4.0877,-4.0375,-4.0124,-3.9823,-3.9697,-3.9647,-3.9346,-3.8718,-3.7965,0.0,0.0,0.0,0.0,0.0,0.0,0.0,0.0,0.0,0.0,0.0,0.0,0.0,0.0,0.0,0.0,0.0,0.0,0.0,0.0,0.0,-4.0375,-3.9948,-3.9923,-4.04,-3.9948,-4.0877,-4.3263,-4.1456,-4.1779,-4.4104,-4.2577,-4.1993,-4.2037,-4.277,-4.2926,-4.2482,-4.2171,-4.2434,-4.3127,-4.0857,-4.0716,-4.1681,0.0,-3.9697,-3.9697,-3.9465,0.0,0.0,0.0,-3.583,-3.3769,-3.4805,-3.5742,-3.6699,-3.8047,-3.8965,-3.9824,-4.1152,-4.2051,-4.248,-4.1992,-4.1523,-4.0586,-3.8359,-3.7344,-3.5957,-3.2754,0.0,-3.127,-2.9479,-2.978,-3.1015,-3.2981,0.0,-3.7169,-4.1103,-4.5487,-4.8781,-4.992,-5.3276,-5.5189,-5.4712,-5.3683,-5.3231,-5.3658,-5.3231,-5.2929,-5.2929,-5.2929,-5.2904,-5.2829,-5.2277,-5.1498,-5.0419,-5.0343,-4.9791,-4.8761,-4.8184,-4.7631,-4.7104,-4.5924,-4.5095,-4.4543,-4.3313,0.0,-4.1279,-4.0651,-4.0124,-3.9697,-3.9697,-3.9697,-3.9697,-3.9697,-3.9019,-3.8115,0.0,0.0,0.0,0.0,0.0,0.0,0.0,0.0,0.0,0.0,-3.922,-3.9069,0.0,0.0,0.0,0.0,0.0,0.0,0.0,0.0,0.0,-3.9823,-3.9747,-3.9747,-3.9848,-3.9747,-3.9923,-4.04,-4.0059,-4.0096,-4.0542,-4.0291,-4.0123,-4.0123,-4.0318,-4.0343,-4.0245,-4.0147,-4.0242,-4.0368,-3.9897,-3.986,-4.0099,-3.9798,0.0,0.0,0.0,0.0,0.0,0.0,-3.5677,-3.4805,-3.6758,-3.7949,-3.8984,-4.0644,-4.123,-4.1621,-4.291,-4.3379,-4.3301,-4.2519,-4.1738,-4.0508,-3.7988,-3.5976,0.0,0.0,-3.0488,-2.9688,-3.0463,-3.069,0.0,-3.5432,0.0,0.0,0.0,0.0,-5.3805,0.0,0.0,0.0,0.0,0.0,0.0,0.0,0.0,-5.2929,-5.2929,-5.2929,-5.2729,-5.2251,-5.1699,-5.1096,-5.0419,-4.9967,-4.9414,-4.8761,-4.8184,-4.7631,-4.7079,-4.5497,-4.4719,-4.4518,-4.2509,0.0,-4.1254,-4.0249,-3.9772,-3.9697,-3.9697,-3.9697,-3.9697,-3.9697,-3.927,-3.8718,0.0,0.0,0.0,0.0,0.0,0.0,0.0,0.0,-3.8316,-4.03,-4.0576,-4.035,-3.9772,-3.9446,0.0,0.0,0.0,0.0,0.0,0.0,0.0,0.0,0.0,0.0,0.0,-3.9697,0.0,0.0,0.0,-3.9848,-4.0124,-3.9823,-3.9697,-3.9697,-3.9697,-3.9697,-3.9697,-3.9697,-3.9697,-3.9697,-3.9697,-3.9697,-3.9697,0.0,0.0,0.0,0.0,0.0,0.0,0.0,-3.7274,-3.6475,-3.8117,-3.9336,-4.0527,-4.2031,-4.2617,-4.3066,-4.4375,-4.4726,-4.4473,-4.3359,-4.1953,-3.998,-3.6699,0.0,0.0,0.0,-2.9888,-3.0105,-3.0601,0.0,0.0,0.0,0.0,0.0,0.0,0.0,0.0,0.0,0.0,0.0,0.0,0.0,0.0,0.0,0.0,-5.2929,-5.2929,-5.2929,-5.2678,-5.2126,-5.1574,-5.0996,-5.0419,-4.9866,-4.9163,-4.8309,-4.8033,-4.733,-4.6225,-4.5121,-4.4468,-4.4091,-4.2484,0.0,-4.1279,-4.045,-3.9948,-3.9697,-3.9697,-3.9697,-3.9697,-3.9697,-3.9346,-3.8868,0.0,0.0,0.0,0.0,0.0,0.0,0.0,-3.8291,-3.912,-4.1229,-4.1982,-4.1706,-4.0049,-3.9597,-3.9195,0.0,0.0,0.0,0.0,0.0,0.0,0.0,0.0,0.0,0.0,0.0,0.0,0.0,0.0,0.0,0.0,0.0,0.0,0.0,-3.9697,-3.9697,-3.9697,-3.9697,-3.9697,0.0,0.0,-3.9697,0.0,0.0,0.0,0.0,0.0,0.0,0.0,0.0,-3.8896,-3.7884,-3.9009,-4.0246,-4.1367,-4.2383,-4.3301,-4.4258,-4.5469,-4.5879,-4.5605,-4.4199,-4.2168,-3.9531,-3.5723,-3.473,0.0,0.0,-3.0178,-3.1272,-3.1197,0.0,0.0,0.0,0.0,0.0,0.0,0.0,0.0,0.0,0.0,0.0,0.0,0.0,0.0,0.0,0.0,0.0,-5.2929,-5.2804,-5.2553,-5.2126,-5.1448,-5.087,-5.0419,-4.9866,-4.9088,-4.8083,-4.7958,-4.7129,-4.5648,-4.4945,-4.4317,-4.374,-4.2635,0.0,0.0,-4.0752,-4.0199,-3.9697,-3.9697,-3.9697,-3.9697,-3.9697,-3.9421,-3.9044,0.0,0.0,0.0,0.0,0.0,0.0,0.0,-3.8157,-4.0149,-4.1856,-4.2559,-4.2283,-4.0626,-4.0852,-4.03,0.0,0.0,0.0,0.0,0.0,0.0,0.0,0.0,0.0,0.0,0.0,0.0,0.0,0.0,0.0,0.0,0.0,0.0,0.0,0.0,0.0,-3.9697,-3.9697,0.0,0.0,0.0,0.0,0.0,0.0,0.0,0.0,0.0,0.0,0.0,0.0,0.0,-3.7945,-3.9318,-4.0427,-4.1191,-4.1308,0.0,0.0,-4.5996,-4.6523,-4.6406,-4.4746,-4.2422,-3.9609,-3.6133,0.0,-3.3122,-3.1141,-3.1456,-3.26,-3.3773,-3.3412,0.0,0.0,0.0,-4.1472,0.0,0.0,0.0,0.0,0.0,0.0,0.0,0.0,0.0,0.0,0.0,0.0,-5.2929,-5.2452,-5.2151,-5.2101,-5.1071,-5.0469,-5.0419,-4.9866,-4.9289,-4.8686,-4.8159,-4.733,-4.62,-4.5121,-4.4317,-4.374,-4.2635,0.0,0.0,-4.0752,-4.0199,-3.9697,-3.9697,-3.9697,-3.9697,-3.9697,-3.9672,-3.9622,0.0,0.0,0.0,0.0,0.0,0.0,0.0,-3.803,-4.0023,-4.2359,-4.3413,-4.3463,-4.2133,-4.1907,-4.0651,0.0,0.0,0.0,0.0,0.0,0.0,0.0,0.0,0.0,0.0,0.0,0.0,0.0,0.0,0.0,0.0,0.0,0.0,0.0,0.0,0.0,0.0,0.0,0.0,0.0,0.0,0.0,0.0,0.0,0.0,0.0,0.0,0.0,0.0,0.0,0.0,0.0,-3.8367,-3.9147,0.0,0.0,-4.2425,-4.3496,-4.541,-4.6426,-4.6523,-4.4824,-4.2051,-3.9033,-3.6716,0.0,-3.3573,-3.2049,-3.269,-3.3773,-3.4288,-3.4035,-3.4816,0.0,0.0,0.0,0.0,0.0,0.0,0.0,0.0,0.0,0.0,0.0,0.0,0.0,0.0,0.0,-5.2452,-5.2226,-5.195,-5.1624,-5.0845,-5.0419,-5.0419,-4.954,-4.8812,-4.8234,-4.7707,-4.6702,-4.5271,-4.4819,-4.4141,-4.3288,-4.2836,0.0,0.0,-4.1103,-4.0501,-3.9697,-3.9697,-3.9697,-3.9697,-3.9697,-3.9697,-3.9697,0.0,0.0,0.0,0.0,0.0,-3.3085,-3.5596,-3.78,-3.9923,-4.2183,-4.3589,-4.3966,-4.2861,-4.2108,-4.0601,-3.7914,0.0,0.0,0.0,0.0,0.0,0.0,0.0,0.0,0.0,0.0,0.0,-3.9697,-3.9697,0.0,0.0,0.0,0.0,0.0,0.0,0.0,0.0,0.0,0.0,0.0,0.0,0.0,0.0,0.0,0.0,0.0,0.0,0.0,0.0,0.0,0.0,0.0,0.0,0.0,0.0,0.0,-4.1117,-4.2467,-4.4111,-4.5332,-4.5859,-4.4531,-4.1778,-3.8926,0.0,0.0,-3.4547,-3.3151,-3.4068,-3.4969,-3.4969,-3.4969,-3.5576,-3.7515,-3.7889,-3.912,-4.2283,0.0,0.0,0.0,0.0,0.0,0.0,0.0,0.0,0.0,0.0,0.0,0.0,-5.185,-5.1599,-5.1046,-5.0469,-5.0092,-4.9941,-4.9163,-4.8485,-4.7908,-4.738,-4.6351,-4.4869,-4.4694,-4.4016,-4.2961,-4.2811,0.0,0.0,-4.1229,-4.0651,-3.9923,-3.9747,-3.9697,-3.9697,-3.9697,-3.9697,-3.9697,0.0,0.0,0.0,0.0,0.0,0.0,0.0,-3.7228,-4.0099,-4.1204,-4.2785,-4.3388,-4.2283,-4.1178,-4.0074,-3.8944,0.0,0.0,0.0,0.0,0.0,0.0,0.0,0.0,0.0,0.0,-3.9697,-3.9697,-3.9697,-3.9697,-3.9697,0.0,0.0,0.0,0.0,0.0,0.0,0.0,0.0,0.0,0.0,0.0,-3.9697,0.0,0.0,0.0,0.0,0.0,0.0,0.0,0.0,0.0,0.0,-3.8712,-3.7348,-3.6624,-3.9426,-4.2604,-4.2052,-4.3105,-4.4316,-4.3828,-4.1835,-3.9516,0.0,0.0,-3.6057,-3.4718,-3.5475,-3.6358,-3.6358,-3.6358,-3.6533,-3.7111,-3.7638,-3.8994,-4.1781,-4.3112,0.0,0.0,0.0,0.0,0.0,0.0,0.0,0.0,0.0,0.0,0.0,-5.1297,-5.1021,-5.0444,-4.9891,-4.9339,-4.8786,-4.8786,-4.8485,-4.7908,-4.738,-4.6552,-4.5472,-4.4895,-4.4016,0.0,0.0,0.0,0.0,-4.0978,-4.0526,-4.045,-3.9898,-3.9697,-3.9697,-3.9697,-3.9697,-3.9697,0.0,0.0,0.0,0.0,0.0,0.0,0.0,-3.5004,-3.7311,-3.9393,-4.0425,-4.1153,-4.1555,-4.0275,-3.9245,-3.8894,0.0,0.0,0.0,0.0,0.0,0.0,0.0,0.0,0.0,0.0,-3.9697,-3.9697,-3.9697,-3.9697,-3.9697,-3.9697,-3.9697,0.0,0.0,0.0,0.0,0.0,0.0,0.0,0.0,-3.9697,-3.9697,0.0,0.0,0.0,0.0,0.0,0.0,0.0,0.0,0.0,0.0,0.0,0.0,-3.7437,-3.8598,-4.0442,-4.1474,-4.252,-4.3257,-4.2478,-4.0878,-3.9169,-3.8156,0.0,-3.6033,-3.6284,-3.6322,-3.6483,-3.686,-3.6609,-3.6784,-3.8115,-3.8467,-3.917,-4.0802,0.0,0.0,0.0,0.0,0.0,0.0,0.0,0.0,0.0,0.0,0.0,0.0,-5.0921,-5.0444,-4.9866,-4.9314,-4.8937,-4.8761,-4.8033,-4.7556,-4.738,-4.6828,-4.5974,-4.4895,-4.4719,-4.4016,0.0,0.0,0.0,0.0,-4.1379,-4.0852,-4.045,-3.9898,-3.9697,-3.9697,-3.9697,-3.9697,-3.9697,0.0,0.0,0.0,0.0,0.0,0.0,0.0,-3.4369,-3.6505,-3.8041,-3.8718,-3.9496,-4.0601,-3.9245,-3.8417,-3.8843,0.0,0.0,0.0,0.0,0.0,0.0,0.0,0.0,0.0,-3.9697,-3.9798,-3.9998,-4.0199,-4.03,-4.03,-4.03,-4.0199,-3.9998,-3.9798,0.0,0.0,0.0,0.0,0.0,-3.9697,-3.9697,-3.9697,0.0,0.0,0.0,0.0,0.0,0.0,0.0,0.0,0.0,0.0,0.0,0.0,0.0,-3.8745,-3.9469,-4.0262,-4.1287,-4.1943,-4.1527,-4.0479,0.0,0.0,0.0,0.0,-3.7392,-3.7061,-3.6784,-3.7111,-3.6734,-3.6709,-3.7764,-3.8266,-3.8641,-3.8995,0.0,0.0,0.0,0.0,0.0,0.0,0.0,0.0,0.0,0.0,0.0,0.0,-5.0544,-4.9866,-4.9314,-4.8962,-4.856,-4.8159,-4.7481,-4.6928,-4.6502,-4.6175,-4.5397,-4.4317,-4.4317,-4.3815,0.0,0.0,0.0,0.0,-4.143,-4.0953,-4.0752,-3.9998,-3.9697,-3.9697,-3.9697,-3.9697,-3.9697,0.0,0.0,0.0,0.0,0.0,0.0,0.0,0.0,0.0,-3.7136,-3.7563,-3.8291,-3.9346,-3.8065,-3.7538,-3.8592,0.0,0.0,0.0,0.0,0.0,0.0,0.0,0.0,0.0,-3.9697,-3.9948,-4.045,-4.1053,-4.1329,-4.1279,-4.1354,-4.1078,-4.0501,-3.9973,0.0,0.0,0.0,0.0,0.0,-3.9697,-3.9697,0.0,0.0,0.0,0.0,0.0,0.0,0.0,0.0,0.0,0.0,0.0,0.0,0.0,0.0,0.0,0.0,0.0,-3.9432,-4.0462,-4.0884,-4.0418,0.0,0.0,0.0,0.0,0.0,0.0,0.0,-3.7236,-3.6759,-3.6408,-3.6508,-3.7387,-3.7741,-3.674,0.0,0.0,0.0,0.0,0.0,0.0,0.0,0.0,0.0,0.0,0.0,0.0,-5.0193,-4.9314,-4.8736,-4.8711,-4.8209,-4.7154,-4.7054,-4.6502,-4.5497,-4.5447,-4.4844,-4.379,-4.3765,-4.3438,0.0,0.0,0.0,0.0,-4.1153,-4.0827,-4.1178,-4.0099,-3.9697,-3.9697,-3.9697,-3.9697,-3.9697,0.0,0.0,0.0,0.0,0.0,0.0,0.0,0.0,0.0,0.0,-3.6659,-3.686,-3.7111,-3.6784,-3.6659,0.0,0.0,0.0,0.0,0.0,0.0,0.0,0.0,0.0,0.0,-3.9697,-3.9747,-3.9898,-4.0852,-4.1128,-4.0727,-4.158,-4.1455,-4.0501,-4.0375,-4.0099,0.0,0.0,0.0,0.0,-3.9697,-3.9697,0.0,0.0,0.0,0.0,-3.9697,-3.9697,0.0,0.0,0.0,0.0,0.0,0.0,0.0,0.0,-3.9697,-3.9615,-3.9472,0.0,-3.9807,-3.9515,-3.9619,-3.942,0.0,0.0,0.0,0.0,0.0,0.0,0.0,0.0,-3.6784,-3.8065,-3.8492,-3.846,-3.7846,0.0,0.0,0.0,0.0,0.0,0.0,0.0,0.0,0.0,0.0,0.0,0.0,-4.9967,-4.9138,-4.8134,-4.8109,-4.7807,-4.7154,-4.6301,-4.5748,-4.5472,-4.5045,-4.4468,-4.379,-4.3363,-4.2861,0.0,0.0,0.0,-4.1656,-4.0852,-4.0601,-4.0651,-3.9948,-3.9697,-3.9697,-3.9697,-3.9697,-3.9697,0.0,0.0,0.0,0.0,0.0,0.0,0.0,0.0,0.0,0.0,0.0,0.0,0.0,0.0,0.0,0.0,0.0,0.0,0.0,0.0,0.0,0.0,0.0,-3.8542,-3.9672,-3.9697,-3.9823,-4.0074,-4.0927,-4.1304,-4.1279,-4.163,-4.1455,-4.0877,-4.0375,-3.9973,0.0,0.0,0.0,-3.9697,-3.9697,0.0,0.0,0.0,0.0,0.0,-3.9697,-3.9697,0.0,-3.9697,-3.9697,-3.9697,0.0,0.0,0.0,0.0,-3.9697,-3.9697,-3.9697,-3.9697,-3.9622,-3.932,-3.9471,-3.9396,-3.8216,0.0,0.0,0.0,0.0,0.0,0.0,0.0,0.0,-3.7339,-3.7284,-3.7523,0.0,0.0,0.0,0.0,0.0,0.0,0.0,0.0,0.0,0.0,0.0,0.0,0.0,-4.8853,-4.8435,-4.7581,-4.7054,-4.6652,-4.6376,-4.5773,-4.5221,-4.4719,-4.4392,-4.3815,-4.3037,-4.2735,-4.2308,0.0,0.0,0.0,-4.1304,-4.0752,-4.0526,-4.045,-3.9898,-3.9697,-3.9697,-3.9697,-3.9697,-3.9697,0.0,0.0,0.0,0.0,0.0,0.0,0.0,0.0,0.0,0.0,0.0,0.0,0.0,0.0,0.0,0.0,0.0,0.0,0.0,0.0,0.0,0.0,0.0,-3.8542,-3.9672,-3.9697,-3.9923,-4.04,-4.1279,-4.1907,-4.2283,-4.2158,-4.1882,-4.1404,-4.04,-3.9848,0.0,0.0,-3.9697,-3.9697,-3.9697,0.0,0.0,0.0,0.0,0.0,0.0,0.0,0.0,-3.9697,-3.9697,-3.9697,-3.9697,0.0,0.0,0.0,0.0,0.0,-3.9697,-3.954,-3.9436,-3.9287,-3.9519,-3.9521,-3.8666,0.0,0.0,0.0,0.0,0.0,0.0,0.0,0.0,0.0,0.0,0.0,0.0,0.0,0.0,0.0,0.0,0.0,0.0,0.0,0.0,0.0,0.0,0.0,0.0,-4.7474,-4.7657,-4.7154,-4.615,-4.5522,-4.5347,-4.5271,-4.4744,-4.379,-4.3639,-4.3062,-4.2158,-4.1982,-4.1656,-4.1204,0.0,0.0,-4.1053,-4.0576,-4.04,-4.035,-3.9873,-3.9697,-3.9697,-3.9697,-3.9697,-3.9697,0.0,0.0,0.0,0.0,0.0,0.0,0.0,0.0,0.0,0.0,0.0,0.0,0.0,0.0,0.0,0.0,0.0,0.0,0.0,0.0,0.0,0.0,-3.7122,-3.8542,-3.9672,-3.9697,-3.9747,-3.9823,-4.2233,-4.3237,-4.2886,-4.4694,-4.4292,-4.2007,-4.1379,-4.0576,-3.9697,-3.9697,-3.9697,-3.9697,-3.9697,0.0,0.0,0.0,0.0,0.0,0.0,0.0,0.0,-3.9697,-3.9697,-3.9697,-3.9697,0.0,0.0,0.0,0.0,0.0,-3.9697,-3.9006,-3.812,-3.7364,-3.8472,-3.9088,-3.6802,0.0,0.0,0.0,0.0,0.0,0.0,0.0,0.0,0.0,0.0,0.0,0.0,0.0,0.0,0.0,0.0,0.0,0.0,0.0,0.0,0.0,0.0,0.0,0.0,-4.7079,-4.7657,-4.7154,-4.6527,-4.5723,-4.4769,-4.4292,-4.3966,-4.379,-4.2861,-4.2308,-4.2133,-4.1178,-4.0727,-4.0626,0.0,-3.9948,-3.9948,-3.9848,-3.9823,-3.9798,-3.9722,-3.9697,-3.9697,-3.9697,-3.9697,-3.9697,0.0,0.0,0.0,0.0,0.0,0.0,0.0,0.0,0.0,0.0,0.0,0.0,0.0,0.0,0.0,0.0,0.0,0.0,0.0,0.0,0.0,-3.5604,-3.6497,-3.7639,-3.922,-4.0124,-4.0877,-4.148,-4.3338,-4.4418,-4.4769,-4.4593,-4.3514,-4.1681,-4.0827,-4.0174,-3.9697,-3.9697,-3.9697,-3.9697,0.0,0.0,0.0,0.0,0.0,0.0,0.0,0.0,0.0,0.0,-3.9446,-3.9647,-3.9346,0.0,0.0,0.0,0.0,0.0,-3.9697,-3.8753,-3.7476,-3.6256,-3.6858,-3.719,-3.5396,0.0,0.0,0.0,0.0,0.0,0.0,0.0,0.0,0.0,0.0,0.0,0.0,0.0,0.0,0.0,0.0,0.0,0.0,0.0,0.0,0.0,0.0,0.0,0.0,0.0,-4.5872,-4.625,-4.5397,-4.4694,-4.4192,-4.3338,-4.2911,-4.2911,-4.2409,-4.1856,-4.1254,-4.0752,-4.035,-4.0049,0.0,-3.9697,-3.9697,-3.9697,-3.9697,-3.9697,-3.9697,-3.9697,-3.9697,-3.9697,-3.9697,-3.9697,0.0,0.0,0.0,0.0,0.0,0.0,0.0,0.0,0.0,0.0,0.0,0.0,0.0,0.0,0.0,0.0,0.0,0.0,0.0,0.0,-3.3219,-3.5263,-3.5734,-3.7079,-3.9421,-4.0827,-4.2133,-4.3363,-4.4719,-4.5899,-4.6828,-4.4618,-4.2911,-4.1681,-4.0576,-3.9948,-3.9697,-3.9697,-3.9697,-3.9697,0.0,0.0,0.0,0.0,0.0,0.0,0.0,0.0,0.0,0.0,0.0,0.0,0.0,0.0,0.0,-3.9647,-3.9697,-3.9697,-3.9697,-3.8445,-3.6843,-3.564,0.0,-3.5469,0.0,0.0,0.0,0.0,0.0,0.0,0.0,0.0,0.0,0.0,0.0,0.0,0.0,0.0,0.0,0.0,0.0,0.0,0.0,0.0,0.0,0.0,0.0,0.0,0.0,0.0,-4.4135,-4.5497,-4.4392,-4.374,-4.3614,-4.2635,-4.2158,-4.2158,-4.1907,-4.1329,-4.0501,-4.0375,-4.0099,-3.9697,-3.9697,-3.9697,-3.9697,-3.9697,-3.9697,-3.9697,-3.9697,-3.9697,-3.9697,-3.9697,-3.9697,-3.9697,0.0,0.0,0.0,0.0,0.0,0.0,0.0,0.0,0.0,0.0,0.0,0.0,0.0,0.0,0.0,0.0,0.0,0.0,0.0,0.0,-3.2679,-3.3344,-3.5035,-3.7588,-4.0996,-4.1781,-4.2886,-4.4493,-4.6627,-4.7983,-4.8535,-4.6351,-4.4443,-4.2811,-4.1706,-4.0651,-3.9697,-3.9697,-3.9697,-3.9697,-3.9697,0.0,0.0,0.0,0.0,0.0,0.0,0.0,0.0,0.0,0.0,0.0,0.0,0.0,-3.9019,-3.9546,-3.9697,-3.9697,-3.9697,-3.7941,-3.5848,-3.54,0.0,0.0,0.0,0.0,0.0,0.0,0.0,0.0,0.0,0.0,0.0,0.0,0.0,0.0,0.0,0.0,0.0,0.0,0.0,0.0,0.0,0.0,0.0,0.0,0.0,0.0,0.0,0.0,0.0,-4.5497,-4.4392,-4.3564,-4.3037,-4.2459,-4.2158,-4.2158,-4.1128,-4.0601,-4.0501,-3.9998,-3.9747,-3.9697,-3.9697,-3.9697,-3.9697,-3.9697,-3.9697,-3.9697,-3.9697,-3.9697,-3.9697,-3.9697,-3.9697,-3.9697,0.0,0.0,0.0,0.0,0.0,0.0,0.0,0.0,0.0,0.0,0.0,0.0,0.0,0.0,0.0,0.0,0.0,0.0,0.0,-2.9513,-3.083,-3.307,-3.3354,-3.5344,-3.931,-4.2215,-4.4234,-4.5493,-4.8178,-4.8887,-4.7707,-4.5472,-4.3564,-4.1907,-4.0802,-4.0074,-3.9697,-3.9697,-3.9697,-3.9697,-3.9697,-3.9697,0.0,0.0,0.0,0.0,0.0,0.0,0.0,0.0,-3.814,-3.8567,-3.8617,-3.8994,-3.9421,-3.9647,-3.9025,-3.8348,-3.8348,-3.63,0.0,0.0,0.0,0.0,0.0,0.0,0.0,0.0,0.0,0.0,0.0,0.0,0.0,0.0,0.0,0.0,0.0,0.0,0.0,0.0,0.0,0.0,0.0,0.0,0.0,0.0,0.0,0.0,0.0,0.0,0.0,-4.285,-4.2885,-4.2685,-4.2459,-4.158,-4.1128,-4.1128,-4.0727,-4.035,-3.9998,-3.9798,-3.9697,-3.9697,-3.9697,-3.9697,-3.9697,-3.9697,-3.9697,-3.9697,-3.9697,-3.9697,-3.9697,-3.9697,-3.9697,-3.9697,0.0,0.0,0.0,0.0,0.0,0.0,0.0,0.0,0.0,0.0,0.0,0.0,0.0,0.0,0.0,0.0,0.0,0.0,-2.8301,-2.8708,-3.0013,-3.2449,-3.2379,-3.3768,-3.6969,-4.085,-4.3479,-4.4781,-4.7579,-4.8401,-4.7079,-4.4669,-4.2936,-4.1806,-4.0526,-4.0049,-4.0199,-4.0023,-3.9848,-3.9697,-3.9697,-3.9697,0.0,0.0,0.0,0.0,0.0,0.0,0.0,0.0,-3.8115,-3.8492,-3.8014,-3.8614,-3.924,-3.8533,-3.7926,-3.7346,-3.6918,-3.4936,-3.3077,0.0,0.0,0.0,0.0,0.0,0.0,0.0,0.0,0.0,0.0,0.0,0.0,0.0,0.0,0.0,0.0,0.0,0.0,0.0,0.0,0.0,0.0,0.0,0.0,0.0,0.0,0.0,0.0,0.0,0.0,0.0,-4.1657,-4.1806,-4.163,-4.0902,-4.0425,-4.0249,-4.0249,-4.0049,-3.9697,-3.9697,-3.9697,-3.9697,-3.9697,-3.9697,-3.9697,-3.9697,-3.9697,-3.9697,-3.9697,-3.9697,-3.9697,-3.9697,-3.9697,-3.9697,0.0,0.0,0.0,0.0,0.0,0.0,0.0,0.0,0.0,0.0,0.0,0.0,0.0,0.0,0.0,0.0,0.0,0.0,-2.8301,-2.9513,-3.0517,-3.1085,-3.2471,-3.3485,-3.4379,-3.744,-4.013,-4.2289,-4.4757,-4.6311,-4.7029,-4.4267,-4.2961,-4.2886,-4.1254,-4.0827,-4.1171,-4.0752,-4.0199,-3.9697,-3.9697,-3.9697,-3.9697,0.0,0.0,0.0,0.0,0.0,0.0,0.0,-3.8492,-3.7892,-3.7565,-3.8087,-3.8435,-3.6025,-3.6379,-3.7156,-3.5727,-3.4181,0.0,0.0,0.0,0.0,0.0,0.0,0.0,0.0,0.0,0.0,0.0,0.0,0.0,0.0,0.0,0.0,0.0,0.0,0.0,0.0,0.0,0.0,0.0,0.0,0.0,0.0,0.0,0.0,0.0,0.0,0.0,0.0,-4.0979,-4.1078,-4.0526,-4.0501,-4.0249,-3.9697,-3.9697,-3.9697,-3.9697,-3.9697,-3.9697,-3.9697,-3.9697,-3.9697,-3.9697,-3.9697,-3.9697,-3.9697,-3.9697,-3.9697,-3.9697,-3.9697,-3.9697,-3.9697,0.0,0.0,0.0,0.0,0.0,0.0,0.0,0.0,0.0,0.0,0.0,0.0,0.0,0.0,0.0,0.0,0.0,0.0,-2.8301,-2.8708,-2.9363,-3.0517,-3.0632,-3.1182,-3.2378,-3.3932,-3.7902,-4.4501,-4.4735,-4.4642,-4.4192,-4.3363,-4.2158,-4.0701,-4.1379,-4.0542,-3.8728,-3.9978,-3.9625,-3.8243,-3.9233,-3.9697,-3.9594,0.0,0.0,0.0,0.0,0.0,0.0,0.0,0.0,0.0,-3.5317,-3.6602,-3.8011,-3.558,-3.5595,-3.607,-3.4267,-3.2644,0.0,0.0,0.0,0.0,0.0,0.0,0.0,0.0,0.0,0.0,0.0,0.0,0.0,0.0,0.0,0.0,0.0,0.0,0.0,0.0,0.0,0.0,0.0,0.0,0.0,0.0,0.0,0.0,0.0,0.0,0.0,0.0,-3.8722,-3.9643,-4.0526,-4.0124,-3.9848,-3.9697,-3.9697,-3.9697,-3.9697,-3.9697,-3.9697,-3.9697,-3.9697,-3.9697,-3.9697,-3.9697,-3.9697,-3.9697,-3.9697,-3.9697,-3.9697,-3.9697,-3.9697,-3.9697,0.0,0.0,0.0,0.0,0.0,0.0,0.0,0.0,0.0,0.0,0.0,0.0,0.0,0.0,0.0,0.0,0.0,0.0,0.0,-2.8301,-2.8767,-2.9652,-2.9461,-3.0056,-3.1523,-3.2415,-3.5604,-4.1331,-4.1319,-4.1845,-4.2986,-4.1891,-4.1403,-4.1572,-4.1266,-4.0684,-4.0038,-4.0049,-3.9116,-3.7583,-3.8697,-3.8648,-3.7844,0.0,0.0,0.0,0.0,0.0,0.0,0.0,0.0,0.0,-3.4826,-3.5671,-3.6703,-3.456,-3.4382,-3.4549,-3.2706,0.0,0.0,0.0,0.0,0.0,0.0,0.0,0.0,0.0,0.0,0.0,0.0,0.0,0.0,0.0,0.0,0.0,0.0,0.0,0.0,0.0,0.0,0.0,0.0,0.0,0.0,0.0,0.0,0.0,0.0,0.0,0.0,0.0,-3.7542,-3.8728,-4.0199,-3.9848,-3.9697,-3.9697,-3.9697,-3.9697,-3.9697,-3.9697,-3.9697,-3.9697,-3.9697,-3.9697,-3.9697,-3.9697,-3.9697,-3.9697,-3.9697,-3.9697,-3.9697,-3.9697,-3.9697,-3.9697,0.0,0.0,0.0,0.0,0.0,0.0,0.0,0.0,0.0,0.0,-2.8301,0.0,0.0,0.0,0.0,0.0,0.0,0.0,0.0,0.0,-2.8476,-2.8906,-2.9043,-2.9883,-3.1543,-3.2305,-3.3496,-3.5008,-3.6055,-3.8537,-4.2289,-3.9986,-4.0735,-4.3788,-4.0716,-4.0704,-4.2856,-4.0344,-3.8477,-3.718,-3.7628,-3.6772,-3.5333,-3.5558,0.0,0.0,0.0,0.0,0.0,0.0,0.0,0.0,-3.5024,-3.5068,-3.4891,-3.3261,-3.2964,-3.282,0.0,0.0,0.0,0.0,0.0,0.0,0.0,0.0,0.0,0.0,0.0,0.0,0.0,0.0,0.0,0.0,0.0,0.0,0.0,0.0,0.0,0.0,0.0,0.0,0.0,0.0,0.0,0.0,0.0,0.0,0.0,0.0,0.0,-3.661,-3.7193,-3.8243,-3.9697,-3.9697,-3.9697,-3.9697,-3.9697,-3.9697,-3.9697,-3.9697,-3.9697,-3.9697,-3.9697,-3.9697,-3.9697,-3.9697,-3.9697,-3.9697,-3.9697,-3.9697,-3.9697,-3.9697,-3.9697,-3.9697,0.0,0.0,0.0,0.0,0.0,0.0,0.0,0.0,0.0,0.0,0.0,0.0,0.0,0.0,0.0,0.0,0.0,0.0,0.0,0.0,-2.8476,-2.8906,-2.9902,-3.0957,-3.2012,-3.1875,-3.2475,-3.4043,-3.4867,-3.6081,-3.7561,-3.8439,-3.8844,-3.8824,-3.9408,-3.862,-3.6925,-3.6859,-3.5804,-3.4181,-3.54,-3.5708,-3.5201,-3.4065,-3.4379,0.0,0.0,0.0,0.0,0.0,0.0,0.0,-3.3194,-3.3578,-3.3798,-3.1539,-3.2146,-3.3393,0.0,0.0,0.0,0.0,0.0,0.0,0.0,0.0,0.0,0.0,0.0,0.0,0.0,0.0,0.0,0.0,0.0,0.0,0.0,0.0,0.0,0.0,0.0,0.0,0.0,0.0,0.0,0.0,0.0,0.0,0.0,0.0,0.0,-3.727,-3.7465,-3.8243,-3.9697,-3.9697,-3.9697,0.0,-3.9697,-3.9697,-3.9697,-3.9697,-3.9697,-3.9697,-3.9697,-3.9697,-3.9697,-3.9697,-3.9697,-3.9697,-3.9697,-3.9697,-3.9697,-3.9697,-3.9697,-3.9697,0.0,0.0,0.0,0.0,0.0,0.0,0.0,0.0,0.0,0.0,0.0,0.0,0.0,0.0,0.0,0.0,0.0,0.0,0.0,0.0,-2.8574,-2.9199,-3.0293,-3.1094,-3.1543,-3.1328,-3.1544,-3.2322,-3.2788,-3.4148,-3.6409,-3.6239,-3.7004,-3.8439,-3.7609,-3.704,-3.6589,-3.5635,-3.449,-3.3212,-3.4194,-3.3947,-3.3119,-3.2547,-3.2736,-3.2985,-3.1441,0.0,0.0,0.0,0.0,0.0,0.0,0.0,-3.2357,-3.1755,-3.1957,-3.2342,0.0,0.0,0.0,0.0,0.0,0.0,0.0,0.0,0.0,0.0,0.0,0.0,0.0,0.0,0.0,0.0,0.0,0.0,0.0,0.0,0.0,0.0,0.0,0.0,0.0,0.0,0.0,0.0,0.0,0.0,0.0,-3.4611,-3.5536,-3.7726,-3.7596,-3.8243,-3.9697,-3.9697,-3.9697,-3.9697,-3.9697,-3.9697,-3.9697,-3.9697,-3.9697,-3.9697,-3.9697,-3.9697,-3.9697,-3.9697,-3.9697,-3.9697,-3.9697,-3.9697,-3.9697,-3.9697,-3.9697,-3.9697,0.0,0.0,0.0,0.0,0.0,0.0,0.0,0.0,0.0,0.0,0.0,0.0,0.0,0.0,0.0,0.0,0.0,0.0,0.0,0.0,0.0,-2.9648,-3.0371,-3.0879,-3.1113,-3.0976,-3.0918,-3.0996,-3.0918,-3.2641,0.0,-3.4288,-3.5415,-3.8803,-3.5747,-3.5681,-3.7396,-3.4889,-3.3327,-3.2778,-3.3037,-3.2302,-3.0937,-3.1269,-3.1191,-3.0898,-3.0898,-3.0898,-3.0879,-3.1228,0.0,0.0,0.0,0.0,-3.1112,-3.2301,-3.1883,-3.0918,0.0,0.0,0.0,0.0,0.0,0.0,0.0,0.0,0.0,0.0,0.0,0.0,0.0,0.0,0.0,0.0,0.0,0.0,0.0,0.0,0.0,0.0,0.0,0.0,0.0,0.0,0.0,0.0,0.0,0.0,-3.5142,-3.4533,-3.5468,-3.8311,-3.8011,-3.8477,-3.9697,-3.9697,-3.9697,-3.9697,-3.9697,-3.9697,-3.9697,-3.9697,-3.9697,-3.9697,-3.9697,-3.9697,-3.9697,-3.9697,-3.9697,-3.9697,-3.9697,-3.9697,-3.9697,-3.9697,-3.9697,-3.9697,0.0,0.0,0.0,0.0,0.0,0.0,0.0,0.0,0.0,0.0,0.0,0.0,0.0,0.0,0.0,0.0,0.0,0.0,-2.8301,0.0,0.0,-3.0078,-3.0234,-3.082,-3.1973,-3.1269,-3.1074,-3.1426,-3.1074,0.0,0.0,0.0,0.0,-3.4872,-3.4005,-3.3769,-3.3908,-3.2197,-3.1327,-3.1228,-3.1287,-3.1171,-3.0898,-3.0957,-3.0937,-3.0898,-3.0898,-3.0898,-3.1112,-3.2436,-3.1977,0.0,0.0,0.0,-3.0879,-3.1112,-3.0995,0.0,0.0,0.0,0.0,0.0,0.0,0.0,0.0,0.0,0.0,0.0,0.0,0.0,0.0,0.0,0.0,0.0,0.0,0.0,0.0,0.0,0.0,0.0,0.0,0.0,0.0,0.0,0.0,0.0,0.0,0.0,-3.5776,-3.7726,-3.905,-3.9461,-3.9387,-3.9465,-3.9697,-3.9697,-3.9697,-3.9697,-3.9697,-3.9697,-3.9697,-3.9697,-3.9697,-3.9697,-3.9697,-3.9697,-3.9697,-3.9697,-3.9697,-3.9697,-3.9697,-3.9697,-3.9697,-3.9697,-3.9697,-3.9697,0.0,0.0,0.0,0.0,0.0,0.0,0.0,0.0,0.0,0.0,0.0,0.0,0.0,0.0,0.0,-2.8984,-2.8789,-2.8652,-2.8652,-2.8809,-2.9082,-2.9473,-2.9707,-3.0234,-3.1035,-3.0703,-3.0723,-3.1172,0.0,0.0,0.0,-3.3418,-3.3926,0.0,0.0,-3.3066,-3.2969,-3.1523,-3.0898,-3.0898,-3.0898,-3.0898,-3.0898,-3.0898,-3.0898,-3.0898,-3.0898,-3.0898,-3.0995,-3.1652,-3.1441,-3.0995,-3.1652,0.0,0.0,0.0,0.0,0.0,0.0,0.0,0.0,0.0,0.0,0.0,0.0,0.0,0.0,0.0,0.0,0.0,0.0,0.0,0.0,0.0,0.0,0.0,0.0,0.0,0.0,0.0,0.0,0.0,0.0,0.0,0.0,0.0,0.0,-3.5835,-3.7031,-3.7977,-3.8792,-3.9697,-3.9697,-3.9697,-3.9697,-3.9697,-3.9697,-3.9697,-3.9697,-3.9697,-3.9697,-3.9697,-3.9697,-3.9697,-3.9697,-3.9697,-3.9697,-3.9697,-3.9697,-3.9697,-3.9697,-3.9697,-3.9697,-3.9697,-3.9697,-3.9697,0.0,0.0,0.0,0.0,0.0,0.0,0.0,0.0,0.0,0.0,0.0,0.0,0.0,0.0,0.0,0.0,-2.9277,-2.9082,-2.9082,-2.9082,-2.9121,-2.9238,-2.9453,-2.9824,-3.0351,-3.0254,-3.043,0.0,0.0,0.0,-3.375,-3.375,-3.4629,0.0,-3.4277,-3.3379,0.0,0.0,0.0,-3.1504,-3.1055,-3.0898,-3.0898,-3.0898,-3.0898,-3.0898,-3.0898,-3.0898,-3.0898,-3.0898,-3.0898,-3.0898,-3.0898,-3.0898,0.0,0.0,0.0,0.0,0.0,0.0,0.0,0.0,0.0,0.0,0.0,0.0,0.0,0.0,0.0,0.0,0.0,0.0,0.0,0.0,0.0,0.0,0.0,0.0,0.0,0.0,0.0,0.0,0.0,0.0,0.0,0.0,0.0,-3.5773,-3.7831,-3.8011,-3.8582,-3.9697,-3.9697,-3.9697,-3.9697,-3.9697,-3.9697,-3.9697,-3.9697,-3.9697,-3.9697,-3.9697,-3.9697,-3.9697,-3.9697,-3.9697,-3.9697,-3.9697,-3.9697,-3.9697,-3.9697,-3.9697,-3.9697,-3.9697,-3.9697,-3.9697,0.0,0.0,0.0,0.0,0.0,0.0,0.0,0.0,0.0,0.0,0.0,0.0,-2.9531,-2.9531,-2.9551,-2.957,-2.9551,-2.9531,-2.9531,-2.9531,-2.9707,-3.0117,-2.9766,0.0,-3.084,-3.043,-3.043,0.0,0.0,0.0,-3.4629,-3.4629,-3.5976,-3.832,-3.6211,-3.5019,-3.4512,0.0,0.0,0.0,-3.1543,-3.0898,-3.0898,-3.0898,-3.0898,-3.0898,-3.0898,0.0,-3.0898,-3.0898,-3.0898,-3.0898,0.0,-3.0898,-3.0898,0.0,0.0,0.0,0.0,0.0,0.0,0.0,0.0,0.0,0.0,0.0,0.0,0.0,0.0,0.0,0.0,0.0,0.0,0.0,0.0,0.0,0.0,0.0,0.0,0.0,0.0,0.0,0.0,0.0,0.0,0.0,0.0,-3.6271,-3.7418,-3.8816,-3.9594,-3.9697,-3.9697,-3.9697,-3.9697,-3.9697,-3.9697,-3.9697,-3.9697,-3.9697,-3.9697,-3.9697,-3.9697,-3.9697,-3.9697,-3.9697,-3.9697,-3.9697,-3.9697,-3.9697,-3.9697,-3.9697,-3.9697,-3.9697,-3.9697,-3.9697,0.0,0.0,0.0,0.0,0.0,0.0,0.0,0.0,0.0,0.0,0.0,0.0,0.0,-2.998,-3.0098,-3.0391,-3.0137,-2.998,-2.998,-2.9726,-2.9629,-2.9785,-2.9648,-2.9844,-3.043,-3.0293,0.0,0.0,0.0,-3.1914,-3.3887,-3.416,-3.5234,-3.6894,-3.5859,-3.5449,-3.5391,-3.2988,0.0,0.0,0.0,-3.0898,-3.0898,-3.0898,0.0,0.0,0.0,0.0,0.0,0.0,0.0,0.0,0.0,-3.0898,-3.0898,-3.0898,0.0,0.0,0.0,0.0,0.0,0.0,0.0,0.0,0.0,0.0,0.0,0.0,0.0,0.0,0.0,0.0,0.0,0.0,0.0,0.0,0.0,0.0,0.0,0.0,0.0,0.0,0.0,0.0,0.0,0.0,0.0,0.0,-3.8816,-3.9362,-3.9697,-3.9697,-3.9697,-3.9697,-3.9697,-3.9697,-3.9697,-3.9697,-3.9697,-3.9697,-3.9697,-3.9697,-3.9697,-3.9697,-3.9697,-3.9697,-3.9697,-3.9697,-3.9697,-3.9697,-3.9697,-3.9697,-3.9697,-3.9697,-3.9697,-3.9697,0.0,0.0,0.0,0.0,0.0,0.0,0.0,0.0,0.0,0.0,0.0,0.0,0.0,0.0,-3.0547,-3.0859,-3.0605,-3.043,-3.043,-3.0156,-3.0019,-3.0019,-3.0019,-3.0137,-3.043,-3.043,0.0,0.0,0.0,0.0,0.0,-3.3652,-3.4629,-3.5996,-3.5273,-3.5508,0.0,0.0,0.0,-3.334,0.0,0.0,-3.1758,0.0,0.0,0.0,0.0,0.0,0.0,0.0,0.0,0.0,0.0,-3.0898,-3.0898,-3.0898,-3.0898,0.0,0.0,0.0,0.0,0.0,0.0,0.0,0.0,0.0,0.0,0.0,0.0,0.0,0.0,0.0,0.0,0.0,0.0,0.0,0.0,0.0,0.0,0.0,0.0,0.0,0.0,0.0,0.0,0.0,0.0,0.0,-3.9594,-3.9697,-3.9697,-3.9697,-3.9697,-3.9697,-3.9697,-3.9697,-3.9697,-3.9697,-3.9697,-3.9697,-3.9697,-3.9697,-3.9697,-3.9697,-3.9697,-3.9697,-3.9697,-3.9697,-3.9697,-3.9697,-3.9697,-3.9697,-3.9697,-3.9697,-3.9697,-3.9697,0.0,0.0,0.0,0.0,0.0,0.0,0.0,0.0,0.0,0.0,0.0,0.0,0.0,0.0,0.0,-3.0918,-3.0918,-3.0918,-3.0898,-3.0898,-3.0898,-3.0898,-3.0898,-3.0898,-3.0898,-3.0898,0.0,0.0,0.0,0.0,0.0,0.0,-3.4297,-3.5879,-3.4648,-3.5254,-3.7168,0.0,-3.6328,-3.582,0.0,-3.3047,-3.3496,0.0,0.0,0.0,-3.3418,-3.3164,0.0,0.0,0.0,0.0,0.0,-3.0898,-3.0898,-3.0898,-3.0898,0.0,0.0,0.0,0.0,0.0,0.0,0.0,0.0,0.0,0.0,0.0,0.0,0.0,0.0,0.0,0.0,0.0,0.0,0.0,0.0,0.0,0.0,0.0,0.0,0.0,0.0,0.0,0.0,0.0,-3.6983,-3.8243,-3.9594,-3.9697,-3.9697,-3.9697,-3.9697,-3.9697,-3.9697,-3.9697,-3.9697,-3.9697,-3.9697,-3.9697,-3.9697,-3.9697,-3.9697,-3.9697,-3.9697,-3.9697,-3.9697,-3.9697,-3.9697,-3.9697,-3.9697,-3.9697,-3.9697,-3.9697,-3.9697,-3.9697,0.0,0.0,0.0,0.0,0.0,0.0,0.0,0.0,0.0,0.0,0.0,0.0,0.0,-3.1445,-3.1816,-3.1816,-3.1816,-3.1543,-3.0937,-3.0898,-3.0898,-3.0898,-3.0898,-3.0898,-3.0898,-3.0898,-3.0898,0.0,0.0,0.0,-3.1875,-3.2305,-3.3086,0.0,-3.4414,-3.4687,-3.4883,-3.3516,0.0,0.0,-3.2871,-3.2871,0.0,0.0,0.0,0.0,0.0,-3.334,0.0,0.0,-3.2344,-3.2305,0.0,0.0,-3.0898,-3.0898,-3.0898,0.0,-3.0898,0.0,0.0,0.0,0.0,0.0,0.0,0.0,0.0,0.0,0.0,0.0,0.0,0.0,0.0,0.0,0.0,0.0,0.0,0.0,0.0,0.0,0.0,0.0,0.0,0.0,0.0,0.0,-3.889,-3.9258,-3.9697,-3.9697,-3.9697,-3.9697,-3.9697,-3.9697,-3.9697,-3.9697,-3.9697,-3.9697,-3.9697,-3.9697,-3.9697,-3.9697,-3.9697,-3.9697,-3.9697,-3.9697,-3.9697,-3.9697,-3.9697,-3.9697,-3.9697,-3.9697,-3.9697,-3.9697,-3.9697,-3.9747,0.0,0.0,0.0,0.0,0.0,0.0,0.0,0.0,0.0,0.0,0.0,0.0,0.0,-3.2441,-3.2812,-3.2461,-3.2266,-3.1875,-3.1191,-3.0996,-3.0898,-3.0898,-3.0898,-3.0898,-3.0898,-3.0898,-3.0898,-3.0898,0.0,-3.1016,-3.1269,-3.1523,-3.1992,0.0,0.0,0.0,0.0,0.0,0.0,0.0,-3.3789,0.0,0.0,-3.5019,-3.5078,0.0,0.0,0.0,-3.5117,-3.3984,-3.3242,0.0,0.0,0.0,0.0,0.0,0.0,0.0,0.0,0.0,0.0,0.0,0.0,0.0,-3.1348,-3.1543,0.0,0.0,0.0,0.0,0.0,0.0,0.0,0.0,0.0,0.0,0.0,0.0,0.0,0.0,0.0,0.0,0.0,0.0,-3.8131,-3.8712,-3.9362,-3.9697,-3.9697,-3.9697,-3.9697,-3.9697,-3.9697,-3.9697,-3.9697,-3.9697,-3.9697,-3.9697,-3.9697,-3.9697,-3.9697,-3.9697,-3.9697,-3.9697,-3.9697,-3.9697,-3.9697,-3.9697,-3.9697,-3.9697,-3.9697,-3.9697,-3.9697,-3.9697,-3.9848,-4.0074,0.0,0.0,0.0,0.0,0.0,0.0,0.0,0.0,0.0,0.0,-3.1836,-3.2226,-3.3125,-3.3828,-3.3926,-3.3223,-3.2637,-3.2109,-3.1621,-3.1152,-3.0898,-3.0898,-3.0898,-3.0898,-3.0898,-3.0898,-3.0898,-3.0898,-3.0898,0.0,0.0,-3.0898,-3.1094,-3.1426,0.0,0.0,0.0,0.0,0.0,-3.3965,-3.5234,-3.5957,0.0,0.0,-3.791,0.0,-3.7949,-3.793,-3.7617,-3.5547,-3.4004,0.0,0.0,0.0,0.0,0.0,-3.0918,0.0,0.0,0.0,0.0,0.0,0.0,0.0,-3.1875,-3.1465,-3.1172,0.0,0.0,0.0,0.0,0.0,0.0,0.0,0.0,0.0,0.0,0.0,0.0,0.0,0.0,0.0,0.0,-3.7006,-3.7796,-3.7796,-3.8921,-3.9697,-3.9697,-3.9697,-3.9697,-3.9697,-3.9697,-3.9697,-3.9697,-3.9697,-3.9697,-3.9697,-3.9697,-3.9697,-3.9697,-3.9697,-3.9697,-3.9697,-3.9697,-3.9697,-3.9697,-3.9697,-3.9697,-3.9697,-3.9697,-3.9697,-3.9697,-3.9772,-4.0099,-4.0526,-3.0898,0.0,0.0,0.0,0.0,0.0,0.0,0.0,0.0,0.0,-3.3867,-3.4551,-3.5781,-3.5449,-3.5195,-3.5371,-3.4043,-3.2851,-3.209,-3.1328,-3.0898,-3.0898,-3.0898,-3.0898,-3.0898,-3.0898,-3.0898,-3.0898,-3.0898,0.0,0.0,0.0,-3.0937,-3.1016,0.0,0.0,0.0,0.0,0.0,-3.2617,-3.3555,0.0,-3.8027,-3.7578,-3.7851,-3.8398,-3.8047,-3.793,-3.7695,0.0,-3.4902,-3.373,0.0,0.0,0.0,0.0,0.0,0.0,0.0,0.0,0.0,0.0,0.0,0.0,-3.125,-3.1269,-3.1348,0.0,0.0,0.0,0.0,0.0,0.0,0.0,0.0,0.0,0.0,0.0,0.0,0.0,0.0,0.0,-3.5893,-3.7893,-3.9258,-3.9258,-3.9569,-3.9697,-3.9697,-3.9697,-3.9697,-3.9697,-3.9697,-3.9697,-3.9697,-3.9697,-3.9697,-3.9697,-3.9697,-3.9697,-3.9697,-3.9697,-3.9697,-3.9697,-3.9697,-3.9697,-3.9697,-3.9697,-3.9697,-3.9697,-3.9697,-3.9697,-3.9747,-4.0199,-4.0425,-4.0651,-3.0937,0.0,0.0,0.0,0.0,0.0,0.0,-3.375,-3.3984,-3.4648,-3.5293,-3.5937,-3.6601,-3.6484,-3.6074,-3.541,-3.4375,-3.3301,-3.2246,-3.1562,-3.1113,-3.0898,-3.0898,-3.0996,-3.1191,-3.0996,-3.0996,-3.1211,0.0,0.0,0.0,0.0,0.0,0.0,0.0,0.0,0.0,0.0,-3.2285,-3.2656,-3.4805,0.0,-3.7695,-3.834,-3.8984,-3.9512,-3.9297,-3.8945,-3.8359,-3.709,-3.6074,0.0,0.0,-3.3125,-3.2676,0.0,-3.1543,-3.1152,0.0,0.0,0.0,-3.1211,0.0,0.0,0.0,-3.1211,-3.1152,0.0,0.0,0.0,0.0,0.0,0.0,0.0,0.0,0.0,0.0,0.0,0.0,0.0,0.0,0.0,-3.7773,-3.8964,-3.9697,-3.9697,-3.9697,-3.9697,-3.9697,-3.9697,-3.9697,-3.9697,-3.9697,-3.9697,-3.9697,-3.9697,-3.9697,-3.9697,-3.9697,-3.9697,-3.9697,-3.9697,-3.9697,-3.9697,-3.9697,-3.9697,-3.9697,-3.9697,-3.9697,-3.9697,-3.9697,-3.9848,-4.0149,-4.0425,-4.0852,-4.1404,-3.0976,0.0,0.0,0.0,0.0,0.0,-3.4531,-3.4844,-3.5176,-3.5801,-3.6621,-3.7187,-3.7285,0.0,0.0,-3.5918,-3.4668,-3.3691,0.0,0.0,0.0,-3.1016,-3.0937,-3.1055,-3.1387,-3.1055,-3.1055,-3.1406,0.0,0.0,-3.0898,-3.0898,0.0,0.0,0.0,0.0,0.0,0.0,0.0,-3.332,0.0,-3.7226,-3.6777,-3.8945,-3.998,-4.0293,-4.0469,-4.0019,-3.9141,-3.7949,0.0,-3.6562,-3.4551,-3.4043,0.0,0.0,0.0,0.0,0.0,0.0,0.0,0.0,0.0,-3.1387,0.0,0.0,0.0,-3.0918,0.0,0.0,0.0,0.0,0.0,0.0,0.0,0.0,0.0,0.0,0.0,0.0,0.0,0.0,0.0,-3.9569,-3.9697,-3.9697,-3.9697,-3.9697,-3.9697,-3.9697,-3.9697,-3.9697,-3.9697,-3.9697,-3.9697,-3.9697,-3.9697,-3.9697,-3.9697,-3.9697,-3.9697,-3.9697,-3.9697,-3.9697,-3.9697,-3.9697,-3.9697,-3.9697,-3.9747,-3.9848,-3.9848,-4.0124,-4.0551,-4.0752,-4.1404,-4.2158,-3.0976,-3.123,0.0,0.0,-3.2891,-3.4101,-3.4609,-3.5371,-3.6289,-3.748,-3.8379,0.0,0.0,0.0,0.0,0.0,0.0,0.0,-3.6035,0.0,0.0,-3.1426,-3.1094,-3.0918,-3.0957,-3.0918,-3.0918,-3.0957,-3.0918,-3.0898,-3.0898,-3.0898,0.0,0.0,-3.1269,0.0,0.0,0.0,-3.3105,0.0,-3.6035,-3.6523,0.0,-3.8457,-3.9316,-3.9453,-4.0234,-4.0215,-3.9668,0.0,-3.8144,-3.7539,0.0,-3.5215,0.0,0.0,0.0,0.0,0.0,0.0,0.0,0.0,-3.2324,0.0,0.0,0.0,-3.1348,-3.0957,0.0,0.0,0.0,0.0,0.0,0.0,0.0,0.0,0.0,0.0,0.0,0.0,0.0,0.0,0.0,-3.8921,-3.9697,-3.9697,-3.9697,-3.9697,-3.9697,-3.9697,-3.9697,-3.9697,-3.9697,-3.9697,-3.9697,-3.9697,-3.9697,-3.9697,-3.9697,-3.9697,-3.9697,-3.9697,-3.9697,-3.9697,-3.9697,-3.9697,-3.9697,-3.9697,-3.9973,-4.0425,-4.0425,-4.045,-4.0626,-4.1605,-4.2057,-4.2233,-3.0918,-3.123,0.0,0.0,-3.2695,-3.3809,-3.5254,-3.6836,-3.8164,-3.8965,-3.9375,0.0,0.0,0.0,0.0,0.0,0.0,0.0,0.0,0.0,0.0,0.0,0.0,0.0,-3.1992,-3.1504,-3.125,-3.125,-3.1016,-3.0898,-3.0898,-3.0898,-3.1152,0.0,-3.1543,0.0,-3.2559,0.0,0.0,0.0,0.0,0.0,0.0,-3.8398,-3.9746,-4.0019,-4.0391,-4.0254,-3.9766,0.0,-3.8457,0.0,0.0,0.0,0.0,0.0,0.0,0.0,0.0,0.0,0.0,0.0,0.0,0.0,0.0,0.0,-3.1094,0.0,0.0,0.0,0.0,0.0,0.0,0.0,-3.0996,0.0,0.0,0.0,0.0,0.0,0.0,0.0,0.0,0.0,0.0,0.0,-3.9697,-3.9697,-3.9697,-3.9697,-3.9697,-3.9697,-3.9697,-3.9697,-3.9697,-3.9697,-3.9697,-3.9697,-3.9697,-3.9697,-3.9697,-3.9697,-3.9697,-3.9697,-3.9697,-3.9697,-3.9722,-4.0049,-4.03,-4.0576,-4.1229,-4.148,-4.153,-4.1982,-4.2359,-4.266,-3.0898,0.0,0.0,0.0,0.0,-3.3691,-3.5859,0.0,0.0,0.0,0.0,0.0,-4.0801,-4.0293,0.0,0.0,0.0,-3.7676,0.0,0.0,-3.4121,0.0,0.0,0.0,0.0,0.0,-3.1582,-3.1348,-3.1035,-3.1016,-3.123,-3.0996,-3.1406,0.0,0.0,-3.2559,-3.3184,0.0,0.0,-3.3555,-3.5449,-3.584,-3.5605,-3.8457,-3.9863,-4.0371,-4.0488,-4.0254,-3.9785,-3.9004,-3.875,0.0,-3.6875,0.0,0.0,0.0,0.0,0.0,-3.3926,0.0,0.0,0.0,0.0,0.0,0.0,0.0,0.0,0.0,0.0,0.0,0.0,0.0,0.0,0.0,0.0,-3.148,0.0,0.0,0.0,0.0,0.0,0.0,0.0,0.0,0.0,-3.9697,-3.9697,-3.9697,-3.9697,-3.9697,-3.9697,-3.9697,-3.9697,-3.9697,-3.9697,-3.9697,-3.9697,-3.9697,-3.9697,-3.9697,-3.9697,-3.9697,-3.9697,-3.9697,-3.9697,-3.9772,-3.9948,-4.035,-4.0701,-4.1053,-4.1856,-4.2258,-4.2384,-4.2384,-4.2635,-4.2986,-3.0898,-3.123,0.0,0.0,0.0,0.0,0.0,0.0,0.0,0.0,0.0,0.0,0.0,0.0,0.0,0.0,0.0,-3.9961,-4.0332,0.0,-3.4766,0.0,0.0,0.0,0.0,0.0,0.0,-3.0918,-3.0898,-3.1309,0.0,-3.1269,-3.1562,-3.2812,0.0,-3.4004,-3.4121,-3.5391,-3.6172,-3.6523,-3.6621,-3.7363,-3.8437,0.0,-3.916,-3.9961,-4.0371,0.0,0.0,-3.9336,-3.918,0.0,0.0,0.0,0.0,0.0,0.0,0.0,0.0,0.0,0.0,-3.3223,0.0,0.0,0.0,0.0,-3.1894,0.0,0.0,0.0,0.0,0.0,0.0,-3.1426,0.0,0.0,0.0,0.0,0.0,0.0,0.0,0.0,0.0,0.0,0.0,-3.9697,-3.9697,-3.9697,-3.9697,-3.9697,-3.9697,-3.9697,-3.9697,-3.9697,-3.9697,-3.9697,-3.9697,-3.9697,-3.9697,-3.9697,-3.9697,-3.9697,-3.9697,-3.9697,-3.9697,-3.9998,-4.0501,-4.0501,-4.1153,-4.2108,-4.2133,-4.2484,-4.2961,-4.2961,-4.2961,-4.2986,0.0,0.0,0.0,0.0,0.0,0.0,0.0,-3.7871,0.0,0.0,0.0,0.0,0.0,0.0,-4.4707,0.0,0.0,-4.2558,-4.1836,-3.9902,0.0,0.0,0.0,-3.5527,0.0,0.0,0.0,0.0,0.0,0.0,0.0,0.0,-3.2285,0.0,0.0,-3.4394,0.0,0.0,0.0,0.0,0.0,-3.7598,-3.8984,0.0,0.0,-3.9453,-3.959,-3.9551,0.0,-3.9258,-3.9023,-3.8652,-3.7949,-3.7519,-3.7168,-3.6445,-3.6133,0.0,0.0,0.0,-3.5117,-3.3945,0.0,0.0,0.0,0.0,0.0,0.0,0.0,0.0,0.0,0.0,0.0,-3.1074,-3.0976,0.0,0.0,0.0,0.0,0.0,0.0,0.0,0.0,0.0,0.0,-3.9697,-3.9697,-3.9697,-3.9697,-3.9697,-3.9697,-3.9697,-3.9697,-3.9697,-3.9697,-3.9697,-3.9697,-3.9697,-3.9697,-3.9898,-4.0249,-4.0249,-4.0425,-4.0777,-4.0777,-4.0877,-4.1078,-4.1455,-4.1806,-4.2183,-4.2559,-4.2811,-4.2986,-4.2986,-4.2986,-4.2986,-3.2513,0.0,0.0,0.0,0.0,0.0,0.0,0.0,0.0,0.0,-4.3437,0.0,-4.6562,0.0,-4.6738,0.0,-4.6308,-4.4941,-4.3008,-4.2109,0.0,-3.9062,-3.8496,0.0,0.0,0.0,0.0,0.0,0.0,-3.2871,0.0,0.0,0.0,0.0,0.0,0.0,0.0,0.0,-3.707,0.0,0.0,-3.8008,0.0,0.0,-3.9062,-3.9199,0.0,-3.9101,-3.8984,-3.8984,-3.8789,-3.8496,-3.8066,-3.7734,-3.7383,-3.666,-3.6465,-3.6367,-3.5918,-3.5703,0.0,-3.4512,-3.3769,0.0,-3.1973,0.0,0.0,0.0,0.0,0.0,0.0,0.0,0.0,-3.0898,-3.0898,-3.1556,0.0,-3.5945,0.0,0.0,0.0,0.0,0.0,0.0,-3.9471,-3.9672,-3.9521,-3.9496,0.0,0.0,-3.9697,-3.9697,-3.9697,-3.9697,-3.9697,-3.9898,-3.9998,-3.9998,-4.0199,-4.0475,-4.0802,-4.0802,-4.1003,-4.1329,-4.1329,-4.1455,-4.1656,-4.2007,-4.2258,-4.2484,-4.2836,-4.2986,-4.2986,-4.2986,-4.2986,-4.2986,0.0,0.0,0.0,0.0,-3.4941,0.0,0.0,0.0,-4.2109,0.0,-4.4726,-4.6308,-4.7598,-4.8086,-4.8496,-4.8926,-4.8535,0.0,-4.4121,-4.3887,0.0,0.0,-3.9687,-3.8906,-3.6328,0.0,0.0,0.0,0.0,0.0,0.0,0.0,0.0,0.0,-3.5684,0.0,-3.4902,-3.7891,-3.8437,-3.7363,-3.8203,-3.8555,-3.8574,-3.8574,-3.8828,-3.9199,-3.916,-3.8887,-3.8574,-3.8555,-3.8555,-3.8476,-3.8086,-3.793,-3.7656,-3.6445,-3.6641,-3.6992,-3.5762,-3.5723,-3.582,-3.4941,0.0,0.0,0.0,0.0,-3.2949,0.0,0.0,0.0,0.0,0.0,0.0,-3.0898,-3.0898,-3.1883,0.0,0.0,0.0,0.0,0.0,0.0,0.0,-3.922,-3.912,-3.9647,-3.922,-3.9145,0.0,0.0,-3.9697,-3.9697,-3.9697,-3.9697,-3.9747,-4.0249,-4.0526,-4.0576,-4.1103,-4.1354,-4.1379,-4.1379,-4.1404,-4.1404,-4.1404,-4.1706,-4.2208,-4.2208,-4.2509,-4.2986,-4.2986,-4.2986,-4.2986,-4.2986,-4.2986,-4.2986,-3.3579,-3.4863,-3.5801,0.0,-3.6152,-3.6621,0.0,0.0,0.0,0.0,-4.6504,-4.8183,-4.9805,-5.0078,-5.0176,-5.0293,-4.9629,0.0,0.0,0.0,0.0,-4.3457,-4.3281,-4.2168,-3.9902,-3.9746,0.0,-3.6465,0.0,0.0,-3.584,0.0,0.0,0.0,0.0,0.0,-3.4883,-3.7598,-3.8184,-3.7344,-3.7871,-3.8281,0.0,0.0,-3.8828,-3.9121,-3.8476,-3.8398,-3.8535,-3.8203,-3.8086,-3.8125,-3.834,-3.7969,-3.7402,-3.707,-3.6914,-3.6699,-3.6035,-3.5937,-3.5879,-3.5351,-3.4648,-3.3906,0.0,0.0,0.0,0.0,0.0,0.0,0.0,0.0,0.0,0.0,-3.0898,0.0,0.0,0.0,0.0,-3.7902,0.0,0.0,-3.9697,-3.9572,-3.9546,-3.9697,-3.9572,-3.9546,-3.9697,0.0,0.0,-3.9697,-3.9697,-3.9898,-4.03,-4.045,-4.0727,-4.1128,-4.1279,-4.1555,-4.1957,-4.1957,-4.2158,-4.2559,-4.2559,-4.2635,-4.276,-4.276,-4.2861,-4.2986,-4.2986,-4.2986,-4.2986,-4.2986,-4.2986,-4.2986,-3.3848,0.0,0.0,-3.832,0.0,0.0,-3.8345,0.0,0.0,-4.3936,-4.6569,0.0,-5.0117,-5.0742,-5.123,-5.1601,-5.0683,0.0,0.0,0.0,0.0,-4.5391,-4.5078,-4.4043,-4.2051,-4.1211,0.0,-3.8437,0.0,0.0,-3.6816,0.0,0.0,0.0,0.0,-3.6191,0.0,-3.7441,-3.8125,-3.7851,-3.791,0.0,0.0,-3.8496,-3.873,-3.8848,-3.8164,-3.8086,-3.8281,-3.8223,-3.8086,-3.7969,-3.8223,-3.7969,-3.7539,-3.7344,-3.7129,-3.6855,-3.6426,-3.6309,-3.6152,-3.5547,-3.5019,-3.4434,-3.3613,-3.3418,-3.3105,0.0,0.0,0.0,0.0,0.0,0.0,0.0,0.0,0.0,0.0,0.0,0.0,0.0,-3.8792,0.0,-3.9697,-3.9471,-3.9421,-3.9672,-3.9471,-3.9446,0.0,0.0,0.0,-3.9697,-3.9697,-3.9948,-4.0501,-4.0752,-4.1153,-4.1706,-4.1932,-4.2208,-4.2509,-4.2509,-4.2685,-4.2986,-4.2986,-4.2986,-4.2986,-4.2986,-4.2986,-4.3011,-4.3237,-4.3187,-4.3011,-4.3237,-4.3187,-4.2986,0.0,0.0,0.0,0.0,0.0,0.0,0.0,-4.0768,0.0,-4.1728,0.0,-4.8401,-4.922,-5.0204,-5.1347,-5.2558,0.0,-5.0332,-4.918,-4.9004,-4.8086,-4.6172,-4.6035,-4.5176,-4.3379,-4.2129,0.0,0.0,0.0,0.0,-3.7637,-3.5625,0.0,0.0,0.0,0.0,0.0,-3.709,-3.7715,-3.8047,-3.7773,-3.7734,-3.7891,-3.832,-3.8535,-3.8516,-3.8086,-3.7969,-3.8066,-3.8379,-3.8242,-3.793,-3.7988,-3.793,-3.7773,-3.7402,-3.7266,-3.7129,-3.6699,-3.6582,-3.6387,-3.5586,-3.5351,-3.498,-3.3789,-3.3457,-3.3203,-3.2422,-3.1953,-3.166,0.0,0.0,0.0,0.0,0.0,0.0,0.0,0.0,0.0,0.0,0.0,0.0,-3.9697,-3.927,-3.917,-3.9647,-3.9245,-3.9195,0.0,0.0,0.0,-3.9697,-3.9697,-3.9998,-4.0626,0.0,-4.1656,-4.2258,-4.276,-4.2986,-4.2986,-4.2986,-4.2986,-4.2986,-4.2986,-4.2986,-4.2986,-4.2986,-4.3011,-4.3137,-4.3614,-4.3514,-4.3137,-4.3639,-4.3463,-4.2986,0.0,0.0,0.0,0.0,0.0,-3.8915,-3.7898,-3.8908,-3.9991,-4.0701,-4.2765,0.0,-4.7907,-4.8249,-4.9188,-5.1951,-5.1348,0.0,0.0,0.0,0.0,-4.834,-4.7949,-4.6797,-4.4726,-4.375,-4.2324,0.0,0.0,0.0,-3.6328,-3.5215,0.0,0.0,0.0,0.0,-3.5996,-3.5488,0.0,-3.543,-3.6094,-3.6777,-3.7461,-3.7871,-3.8262,-3.8516,-3.8086,-3.8164,-3.8418,-3.8125,-3.7988,-3.7988,-3.8359,-3.7969,-3.7402,-3.7324,-3.7051,-3.668,-3.625,-3.6133,-3.6016,-3.5527,-3.5098,-3.4668,-3.4101,-3.3691,-3.3281,-3.2793,-3.2617,-3.2461,-3.2129,0.0,0.0,0.0,0.0,0.0,0.0,0.0,0.0,0.0,0.0,-3.8348,0.0,-3.9597,-3.9597,-3.9697,-3.9597,-3.9597,-3.9697,0.0,0.0,0.0,-3.9697,0.0,0.0,0.0,-4.1831,-4.2836,-4.2936,-4.2986,-4.2986,-4.2986,-4.2986,-4.2986,-4.2986,-4.2986,-4.2986,-4.2986,-4.3237,-4.3664,-4.3765,-4.374,-4.3664,-4.3765,-4.3463,-4.2986,0.0,0.0,0.0,0.0,0.0,0.0,0.0,-3.7012,0.0,-3.821,-4.0623,-4.2741,-4.4316,-4.5082,-4.6811,-5.0097,-4.9583,-4.9717,-5.0939,-5.0332,-4.9668,-4.9219,-4.8574,0.0,-4.5723,-4.418,-4.2656,-4.1191,0.0,0.0,-3.6328,0.0,0.0,-3.3457,0.0,-3.5508,0.0,0.0,0.0,-3.5781,-3.6426,-3.6797,-3.707,-3.793,-3.8242,-3.8203,-3.8008,-3.8066,-3.8203,-3.7988,-3.7637,-3.7383,-3.8027,-3.7656,-3.7012,-3.7226,-3.6836,-3.6348,-3.6348,-3.6035,-3.5586,-3.5137,-3.4707,-3.4258,-3.3828,-3.3574,-3.3359,-3.3164,-3.2949,-3.2598,-3.1953,-3.166,0.0,0.0,0.0,0.0,0.0,0.0,0.0,0.0,0.0,0.0,0.0,0.0,0.0,0.0,0.0,-3.9697,-3.9697,0.0,0.0,0.0,0.0,0.0,0.0,0.0,0.0,-4.2986,-4.2986,-4.2986,-4.2986,-4.2986,-4.2986,-4.2986,-4.2986,-4.2986,-4.3011,-4.3288,-4.3564,-4.3865,-4.4443,-4.4317,-4.3865,-4.4468,-4.4141,-4.3413,0.0,-3.462,0.0,0.0,-3.5465,0.0,0.0,-3.5661,-3.5143,-3.5991,-3.8462,-4.0395,-4.1088,-4.2222,-4.4184,-4.7359,-4.6889,-4.7653,-5.0279,-4.9704,-4.9297,-4.9551,-4.8769,-4.7754,-4.6465,-4.4414,-4.2754,0.0,0.0,0.0,0.0,-3.418,0.0,0.0,0.0,0.0,0.0,0.0,-3.5859,-3.6289,-3.6719,-3.6855,-3.6914,-3.793,-3.8203,-3.8047,-3.7969,-3.793,-3.791,-3.7812,-3.7344,-3.6914,-3.7578,-3.7266,-3.6738,-3.707,-3.6621,-3.6094,-3.6445,-3.6035,-3.5391,-3.4844,-3.4453,-3.4062,-3.3535,-3.3418,-3.3418,-3.3418,-3.3164,-3.2695,-3.1934,-3.1797,0.0,0.0,0.0,0.0,0.0,0.0,0.0,0.0,0.0,0.0,-3.7453,0.0,0.0,0.0,0.0,-3.9697,-3.9697,-3.9697,-3.9697,0.0,0.0,-4.0777,-4.1329,0.0,-4.2434,-4.2986,-4.2986,-4.2986,-4.2986,-4.2986,-4.3037,-4.3162,-4.3162,-4.3212,-4.3363,-4.394,-4.4166,-4.4242,-4.5146,-4.4945,-4.4267,-4.5171,-4.4844,-4.3991,0.0,0.0,0.0,0.0,0.0,0.0,0.0,-3.5981,-3.5204,-3.5563,-3.5828,-3.7209,-4.0183,-4.0272,-4.1209,-4.4118,-4.3657,-4.4436,-4.7038,-4.6507,-4.7213,-4.9344,-4.9062,-4.8183,-4.6894,-4.5156,-4.3086,0.0,0.0,0.0,0.0,0.0,0.0,0.0,0.0,0.0,0.0,-3.4101,-3.4492,-3.4922,-3.5391,-3.625,-3.7246,-3.7383,-3.7871,-3.8457,-3.8066,-3.793,-3.7871,-3.748,-3.7305,-3.7246,-3.7324,-3.7031,-3.668,-3.6719,-3.6387,-3.6035,-3.6074,-3.6016,-3.5762,-3.4902,-3.4668,-3.4434,-3.3613,-3.3418,-3.3418,-3.3418,-3.3398,-3.3223,-3.2754,-3.2676,-3.2422,0.0,0.0,0.0,0.0,0.0,0.0,0.0,0.0,0.0,0.0,-3.8792,0.0,0.0,-3.9697,-3.9697,-3.9697,-3.9697,-3.9697,-3.9697,0.0,-4.0777,-4.1329,-4.1882,-4.2434,-4.2986,-4.2986,-4.2986,-4.2986,-4.2986,-4.3263,-4.374,-4.374,-4.4016,-4.4518,-4.5095,-4.5321,-4.5347,-4.5447,-4.5422,-4.5347,-4.5447,-4.5095,-4.4618,0.0,0.0,0.0,0.0,0.0,0.0,0.0,-3.5578,-3.5297,-3.5591,-3.5631,-3.6085,-3.7234,-3.7349,-3.8235,-4.0914,-4.0856,-4.181,-4.4203,-4.3888,-4.3901,-4.4831,-4.5993,-4.5945,-4.4734,-4.4799,-4.3633,0.0,0.0,0.0,0.0,0.0,0.0,0.0,0.0,-3.3398,-3.4219,-3.4668,-3.5254,-3.5937,-3.6641,-3.707,-3.7363,-3.7871,-3.8105,-3.8164,-3.7988,-3.793,-3.7851,-3.7441,-3.7305,-3.7305,-3.7305,-3.7012,-3.668,-3.668,-3.6367,-3.6016,-3.6016,-3.584,-3.5488,-3.4863,-3.4512,-3.416,-3.3555,-3.3418,-3.3418,-3.3418,-3.3418,-3.3301,-3.2871,-3.2793,-3.2676,0.0,0.0,0.0,0.0,0.0,0.0,0.0,0.0,0.0,0.0,0.0,0.0,0.0,0.0,-3.9697,-3.9697,-3.9697,-3.9697,-3.9697,0.0,-4.1128,-4.1329,-4.2208,-4.276,-4.2986,-4.2986,-4.2986,-4.2986,-4.2986,-4.3112,-4.3313,-4.3664,-4.4116,-4.4669,-4.5246,-4.5497,-4.5522,-4.5849,-4.5773,-4.5522,-4.5849,-4.5623,-4.5221,-3.1583,0.0,-3.1984,0.0,-3.344,-3.3908,-3.5137,-3.5244,-3.5324,-3.5712,-3.5605,-3.5538,-3.5618,-3.5631,-3.6334,-3.7875,-3.7881,-3.8881,-4.1441,-4.1008,-4.1032,-4.1552,-4.3018,0.0,-4.2302,-4.3514,-4.3098,-4.0979,-3.9755,0.0,0.0,0.0,0.0,0.0,-3.3047,-3.3848,-3.5098,-3.543,-3.6074,-3.6914,-3.75,-3.7637,-3.7539,-3.8144,-3.8281,-3.8105,-3.8105,-3.8105,-3.8047,-3.7617,-3.748,-3.7441,-3.7187,-3.6914,-3.6641,-3.6523,-3.6269,-3.6016,-3.6016,-3.5801,-3.543,-3.4844,-3.4473,-3.4101,-3.3555,-3.3418,-3.3418,-3.3418,-3.3418,-3.332,-3.3027,-3.2988,-3.293,-3.2812,0.0,0.0,0.0,0.0,0.0,0.0,-3.2207,-3.3077,-3.3077,-3.5813,0.0,0.0,0.0,0.0,-3.9697,-3.9697,0.0,0.0,0.0,0.0,0.0,-4.2509,-4.2986,-4.2986,-4.2986,-4.2986,-4.2986,-4.3137,-4.3313,-4.3489,-4.4066,-4.4618,-4.5146,-4.5573,-4.5723,-4.5773,-4.615,-4.6075,-4.5773,-4.6175,-4.6075,-4.5773,-3.2305,-3.2532,-3.2906,-3.4095,-3.4549,-3.4937,-3.5538,-3.5378,-3.5404,-3.5992,-3.5565,-3.5311,-3.5591,-3.5631,-3.5511,-3.5217,-3.4656,-3.5526,-3.8111,-3.7685,-3.8472,0.0,0.0,-4.0983,-4.0066,-4.1186,-4.0898,-3.8904,0.0,0.0,-3.6641,0.0,-3.5117,-3.4687,-3.5156,-3.5605,-3.5996,-3.6016,-3.6504,-3.7285,-3.7305,-3.7539,-3.791,-3.793,-3.8203,-3.8574,-3.8574,-3.8574,-3.8496,-3.8066,-3.791,-3.7773,-3.6934,-3.668,-3.6582,-3.6152,-3.6016,-3.6016,-3.6016,-3.6016,-3.5801,-3.4922,-3.4687,-3.4473,-3.3613,-3.3418,-3.3418,-3.3418,-3.3418,-3.3418,-3.3418,-3.3418,-3.3281,-3.2871,0.0,0.0,0.0,0.0,0.0,0.0,-3.2207,-3.3077,-3.3077,-3.5813,0.0,0.0,0.0,0.0,0.0,0.0,0.0,-4.0501,-4.1053,0.0,-4.2133,-4.271,-4.2986,-4.2986,-4.2986,-4.2986,-4.2986,-4.3539,-4.4091,-4.4644,-4.5221,-4.5773,-4.6301,-4.6301,-4.6301,-4.6301,-4.6301,-4.6301,-4.6301,-4.6301,-4.6301,-4.6301,-3.3066,-3.3467,-3.3868,-3.4255,-3.4736,-3.5124,-3.5311,-3.5257,-3.5257,-3.5458,-3.5137,-3.4937,-3.503,-3.5217,-3.5297,0.0,-3.4843,-3.4936,0.0,-3.5138,-3.5207,-3.5946,-3.9221,-4.0809,-3.9895,-4.1384,-4.2051,-4.2093,0.0,0.0,0.0,-3.6953,-3.6465,-3.6055,-3.6191,-3.666,-3.7324,-3.7324,-3.7656,-3.8164,-3.8164,-3.8242,-3.8359,-3.8359,-3.8457,-3.8574,-3.8574,-3.8574,-3.8516,-3.8066,-3.793,-3.7773,-3.6934,-3.668,-3.6582,-3.6152,-3.6016,-3.6016,-3.6016,-3.6016,-3.5879,-3.5312,-3.4941,-3.4551,-3.3984,-3.3633,-3.3418,-3.3418,-3.3418,-3.3418,-3.3418,-3.3418,-3.3379,-3.3242,-3.2988,0.0,0.0,0.0,0.0,0.0,-3.1325,-3.1536,0.0,-3.3417,0.0,0.0,0.0,0.0,0.0,0.0,0.0,0.0,-4.1404,0.0,-4.2158,-4.271,-4.2986,-4.2986,-4.2986,-4.2986,-4.2986,-4.3162,-4.3338,-4.3539,-4.4091,-4.4644,-4.5196,-4.5573,-4.5974,-4.6301,-4.6301,-4.6301,-4.6301,-4.6301,-4.6301,-4.6301,-3.3734,-3.4055,-3.4362,-3.4469,-3.479,-3.507,-3.5177,-3.5191,-3.5191,-3.5191,-3.5044,-3.4923,-3.4923,-3.499,0.0,-3.487,-3.4603,-3.4362,-3.4162,-3.3881,-3.3614,-3.3414,-3.6407,-3.8202,-3.8576,0.0,0.0,-4.1358,-3.8761,-3.7995,-3.8887,-3.8301,-3.7969,-3.7871,-3.7871,-3.8086,-3.8398,-3.8398,-3.8476,-3.8574,-3.8574,-3.8574,-3.8574,-3.8574,-3.8574,-3.8574,-3.8574,-3.8574,-3.8535,-3.8262,-3.7949,-3.7617,-3.7266,-3.6816,-3.6367,-3.6094,-3.6016,-3.6016,-3.6016,-3.6016,-3.5918,-3.5488,-3.5176,-3.4805,-3.4219,-3.373,-3.3418,-3.3418,-3.3418,-3.3418,-3.3418,-3.3418,-3.3418,-3.3418,-3.3203,-3.2832,-3.2246,0.0,0.0,0.0,0.0,0.0,0.0,-3.2452,-3.3898,0.0,0.0,0.0,0.0,0.0,0.0,-4.0827,-4.1681,0.0,-4.2459,-4.2811,-4.2986,-4.2986,-4.2986,-4.2986,-4.2986,-4.3187,-4.3388,-4.3639,-4.4192,-4.4744,-4.5296,-4.5648,-4.5999,-4.6301,-4.6301,-4.6301,-4.6301,-4.6301,-4.6301,-4.6301,-3.4269,-3.4336,0.0,0.0,-3.4776,0.0,-3.5151,-3.5191,-3.5191,-3.5191,-3.5177,-3.5164,-3.5137,-3.4883,-3.4589,-3.4282,0.0,0.0,0.0,-3.3587,-3.3414,-3.3414,-3.3345,-3.4199,-3.6119,-3.5494,-3.5761,-3.6992,-3.7101,-3.8264,-4.0279,-3.9596,-3.957,-3.998,-3.9961,-3.9707,-3.9297,-3.9238,-3.8965,-3.8613,-3.8594,-3.8574,-3.8574,-3.8574,-3.8574,-3.8574,-3.8574,-3.8574,-3.8574,-3.8535,-3.8008,-3.7402,-3.7773,-3.7051,-3.6074,-3.6074,-3.6035,-3.6016,-3.6016,-3.6016,-3.5918,-3.5488,-3.5351,-3.5078,-3.4258,-3.373,-3.3418,-3.3418,-3.3418,-3.3418,-3.3418,-3.3418,-3.3418,-3.3418,-3.3398,-3.3105,-3.2285,0.0,0.0,0.0,0.0,0.0,0.0,-3.2784,-3.4231,0.0,0.0,0.0,0.0,0.0,-3.9141,-4.1272,-4.1932,-4.2459,-4.2961,-4.2986,-4.2986,-4.2986,-4.2986,-4.2986,-4.3062,-4.3564,-4.4091,-4.4644,-4.5196,-4.5748,-4.625,-4.625,-4.6276,-4.6301,-4.6301,-4.6301,-4.6301,-4.6301,-4.6301,-4.6301,0.0,0.0,-3.4683,-3.475,-3.495,-3.5124,-3.5191,-3.5191,-3.5191,-3.5191,-3.5004,-3.4776,-3.4549,-3.4269,-3.3961,-3.3654,-3.3788,-3.3881,-3.3881,-3.3587,-3.3414,-3.3414,-3.5281,-3.6324,-3.6134,-3.5906,-3.5348,-3.4204,-3.7333,-3.8798,-3.8841,-4.0142,-4.0762,-4.0859,-4.0527,-4.0312,-4.0176,-3.9492,-3.9141,-3.9023,-3.8711,-3.8574,-3.8574,-3.8574,-3.8574,-3.8574,-3.8574,-3.8574,-3.8516,-3.8184,-3.7949,-3.7734,-3.7519,-3.7012,-3.6523,-3.6523,-3.6289,-3.6016,-3.6016,-3.6016,-3.5918,-3.5488,-3.4883,-3.4336,-3.4121,-3.373,-3.3418,-3.3418,-3.3418,-3.3418,-3.3418,-3.3418,-3.3418,-3.3418,-3.3144,-3.2754,-3.2246,-3.2168,0.0,0.0,-3.1758,-3.2012,-3.2012,-3.2354,-3.3464,0.0,0.0,0.0,0.0,-3.7632,-3.7747,-4.1848,-4.2484,-4.2836,-4.2986,-4.2986,-4.2986,-4.2986,-4.2986,-4.3187,-4.3614,-4.374,-4.4091,-4.4644,-4.4769,-4.5146,-4.5673,-4.5673,-4.5924,-4.6301,-4.6301,-4.6301,-4.6301,-4.6301,-4.6301,-4.6301,-3.4696,-3.4857,-3.4963,-3.4963,-3.5097,-3.5191,-3.5191,-3.5191,-3.5191,-3.5191,-3.5057,-3.4897,-3.4736,-3.4336,-3.4015,-3.3841,-3.3734,-3.3668,-3.3668,-3.3507,-3.3414,-3.3414,-3.4631,-3.5753,-3.6342,-3.4942,-3.4001,-3.3442,-3.5349,-3.6577,-3.6834,-3.875,-3.9688,-3.9688,-4.0434,-4.0703,-4.0488,-4.0019,-3.957,-3.918,-3.8945,-3.875,-3.8574,-3.8574,-3.8574,-3.8574,-3.8574,-3.8574,-3.8535,-3.8301,-3.8086,-3.791,-3.7891,-3.7324,-3.6719,-3.6894,-3.6504,-3.6016,-3.6016,-3.6016,-3.5957,-3.5742,-3.5176,-3.4668,-3.4668,-3.418,-3.3711,-3.3711,-3.3555,-3.3418,-3.3418,-3.3418,-3.3359,-3.3164,-3.2949,-3.2578,-3.1953,-3.2051,0.0,-3.1562,-3.207,-3.2461,-3.2461,-3.2461,-3.3276,-3.5337,-3.4087,0.0,-3.8864,-3.7309,-3.8066,-4.2048,-4.1266,-4.1533,-4.2986,-4.2986,-4.2986,-4.2986,-4.2986,-4.3137,-4.3438,-4.394,-4.4342,-4.4644,-4.5171,-4.5573,-4.5874,-4.5874,-4.605,-4.6301,-4.6301,-4.6301,-4.6301,-4.6301,-4.6301,-4.6301,-3.5151,-3.5191,-3.5191,-3.5191,-3.5191,-3.5191,-3.5191,-3.5164,-3.5137,-3.5137,-3.5097,-3.5044,-3.5004,-3.4549,-3.4242,-3.4189,-3.3708,-3.3414,-3.3414,-3.3414,-3.3414,-3.3414,-3.3173,-3.3959,-3.5953,-3.3464,-3.2418,-3.3246,-3.2939,-3.3475,-3.4766,-3.6972,-3.7896,-3.8054,-4.0197,-4.0976,-4.0625,-4.0547,-4.0078,-3.9394,-3.9258,-3.8984,-3.8652,-3.8594,-3.8574,-3.8574,-3.8574,-3.8574,-3.8574,-3.8574,-3.832,-3.8086,-3.8457,-3.7754,-3.6836,-3.7187,-3.6699,-3.6016,-3.6016,-3.5976,-3.5937,-3.5996,-3.5644,-3.5312,-3.5371,-3.4746,-3.416,-3.416,-3.3828,-3.3516,-3.3516,-3.3476,-3.3281,-3.2871,-3.2734,-3.2441,-3.1719,0.0,-3.2051,-3.1738,-3.2402,-3.2891,-3.2891,-3.2891,-3.345,-3.4935,-3.4503,-3.5134,-3.7228,-3.6964,-3.8296,-4.146,-3.9407,-3.9522,-4.2263,-4.2337,-4.2337,-4.2263,-4.2488,-4.27,-4.2899,-4.4077,-4.4719,-4.4945,-4.5899,-4.6301,-4.6301,-4.6301,-4.6301,-4.6301,-4.6301,-4.6301,-4.6301,-4.6301,-4.6301,-4.6301,-3.5191,-3.5191,-3.5191,-3.5191,-3.5191,-3.5191,-3.5191,-3.499,-3.483,-3.483,-3.4616,-3.4362,-3.4122,-3.4015,-3.3841,-3.3574,-3.3467,-3.3414,-3.3414,-3.3414,-3.3414,-3.3414,-3.3374,-3.3305,-3.3198,-3.2216,-3.1584,-3.1267,-3.2583,-3.2962,-3.2783,-3.6268,-3.7896,-3.8054,-4.0197,-4.1133,-4.1055,-4.0684,-4.0449,-4.0254,-3.9492,-3.916,-3.9062,-3.8711,-3.8574,-3.8574,-3.8574,-3.8574,-3.8574,-3.8574,-3.8535,-3.8476,-3.8555,-3.7949,-3.7207,-3.7285,-3.6699,-3.6016,-3.6016,-3.5762,-3.5566,-3.5937,-3.541,-3.4902,-3.5312,-3.498,-3.4609,-3.4609,-3.4258,-3.3965,-3.3965,-3.3672,-3.3281,-3.2871,-3.25,-3.2226,-3.209,0.0,-3.2285,-3.2559,-3.3027,-3.332,-3.332,-3.332,-3.3769,-3.4956,-3.4144,-3.4636,-3.7272,-3.5269,-3.5477,-3.8703,-3.8416,-3.8461,-3.8935,-3.9368,-3.9368,-3.8935,-4.0361,-4.1441,-4.2447,-4.3937,-4.5146,-4.605,-4.6225,-4.6301,-4.6301,-4.6301,-4.6301,-4.6301,-4.6301,-4.6301,-4.6301,-4.6301,-4.6301,-4.6301,-3.4963,-3.5084,-3.5191,-3.5191,-3.5191,-3.5191,-3.5191,-3.5084,-3.5004,-3.5004,-3.475,-3.4509,-3.4376,-3.4082,-3.3828,-3.3681,-3.3507,-3.3414,-3.3414,-3.3414,-3.3414,-3.3414,-3.3414,-3.3146,-3.2559,-3.1971,-3.1383,-3.0795,-3.1263,-3.1155,-3.0536,-3.3375,-3.4507,-3.4489,-3.7896,-3.9374,-3.9512,-4.0472,-4.0742,-4.0469,-3.9824,-3.9434,-3.916,-3.873,-3.8574,-3.8574,-3.8574,-3.8574,-3.8574,-3.8574,-3.8418,-3.8262,-3.8496,-3.7832,-3.7012,-3.7226,-3.6699,-3.6016,-3.6016,-3.6055,-3.6074,-3.6035,-3.5879,-3.5762,-3.5742,-3.5391,-3.5078,-3.5078,-3.4726,-3.4336,-3.4121,-3.3906,-3.3555,-3.291,-3.2637,0.0,0.0,-3.2363,-3.2578,-3.2773,-3.3164,-3.3418,-3.3418,-3.3418,-3.3591,-3.4101,-3.3677,-3.3928,-3.5167,-3.4033,-3.4027,-3.5581,-3.7265,-3.7746,-3.6902,-3.7967,-3.8942,-3.9939,-4.0646,-4.1894,-4.3541,-4.4568,-4.5372,-4.5874,-4.6175,-4.6301,-4.6301,-4.6301,-4.6301,-4.6301,-4.6301,-4.6301,-4.6301,-4.6301,-4.6301,-4.6301,-3.487,-3.5044,-3.5191,-3.5191,-3.5191,-3.5191,-3.5191,-3.5137,-3.5097,-3.5097,-3.479,-3.4563,-3.4563,-3.4095,-3.3774,-3.3774,-3.3547,-3.3414,-3.3414,-3.3414,-3.3414,-3.3414,-3.328,-3.2973,-3.2452,-3.1864,-3.1316,-3.0795,-3.0207,-2.9646,-2.9138,-3.0922,-3.1751,-3.1662,-3.5977,-3.7578,-3.7241,-3.9531,-4.0162,-3.9817,-3.9299,-3.9256,-3.9453,-3.8809,-3.8633,-3.8711,-3.8613,-3.8574,-3.8574,-3.8574,-3.8359,-3.8125,-3.8476,-3.7832,-3.7012,-3.7226,-3.6758,-3.6152,-3.6055,-3.6348,-3.6562,-3.6133,-3.6348,-3.6562,-3.6113,-3.5762,-3.5547,-3.5547,-3.5176,-3.4766,-3.4434,-3.4297,-3.3945,-3.3086,0.0,0.0,0.0,-3.2598,-3.2832,-3.293,-3.3223,-3.3418,-3.3418,-3.3418,-3.3418,-3.3418,-3.3418,-3.3418,-3.3418,-3.3418,-3.3418,-3.3418,-3.5932,-3.671,-3.5376,-3.6694,-3.8254,-3.9848,-4.0209,-4.159,-4.3713,-4.4512,-4.5166,-4.5698,-4.6125,-4.6301,-4.6301,-4.6301,-4.6301,-4.6301,-4.6301,-4.6301,-4.6301,-4.6301,-4.6301,-4.6301,-3.5164,-3.5177,-3.5191,-3.5191,-3.5191,-3.5191,-3.5191,-3.4963,-3.479,-3.479,-3.4309,-3.3948,-3.3948,-3.3654,-3.3454,-3.3454,-3.3427,-3.3414,-3.3414,-3.3414,-3.3414,-3.3414,-3.2893,-3.2465,-3.2144,-3.1557,-3.1102,-3.0795,-3.0207,-2.9753,-2.9432,-3.1023,-3.187,-3.1993,-3.6097,-3.6762,-3.5137,-3.7259,-3.8054,-3.7946,-3.7185,-3.8191,-4.0293,-3.9043,-3.8809,-3.9101,-3.8711,-3.8574,-3.8574,-3.8574,-3.8555,-3.8535,-3.8555,-3.8242,-3.7754,-3.7402,-3.6973,-3.6543,-3.6133,-3.6348,-3.6562,-3.6133,-3.6348,-3.6562,-3.6113,-3.5996,-3.5976,-3.5976,-3.5644,-3.5332,-3.5293,-3.4941,-3.4375,-3.3516,0.0,0.0,-3.2812,-3.2773,-3.293,-3.332,-3.3398,-3.3418,-3.3418,-3.3418,-3.3418,-3.3418,-3.3418,-3.3418,-3.3418,-3.3418,-3.3418,-3.3418,-3.4064,-3.4389,-3.428,-3.4654,-3.5001,-3.5151,-3.666,-3.8651,-4.0876,-4.2433,-4.4232,-4.625,-4.6301,-4.6301,-4.6301,-4.6301,-4.6301,-4.6301,-4.6301,-4.6301,-4.6301,-4.6301,-4.6301,-4.6301,-3.4656,-3.4803,-3.4977,-3.5164,-3.5191,-3.5191,-3.5191,-3.5097,-3.503,-3.503,-3.4523,-3.4148,-3.4148,-3.3708,-3.3414,-3.3414,-3.3414,-3.3414,-3.3414,-3.3414,-3.3334,-3.3146,-3.2759,-3.2412,-3.2104,-3.153,-3.1089,-3.0795,-3.0394,-2.986,-2.9205,-2.9804,-2.9829,-2.9607,-3.2592,-3.3349,-3.2858,-3.4975,-3.6602,-3.7842,-3.7301,-3.8452,-4.041,-3.9355,-3.9238,-3.9531,-3.8828,-3.875,-3.8887,-3.8359,-3.7988,-3.7832,-3.8086,-3.7519,-3.6758,-3.6875,-3.6797,-3.6641,-3.6465,-3.6914,-3.7285,-3.6601,-3.6934,-3.7344,-3.6914,-3.6816,-3.6738,-3.6484,-3.6289,-3.6016,-3.5488,-3.5254,-3.4922,-3.4316,0.0,-3.416,-3.4004,-3.3984,-3.3945,-3.3828,-3.3828,-3.3711,-3.3437,-3.3418,-3.3418,-3.3418,-3.3418,-3.3418,-3.3418,-3.3672,-3.3828,-3.3828,-3.4238,-3.4336,-3.4082,-3.4492,-3.5329,-3.6746,-3.8402,-4.0397,-4.2529,-4.3174,-4.3911,-4.4645,-4.4645,-4.4645,-4.4767,-4.5793,-4.6301,-4.6301,-4.6301,-4.6301,-4.6301,-4.6301,-4.6301,-4.6301,-3.4442,-3.4549,-3.475,-3.5124,-3.5044,-3.495,-3.5044,-3.4977,-3.4923,-3.4923,-3.4496,-3.4189,-3.4189,-3.3721,-3.3414,-3.3414,-3.3414,-3.3414,-3.3414,-3.3414,-3.324,-3.2866,-3.2652,-3.2372,-3.1971,-3.1476,-3.1089,-3.0795,-3.0501,-2.9953,-2.9179,-2.9085,-2.8764,-2.8453,-3.047,-3.1076,-3.0592,-3.271,-3.4975,-3.6887,-3.65,-3.8034,-4.0625,-3.9746,-3.9609,-3.9805,-3.9043,-3.8867,-3.8906,-3.832,-3.793,-3.7734,-3.7871,-3.7226,-3.6504,-3.6934,-3.707,-3.7031,-3.6894,-3.748,-3.7891,-3.6914,-3.7305,-3.7812,-3.7402,-3.7305,-3.7226,-3.6934,-3.6875,-3.6699,-3.6094,-3.5996,-3.584,-3.5391,-3.5195,-3.5059,-3.4941,-3.4785,-3.459,-3.4297,-3.4277,-3.4101,-3.3672,-3.3633,-3.3574,-3.3437,-3.3555,-3.3633,-3.3633,-3.3906,-3.4082,-3.4082,-3.4473,-3.4629,-3.4492,-3.4766,-3.5759,-3.7369,-3.8505,-4.0206,-4.2051,-4.2051,-4.2454,-4.2958,-4.2958,-4.3208,-4.3731,-4.5013,-4.5793,-4.6301,-4.6301,-4.6301,-4.6301,-4.6301,-4.6301,-4.6301,-3.4696,-3.4523,-3.4509,-3.5084,-3.471,-3.4429,-3.471,-3.4509,-3.4322,-3.4322,-3.4068,-3.3881,-3.3881,-3.3601,-3.3414,-3.3414,-3.3414,-3.3414,-3.3414,-3.3414,-3.3146,-3.2572,-3.2545,-3.2278,-3.169,-3.1383,-3.1089,-3.0795,-3.0501,-3.006,-2.9486,-2.9179,-2.8885,-2.8762,-3.0571,-3.026,-2.8305,-3.0426,-3.271,-3.4618,-3.4255,-3.6904,-4.1074,-4.0234,-3.9902,-3.9844,-3.9375,-3.8945,-3.8594,-3.8574,-3.8574,-3.8496,-3.8047,-3.7637,-3.7383,-3.7812,-3.793,-3.7832,-3.7422,-3.793,-3.8262,-3.6992,-3.7305,-3.7812,-3.7402,-3.7305,-3.7305,-3.7305,-3.7305,-3.7305,-3.7305,-3.7305,-3.7168,-3.6738,-3.6309,-3.5879,-3.5469,-3.5,-3.4707,-3.4707,-3.4707,-3.4531,-3.4121,-3.4082,-3.3906,-3.3457,-3.3828,-3.4082,-3.4082,-3.4082,-3.4082,-3.4082,-3.4473,-3.4922,-3.5391,-3.5391,-3.5605,-3.6016,-3.6016,-3.6924,-3.8597,-3.8597,-3.9497,-4.1181,-4.1181,-4.2074,-4.3731,-4.3731,-4.4767,-4.6301,-4.6301,-4.6301,-4.6301,-4.6301,-4.6301,-4.6301,-3.4175,-3.4242,-3.4376,-3.4549,-3.4616,-3.4589,-3.4469,-3.4376,-3.4322,-3.4322,-3.4068,-3.3881,-3.3881,-3.3601,-3.3414,-3.3414,-3.3414,-3.3414,-3.3414,-3.3414,-3.324,-3.2866,-3.2652,-3.2372,-3.1984,-3.169,-3.1396,-3.1089,-3.0808,-3.0368,-2.978,-2.9272,-2.8885,-2.8591,-2.8933,-2.8796,-2.8305,-2.8964,-3.1241,-3.4651,-3.4536,-3.7153,-4.1113,-4.0547,-4.0527,-4.0703,-3.9961,-3.9609,-3.9414,-3.8789,-3.8379,-3.8047,-3.7617,-3.7812,-3.8164,-3.7969,-3.793,-3.7891,-3.7773,-3.793,-3.8027,-3.7656,-3.7969,-3.834,-3.8223,-3.8184,-3.8105,-3.7793,-3.7734,-3.7637,-3.7344,-3.7305,-3.7266,-3.7129,-3.6992,-3.6777,-3.6348,-3.6172,-3.5859,-3.5254,-3.5176,-3.5,-3.4551,-3.4512,-3.4453,-3.4336,-3.4434,-3.4394,-3.4082,-3.4355,-3.4375,-3.4082,-3.4805,-3.5254,-3.5391,-3.5684,-3.5898,-3.6016,-3.7173,-3.8088,-3.8597,-3.8597,-3.8861,-3.9387,-3.9387,-4.0408,-4.2074,-4.3208,-4.4767,-4.6301,-4.6301,-4.6301,-4.6301,-4.6301,-4.6301,-4.6301,-3.4068,-3.4002,-3.4042,-3.4282,-3.4269,-3.4215,-3.4162,-3.4042,-3.3961,-3.3961,-3.3814,-3.3694,-3.3694,-3.3534,-3.3414,-3.3414,-3.3414,-3.3414,-3.3414,-3.3414,-3.3334,-3.316,-3.2866,-3.2519,-3.2104,-3.1931,-3.1637,-3.1223,-3.0929,-3.0488,-2.99,-2.9432,-2.9005,-2.8604,-2.8417,-2.8257,-2.8136,-2.8136,-3.0759,-3.4651,-3.3676,-3.6602,-4.1133,-3.991,-4.0027,-4.084,-4.0332,-3.9922,-3.9531,-3.9004,-3.8418,-3.791,-3.7832,-3.8047,-3.8301,-3.8203,-3.8184,-3.8184,-3.8184,-3.8184,-3.8184,-3.8184,-3.8379,-3.8574,-3.8574,-3.8574,-3.8496,-3.8242,-3.8184,-3.8105,-3.7851,-3.7793,-3.7793,-3.7793,-3.7656,-3.7461,-3.7207,-3.6875,-3.6484,-3.5957,-3.5742,-3.5469,-3.5019,-3.498,-3.498,-3.498,-3.498,-3.4863,-3.4609,-3.4824,-3.4863,-3.4609,-3.5117,-3.5469,-3.5644,-3.5898,-3.6016,-3.6016,-3.7059,-3.7575,-3.7575,-3.7575,-3.7575,-3.7575,-3.7575,-3.8597,-4.0278,-4.1287,-4.3083,-4.5281,-4.5281,-4.5671,-4.6301,-4.6301,-4.6301,-4.6301,-3.4229,-3.3828,-3.3614,-3.4148,-3.3801,-3.3547,-3.3801,-3.3601,-3.3414,-3.3414,-3.3414,-3.3414,-3.3414,-3.3414,-3.3414,-3.3414,-3.3414,-3.3414,-3.3414,-3.3414,-3.3414,-3.3414,-3.316,-3.2759,-3.2198,-3.2131,-3.1824,-3.1263,-3.0942,-3.0515,-2.998,-2.9619,-2.9152,-2.8644,-2.8591,-2.8404,-2.8136,-2.8136,-3.0592,-3.4164,-3.2217,-3.5137,-4.0685,-3.8706,-3.8974,-4.0586,-4.0586,-4.0019,-3.9258,-3.918,-3.8633,-3.8047,-3.8457,-3.8301,-3.8066,-3.8457,-3.8574,-3.8574,-3.8574,-3.8574,-3.8574,-3.8574,-3.8574,-3.8574,-3.8574,-3.8574,-3.8574,-3.8574,-3.8613,-3.8613,-3.8574,-3.8613,-3.8613,-3.8574,-3.8242,-3.7969,-3.793,-3.7266,-3.6758,-3.668,-3.6328,-3.5918,-3.5488,-3.5449,-3.5449,-3.5449,-3.5449,-3.543,-3.5391,-3.5391,-3.5371,-3.5332,-3.5371,-3.5586,-3.5957,-3.5996,-3.6016,-3.6016,-3.6016,-3.6016,-3.6016,-3.6016,-3.6016,-3.6016,-3.6016,-3.6924,-3.8597,-3.8597,-4.0537,-4.3482,-4.3482,-4.4497,-4.5793,-4.6059,-4.6059,-4.6059,-3.3975,-3.3881,-3.3748,-3.3627,-3.3708,-3.3721,-3.3547,-3.3454,-3.3414,-3.3414,-3.3414,-3.3414,-3.3414,-3.3414,-3.3414,-3.3414,-3.3414,-3.3414,-3.3414,-3.3414,-3.3414,-3.3414,-3.3347,-3.3146,-3.2799,-3.2332,-3.1931,-3.157,-3.1049,-3.0728,-3.0581,-2.9593,-2.9072,-2.8925,-2.8457,-2.8203,-2.8136,-2.8136,-2.9774,-3.2052,-3.1557,-3.4327,-3.8548,-3.8054,-3.916,-4.1035,-4.1035,-4.0469,-3.9648,-3.8945,-3.8594,-3.8457,-3.8555,-3.8516,-3.8457,-3.8555,-3.8574,-3.8574,-3.8574,-3.8574,-3.8574,-3.8574,-3.8574,-3.8574,-3.8574,-3.8574,-3.8574,-3.8574,-3.8828,-3.8965,-3.8633,-3.8848,-3.8965,-3.8633,-3.8496,-3.832,-3.7969,-3.7773,-3.7402,-3.6758,-3.6582,-3.6367,-3.5918,-3.5879,-3.5879,-3.5879,-3.5879,-3.5742,-3.541,-3.5391,-3.5234,-3.4863,-3.5195,-3.543,-3.5527,-3.5859,-3.6016,-3.6016,-3.6016,-3.6016,-3.6016,-3.6016,-3.6016,-3.6016,-3.6016,-3.6924,-3.8597,-3.8597,-3.9888,-4.1693,-4.1693,-4.1947,-4.2454,-4.3731,-4.4251,-4.4497,-3.3881,-3.3761,-3.3614,-3.344,-3.3547,-3.3601,-3.344,-3.3414,-3.3414,-3.3414,-3.3414,-3.3414,-3.3414,-3.3414,-3.3414,-3.3414,-3.3414,-3.3414,-3.3414,-3.3414,-3.3414,-3.3414,-3.328,-3.3066,-3.2786,-3.2332,-3.2024,-3.1877,-3.1156,-3.0795,-3.0768,-2.974,-2.9179,-2.9018,-2.8564,-2.8283,-2.8136,-2.8136,-2.9453,-3.1227,-3.026,-3.3022,-3.7737,-3.6762,-3.839,-4.1172,-4.1172,-4.0625,-3.9785,-3.9101,-3.875,-3.8574,-3.8574,-3.8574,-3.8574,-3.8574,-3.8574,-3.8574,-3.8574,-3.8574,-3.8574,-3.8574,-3.873,-3.8828,-3.8613,-3.873,-3.8809,-3.8613,-3.8906,-3.9062,-3.8652,-3.875,-3.8828,-3.8613,-3.8574,-3.8496,-3.8262,-3.8047,-3.7676,-3.7051,-3.6973,-3.6797,-3.6367,-3.6152,-3.6016,-3.6016,-3.6016,-3.5918,-3.5703,-3.5684,-3.5586,-3.5332,-3.5566,-3.5684,-3.5684,-3.5918,-3.6016,-3.6016,-3.6016,-3.6016,-3.6016,-3.6016,-3.6016,-3.6016,-3.6016,-3.6539,-3.7307,-3.7307,-3.8353,-4.0018,-4.0018,-4.0408,-4.1437,-4.3083,-4.4251,-4.5013,-3.3881,-3.3627,-3.3414,-3.3414,-3.3414,-3.3414,-3.3414,-3.3414,-3.3414,-3.3414,-3.3414,-3.3414,-3.3414,-3.3414,-3.3414,-3.3414,-3.3414,-3.3414,-3.3414,-3.3414,-3.3414,-3.3414,-3.3133,-3.2866,-3.2625,-3.2278,-3.2078,-3.2024,-3.1196,-3.0795,-3.0768,-2.99,-2.9325,-2.9032,-2.8738,-2.843,-2.8136,-2.8136,-2.9286,-3.0744,-2.9286,-3.2217,-3.7241,-3.5782,-3.7737,-4.1172,-4.1172,-4.0664,-3.9922,-3.9375,-3.8965,-3.8672,-3.8594,-3.8574,-3.8574,-3.8574,-3.8574,-3.8574,-3.8574,-3.8574,-3.8594,-3.8672,-3.8945,-3.9141,-3.8867,-3.9062,-3.9199,-3.8769,-3.9082,-3.9277,-3.8769,-3.8809,-3.8867,-3.8711,-3.8691,-3.8652,-3.8594,-3.8262,-3.7871,-3.7461,-3.7344,-3.7129,-3.6719,-3.6348,-3.6094,-3.6035,-3.6016,-3.6016,-3.6016,-3.6016,-3.6016,-3.6016,-3.6016,-3.6016,-3.6016,-3.6016,-3.6016,-3.6016,-3.6016,-3.6016,-3.6016,-3.6016,-3.6016,-3.6016,-3.6016,-3.6016,-3.6016,-3.6016,-3.6789,-3.8221,-3.8221,-3.8993,-4.0537,-4.258,-4.4497,-4.6301,-3.3828,-3.3627,-3.3414,-3.3414,-3.3414,-3.3414,-3.3414,-3.3414,-3.3414,-3.3414,-3.3414,-3.3414,-3.3414,-3.3414,-3.3414,-3.3414,-3.3414,-3.3414,-3.3414,-3.3414,-3.3414,-3.3414,-3.3133,-3.2959,-3.2919,-3.2385,-3.1984,-3.173,-3.1102,-3.0795,-3.0768,-2.99,-2.9325,-2.9032,-2.8738,-2.843,-2.8136,-2.8136,-2.8305,-2.8796,-3.026,-3.271,-3.5298,-3.6922,-3.904,-4.1172,-4.1172,-4.0859,-4.0312,-3.9492,-3.916,-3.9062,-3.8691,-3.8574,-3.8574,-3.8574,-3.8574,-3.8574,-3.8574,-3.8574,-3.8652,-3.9023,-3.916,-3.9297,-3.9629,-3.9766,-3.9668,-3.9219,-3.9766,-4.0098,-3.9277,-3.9746,-4.0,-3.9238,-3.9121,-3.8984,-3.8633,-3.8516,-3.832,-3.7891,-3.7519,-3.7129,-3.6719,-3.6621,-3.6426,-3.6055,-3.6016,-3.6016,-3.6016,-3.6016,-3.6016,-3.6016,-3.6016,-3.6016,-3.6016,-3.6016,-3.6016,-3.6016,-3.6016,-3.6016,-3.6016,-3.6016,-3.6016,-3.6016,-3.6016,-3.6016,-3.6016,-3.6016,-3.6152,-3.6403,-3.6403,-3.6539,-3.7059,-4.0278,-4.3606,-4.6301,-3.3587,-3.3507,-3.3414,-3.3414,-3.3414,-3.3414,-3.3414,-3.3414,-3.3414,-3.3414,-3.3414,-3.3414,-3.3414,-3.3414,-3.3414,-3.3414,-3.3414,-3.3414,-3.3414,-3.3414,-3.3414,-3.3414,-3.2973,-3.2732,-3.2732,-3.2158,-3.1797,-3.1664,-3.1076,-3.0795,-3.0768,-2.99,-2.9325,-2.9032,-2.8738,-2.843,-2.8136,-2.8136,-2.8136,-2.8305,-2.9286,-3.091,-3.3022,-3.5298,-3.7419,-3.9531,-4.0685,-4.0898,-4.043,-3.9805,-3.959,-3.9473,-3.8789,-3.873,-3.8887,-3.8652,-3.8574,-3.8574,-3.8574,-3.8574,-3.8672,-3.9101,-3.9394,-3.9707,-4.0156,-4.043,-4.041,-3.9726,-4.0098,-4.0332,-3.9707,-3.9902,-4.0039,-3.9648,-3.9375,-3.9141,-3.8945,-3.873,-3.8496,-3.8301,-3.7695,-3.7324,-3.7363,-3.7168,-3.6934,-3.6738,-3.6523,-3.6387,-3.6387,-3.6152,-3.6016,-3.6016,-3.6016,-3.6016,-3.6016,-3.6016,-3.6016,-3.6016,-3.6016,-3.6016,-3.6016,-3.6016,-3.6016,-3.6016,-3.6016,-3.6016,-3.6016,-3.6016,-3.6016,-3.6016,-3.6016,-3.7193,-3.8993,-3.9497,-4.1947,-4.489]}]]